Wetterdaten: Samstag, 06.08.2016
Datum Zeit Temp. A. Feuchte A. Luftdruck Regen Wind Richtung Richtung Sonnenschein ET UV Solar Taupunkt Windchill Windben Empfang
06.08.2016 00:00 13,1 C 96 % 1020,8 hPa 0,0 l/m 8,8 km/h (2 Bft) SW 216 0 min 0,000 mm 0,0 UV-I 0 W/m 12,5 C 11,7 C 12,9 km/h (3 Bft) 100,00 %
06.08.2016 00:02 13,1 C 96 % 1020,9 hPa 0,0 l/m 7,3 km/h (2 Bft) SW 235 0 min 0,000 mm 0,0 UV-I 0 W/m 12,5 C 12,5 C 11,3 km/h (2 Bft) 95,56 %
06.08.2016 00:04 13,1 C 96 % 1020,9 hPa 0,0 l/m 7,2 km/h (2 Bft) S 169 0 min 0,000 mm 0,0 UV-I 0 W/m 12,5 C 12,6 C 11,3 km/h (2 Bft) 95,12 %
06.08.2016 00:06 13,1 C 96 % 1020,8 hPa 0,0 l/m 7,5 km/h (2 Bft) W-SW 241 0 min 0,000 mm 0,0 UV-I 0 W/m 12,5 C 12,4 C 11,3 km/h (2 Bft) 96,00 %
06.08.2016 00:08 13,2 C 96 % 1020,8 hPa 0,0 l/m 7,1 km/h (2 Bft) W-SW 247 0 min 0,000 mm 0,0 UV-I 0 W/m 12,6 C 12,8 C 11,3 km/h (2 Bft) 97,87 %
06.08.2016 00:10 13,2 C 96 % 1020,8 hPa 0,0 l/m 6,6 km/h (2 Bft) W-SW 237 0 min 0,000 mm 0,0 UV-I 0 W/m 12,6 C 13,1 C 11,3 km/h (2 Bft) 97,87 %
06.08.2016 00:12 13,2 C 96 % 1020,8 hPa 0,0 l/m 6,9 km/h (2 Bft) SW 233 0 min 0,000 mm 0,0 UV-I 0 W/m 12,6 C 12,9 C 12,9 km/h (3 Bft) 100,00 %
06.08.2016 00:14 13,2 C 96 % 1020,8 hPa 0,0 l/m 7,2 km/h (2 Bft) SW 224 0 min 0,000 mm 0,0 UV-I 0 W/m 12,6 C 12,7 C 11,3 km/h (2 Bft) 97,01 %
06.08.2016 00:16 13,2 C 96 % 1020,8 hPa 0,0 l/m 10,5 km/h (2 Bft) SW 217 0 min 0,000 mm 0,0 UV-I 0 W/m 12,6 C 10,9 C 16,1 km/h (3 Bft) 95,45 %
06.08.2016 00:18 13,3 C 96 % 1020,8 hPa 0,0 l/m 10,1 km/h (2 Bft) S-SW 205 0 min 0,000 mm 0,0 UV-I 0 W/m 12,7 C 11,2 C 14,5 km/h (3 Bft) 96,00 %
06.08.2016 00:20 13,3 C 96 % 1020,8 hPa 0,0 l/m 9,1 km/h (2 Bft) W-SW 252 0 min 0,000 mm 0,0 UV-I 0 W/m 12,7 C 11,7 C 14,5 km/h (3 Bft) 98,11 %
06.08.2016 00:22 13,3 C 96 % 1020,8 hPa 0,0 l/m 10,3 km/h (2 Bft) W 264 0 min 0,000 mm 0,0 UV-I 0 W/m 12,7 C 11,1 C 16,1 km/h (3 Bft) 97,73 %
06.08.2016 00:24 13,3 C 96 % 1020,8 hPa 0,0 l/m 11,6 km/h (2 Bft) W-SW 257 0 min 0,000 mm 0,0 UV-I 0 W/m 12,7 C 10,5 C 17,7 km/h (3 Bft) 95,74 %
06.08.2016 00:26 13,3 C 96 % 1020,8 hPa 0,0 l/m 9,9 km/h (2 Bft) W 278 0 min 0,000 mm 0,0 UV-I 0 W/m 12,7 C 11,3 C 14,5 km/h (3 Bft) 95,74 %
06.08.2016 00:28 13,3 C 96 % 1020,8 hPa 0,0 l/m 9,1 km/h (2 Bft) W 261 0 min 0,000 mm 0,0 UV-I 0 W/m 12,7 C 11,7 C 16,1 km/h (3 Bft) 97,44 %
06.08.2016 00:30 13,3 C 96 % 1020,8 hPa 0,0 l/m 9,5 km/h (2 Bft) W 263 0 min 0,000 mm 0,0 UV-I 0 W/m 12,7 C 11,5 C 14,5 km/h (3 Bft) 98,21 %
06.08.2016 00:32 13,3 C 96 % 1020,8 hPa 0,2 l/m 9,0 km/h (2 Bft) W-SW 250 0 min 0,000 mm 0,0 UV-I 0 W/m 12,7 C 11,8 C 12,9 km/h (3 Bft) 97,56 %
06.08.2016 00:34 13,3 C 96 % 1020,8 hPa 0,0 l/m 12,6 km/h (3 Bft) SW 234 0 min 0,000 mm 0,0 UV-I 0 W/m 12,7 C 10,1 C 19,3 km/h (3 Bft) 98,00 %
06.08.2016 00:36 13,3 C 96 % 1020,8 hPa 0,0 l/m 10,9 km/h (2 Bft) W-SW 242 0 min 0,000 mm 0,0 UV-I 0 W/m 12,7 C 10,8 C 17,7 km/h (3 Bft) 97,56 %
06.08.2016 00:38 13,3 C 96 % 1020,8 hPa 0,0 l/m 11,7 km/h (2 Bft) W-SW 249 0 min 0,000 mm 0,0 UV-I 0 W/m 12,7 C 10,4 C 17,7 km/h (3 Bft) 100,00 %
06.08.2016 00:40 13,2 C 96 % 1020,8 hPa 0,0 l/m 13,6 km/h (3 Bft) SW 235 0 min 0,000 mm 0,0 UV-I 0 W/m 12,6 C 9,5 C 20,9 km/h (4 Bft) 100,00 %
06.08.2016 00:42 13,2 C 96 % 1020,9 hPa 0,0 l/m 10,6 km/h (2 Bft) W-SW 253 0 min 0,000 mm 0,0 UV-I 0 W/m 12,6 C 10,8 C 16,1 km/h (3 Bft) 100,00 %
06.08.2016 00:44 13,2 C 96 % 1020,9 hPa 0,0 l/m 11,1 km/h (2 Bft) W-SW 248 0 min 0,000 mm 0,0 UV-I 0 W/m 12,6 C 10,6 C 17,7 km/h (3 Bft) 100,00 %
06.08.2016 00:46 13,2 C 96 % 1020,9 hPa 0,0 l/m 14,7 km/h (3 Bft) SW 221 0 min 0,000 mm 0,0 UV-I 0 W/m 12,6 C 9,1 C 22,5 km/h (4 Bft) 95,74 %
06.08.2016 00:48 13,2 C 96 % 1021,0 hPa 0,0 l/m 10,4 km/h (2 Bft) SW 235 0 min 0,000 mm 0,0 UV-I 0 W/m 12,6 C 10,9 C 17,7 km/h (3 Bft) 100,00 %
06.08.2016 00:50 13,2 C 96 % 1021,0 hPa 0,0 l/m 10,5 km/h (2 Bft) SW 231 0 min 0,000 mm 0,0 UV-I 0 W/m 12,6 C 10,9 C 14,5 km/h (3 Bft) 100,00 %
06.08.2016 00:52 13,2 C 96 % 1021,0 hPa 0,0 l/m 13,0 km/h (3 Bft) SW 232 0 min 0,000 mm 0,0 UV-I 0 W/m 12,6 C 9,8 C 20,9 km/h (4 Bft) 100,00 %
06.08.2016 00:54 13,2 C 96 % 1021,0 hPa 0,0 l/m 11,0 km/h (2 Bft) W-SW 242 0 min 0,000 mm 0,0 UV-I 0 W/m 12,6 C 10,6 C 16,1 km/h (3 Bft) 100,00 %
06.08.2016 00:56 13,2 C 96 % 1021,0 hPa 0,0 l/m 8,5 km/h (2 Bft) W-SW 257 0 min 0,000 mm 0,0 UV-I 0 W/m 12,6 C 11,9 C 12,9 km/h (3 Bft) 100,00 %
06.08.2016 00:58 13,2 C 96 % 1021,0 hPa 0,0 l/m 12,5 km/h (3 Bft) W 266 0 min 0,000 mm 0,0 UV-I 0 W/m 12,6 C 10,0 C 16,1 km/h (3 Bft) 100,00 %
06.08.2016 01:00 13,2 C 96 % 1021,0 hPa 0,0 l/m 11,4 km/h (2 Bft) W 264 0 min 0,000 mm 0,0 UV-I 0 W/m 12,6 C 10,5 C 16,1 km/h (3 Bft) 100,00 %
06.08.2016 01:02 13,2 C 95 % 1021,0 hPa 0,0 l/m 9,3 km/h (2 Bft) W 260 0 min 0,000 mm 0,0 UV-I 0 W/m 12,4 C 11,5 C 12,9 km/h (3 Bft) 100,00 %
06.08.2016 01:04 13,2 C 95 % 1021,0 hPa 0,0 l/m 8,7 km/h (2 Bft) W-SW 255 0 min 0,000 mm 0,0 UV-I 0 W/m 12,4 C 11,8 C 16,1 km/h (3 Bft) 100,00 %
06.08.2016 01:06 13,2 C 95 % 1021,1 hPa 0,0 l/m 7,1 km/h (2 Bft) W 262 0 min 0,000 mm 0,0 UV-I 0 W/m 12,4 C 12,8 C 11,3 km/h (2 Bft) 100,00 %
06.08.2016 01:08 13,2 C 95 % 1021,1 hPa 0,0 l/m 7,7 km/h (2 Bft) W-SW 246 0 min 0,000 mm 0,0 UV-I 0 W/m 12,4 C 12,4 C 11,3 km/h (2 Bft) 100,00 %
06.08.2016 01:10 13,2 C 95 % 1021,3 hPa 0,0 l/m 7,5 km/h (2 Bft) W-NW 283 0 min 0,000 mm 0,0 UV-I 0 W/m 12,4 C 12,5 C 12,9 km/h (3 Bft) 100,00 %
06.08.2016 01:12 13,2 C 95 % 1021,4 hPa 0,2 l/m 3,6 km/h (1 Bft) W 274 0 min 0,000 mm 0,0 UV-I 0 W/m 12,4 C 13,2 C 6,4 km/h (2 Bft) 95,74 %
06.08.2016 01:14 13,2 C 96 % 1021,4 hPa 0,0 l/m 4,0 km/h (1 Bft) W-SW 254 0 min 0,000 mm 0,0 UV-I 0 W/m 12,6 C 13,2 C 6,4 km/h (2 Bft) 100,00 %
06.08.2016 01:16 13,2 C 96 % 1021,5 hPa 0,2 l/m 5,4 km/h (1 Bft) W 280 0 min 0,000 mm 0,0 UV-I 0 W/m 12,6 C 13,2 C 6,4 km/h (2 Bft) 98,11 %
06.08.2016 01:18 13,1 C 95 % 1021,6 hPa 0,0 l/m 2,9 km/h (1 Bft) W 271 0 min 0,000 mm 0,0 UV-I 0 W/m 12,3 C 13,1 C 6,4 km/h (2 Bft) 100,00 %
06.08.2016 01:20 13,1 C 96 % 1021,6 hPa 0,2 l/m 7,2 km/h (2 Bft) W-SW 255 0 min 0,000 mm 0,0 UV-I 0 W/m 12,5 C 12,6 C 11,3 km/h (2 Bft) 98,00 %
06.08.2016 01:22 13,1 C 96 % 1021,6 hPa 0,0 l/m 6,5 km/h (2 Bft) W-SW 244 0 min 0,000 mm 0,0 UV-I 0 W/m 12,5 C 13,1 C 11,3 km/h (2 Bft) 100,00 %
06.08.2016 01:24 13,1 C 96 % 1021,6 hPa 0,0 l/m 6,8 km/h (2 Bft) W-NW 291 0 min 0,000 mm 0,0 UV-I 0 W/m 12,5 C 12,9 C 12,9 km/h (3 Bft) 100,00 %
06.08.2016 01:26 13,1 C 96 % 1021,6 hPa 0,0 l/m 5,7 km/h (1 Bft) W-SW 247 0 min 0,000 mm 0,0 UV-I 0 W/m 12,5 C 13,1 C 11,3 km/h (2 Bft) 100,00 %
06.08.2016 01:28 13,1 C 96 % 1021,6 hPa 0,0 l/m 5,8 km/h (2 Bft) NW 304 0 min 0,000 mm 0,0 UV-I 0 W/m 12,5 C 13,1 C 9,7 km/h (2 Bft) 100,00 %
06.08.2016 01:30 13,0 C 96 % 1021,6 hPa 0,0 l/m 5,8 km/h (2 Bft) W 265 0 min 0,000 mm 0,0 UV-I 0 W/m 12,4 C 13,0 C 9,7 km/h (2 Bft) 100,00 %
06.08.2016 01:32 13,0 C 96 % 1021,7 hPa 0,2 l/m 3,0 km/h (1 Bft) W 269 0 min 0,000 mm 0,0 UV-I 0 W/m 12,4 C 13,0 C 6,4 km/h (2 Bft) 98,00 %
06.08.2016 01:34 13,0 C 96 % 1021,6 hPa 0,0 l/m 5,4 km/h (1 Bft) W-SW 238 0 min 0,000 mm 0,0 UV-I 0 W/m 12,4 C 13,0 C 11,3 km/h (2 Bft) 97,37 %
06.08.2016 01:36 12,9 C 96 % 1021,6 hPa 0,2 l/m 5,5 km/h (1 Bft) W 266 0 min 0,000 mm 0,0 UV-I 0 W/m 12,3 C 12,9 C 9,7 km/h (2 Bft) 98,11 %
06.08.2016 01:38 13,0 C 96 % 1021,7 hPa 0,0 l/m 4,2 km/h (1 Bft) SW 221 0 min 0,000 mm 0,0 UV-I 0 W/m 12,4 C 13,0 C 8,0 km/h (2 Bft) 100,00 %
06.08.2016 01:40 13,0 C 96 % 1021,7 hPa 0,0 l/m 6,1 km/h (2 Bft) W-SW 244 0 min 0,000 mm 0,0 UV-I 0 W/m 12,4 C 13,0 C 11,3 km/h (2 Bft) 100,00 %
06.08.2016 01:42 13,0 C 96 % 1021,7 hPa 0,2 l/m 3,6 km/h (1 Bft) SW 236 0 min 0,000 mm 0,0 UV-I 0 W/m 12,4 C 13,0 C 6,4 km/h (2 Bft) 100,00 %
06.08.2016 01:44 12,9 C 96 % 1021,8 hPa 0,0 l/m 4,2 km/h (1 Bft) SW 221 0 min 0,000 mm 0,0 UV-I 0 W/m 12,3 C 12,9 C 6,4 km/h (2 Bft) 100,00 %
06.08.2016 01:46 13,0 C 96 % 1021,8 hPa 0,0 l/m 4,4 km/h (1 Bft) S-SW 210 0 min 0,000 mm 0,0 UV-I 0 W/m 12,4 C 13,0 C 6,4 km/h (2 Bft) 100,00 %
06.08.2016 01:48 13,0 C 96 % 1021,9 hPa 0,2 l/m 5,5 km/h (1 Bft) S-SW 197 0 min 0,000 mm 0,0 UV-I 0 W/m 12,4 C 13,0 C 8,0 km/h (2 Bft) 100,00 %
06.08.2016 01:50 13,0 C 96 % 1021,9 hPa 0,0 l/m 4,9 km/h (1 Bft) S-SW 202 0 min 0,000 mm 0,0 UV-I 0 W/m 12,4 C 13,0 C 9,7 km/h (2 Bft) 100,00 %
06.08.2016 01:52 13,0 C 96 % 1021,8 hPa 0,0 l/m 6,5 km/h (2 Bft) SW 218 0 min 0,000 mm 0,0 UV-I 0 W/m 12,4 C 13,0 C 9,7 km/h (2 Bft) 100,00 %
06.08.2016 01:54 12,9 C 96 % 1021,9 hPa 0,0 l/m 5,3 km/h (1 Bft) SW 217 0 min 0,000 mm 0,0 UV-I 0 W/m 12,3 C 12,9 C 8,0 km/h (2 Bft) 100,00 %
06.08.2016 01:56 12,9 C 96 % 1021,9 hPa 0,0 l/m 6,0 km/h (2 Bft) SW 227 0 min 0,000 mm 0,0 UV-I 0 W/m 12,3 C 12,9 C 9,7 km/h (2 Bft) 100,00 %
06.08.2016 01:58 12,9 C 96 % 1021,9 hPa 0,0 l/m 7,7 km/h (2 Bft) S-SW 213 0 min 0,000 mm 0,0 UV-I 0 W/m 12,3 C 12,1 C 11,3 km/h (2 Bft) 100,00 %
06.08.2016 02:00 12,9 C 96 % 1021,9 hPa 0,0 l/m 6,8 km/h (2 Bft) SW 231 0 min 0,000 mm 0,0 UV-I 0 W/m 12,3 C 12,7 C 11,3 km/h (2 Bft) 100,00 %
06.08.2016 02:02 13,0 C 96 % 1021,9 hPa 0,0 l/m 5,7 km/h (1 Bft) SW 234 0 min 0,000 mm 0,0 UV-I 0 W/m 12,4 C 13,0 C 8,0 km/h (2 Bft) 100,00 %
06.08.2016 02:04 13,0 C 96 % 1021,9 hPa 0,0 l/m 6,8 km/h (2 Bft) W-SW 242 0 min 0,000 mm 0,0 UV-I 0 W/m 12,4 C 12,8 C 9,7 km/h (2 Bft) 95,12 %
06.08.2016 02:06 13,1 C 96 % 1021,9 hPa 0,0 l/m 6,0 km/h (2 Bft) W-SW 248 0 min 0,000 mm 0,0 UV-I 0 W/m 12,5 C 13,1 C 9,7 km/h (2 Bft) 98,00 %
06.08.2016 02:08 13,1 C 96 % 1021,9 hPa 0,0 l/m 7,6 km/h (2 Bft) SW 219 0 min 0,000 mm 0,0 UV-I 0 W/m 12,5 C 12,3 C 11,3 km/h (2 Bft) 97,73 %
06.08.2016 02:10 13,1 C 96 % 1022,0 hPa 0,0 l/m 8,0 km/h (2 Bft) W-SW 249 0 min 0,000 mm 0,0 UV-I 0 W/m 12,5 C 12,1 C 11,3 km/h (2 Bft) 96,23 %
06.08.2016 02:12 13,1 C 96 % 1022,0 hPa 0,0 l/m 8,2 km/h (2 Bft) S-SW 208 0 min 0,000 mm 0,0 UV-I 0 W/m 12,5 C 12,0 C 16,1 km/h (3 Bft) 97,87 %
06.08.2016 02:14 13,1 C 96 % 1022,1 hPa 0,0 l/m 10,7 km/h (2 Bft) SW 230 0 min 0,000 mm 0,0 UV-I 0 W/m 12,5 C 10,7 C 17,7 km/h (3 Bft) 97,73 %
06.08.2016 02:16 13,1 C 96 % 1022,1 hPa 0,0 l/m 6,9 km/h (2 Bft) SW 231 0 min 0,000 mm 0,0 UV-I 0 W/m 12,5 C 12,8 C 9,7 km/h (2 Bft) 97,56 %
06.08.2016 02:18 13,0 C 96 % 1022,2 hPa 0,0 l/m 9,5 km/h (2 Bft) SW 232 0 min 0,000 mm 0,0 UV-I 0 W/m 12,4 C 11,2 C 14,5 km/h (3 Bft) 98,11 %
06.08.2016 02:20 13,0 C 96 % 1022,1 hPa 0,0 l/m 9,4 km/h (2 Bft) SW 231 0 min 0,000 mm 0,0 UV-I 0 W/m 12,4 C 11,2 C 14,5 km/h (3 Bft) 97,44 %
06.08.2016 02:22 13,0 C 96 % 1022,2 hPa 0,2 l/m 6,5 km/h (2 Bft) SW 215 0 min 0,000 mm 0,0 UV-I 0 W/m 12,4 C 13,0 C 8,0 km/h (2 Bft) 96,00 %
06.08.2016 02:24 12,9 C 96 % 1022,2 hPa 0,0 l/m 7,2 km/h (2 Bft) S-SW 211 0 min 0,000 mm 0,0 UV-I 0 W/m 12,3 C 12,4 C 11,3 km/h (2 Bft) 98,00 %
06.08.2016 02:26 12,9 C 96 % 1022,1 hPa 0,0 l/m 7,4 km/h (2 Bft) S-SW 207 0 min 0,000 mm 0,0 UV-I 0 W/m 12,3 C 12,3 C 12,9 km/h (3 Bft) 95,74 %
06.08.2016 02:28 12,9 C 96 % 1022,2 hPa 0,2 l/m 6,8 km/h (2 Bft) SW 223 0 min 0,000 mm 0,0 UV-I 0 W/m 12,3 C 12,7 C 11,3 km/h (2 Bft) 100,00 %
06.08.2016 02:30 12,9 C 96 % 1022,2 hPa 0,0 l/m 6,4 km/h (2 Bft) S-SW 205 0 min 0,000 mm 0,0 UV-I 0 W/m 12,3 C 12,9 C 11,3 km/h (2 Bft) 94,64 %
06.08.2016 02:32 12,9 C 96 % 1022,2 hPa 0,0 l/m 7,9 km/h (2 Bft) S 185 0 min 0,000 mm 0,0 UV-I 0 W/m 12,3 C 12,0 C 12,9 km/h (3 Bft) 98,11 %
06.08.2016 02:34 12,8 C 96 % 1022,2 hPa 0,0 l/m 11,0 km/h (2 Bft) W-SW 242 0 min 0,000 mm 0,0 UV-I 0 W/m 12,2 C 10,2 C 17,7 km/h (3 Bft) 97,56 %
06.08.2016 02:36 12,8 C 96 % 1022,3 hPa 0,0 l/m 7,9 km/h (2 Bft) SW 215 0 min 0,000 mm 0,0 UV-I 0 W/m 12,2 C 11,9 C 16,1 km/h (3 Bft) 98,00 %
06.08.2016 02:38 12,8 C 96 % 1022,3 hPa 0,0 l/m 8,4 km/h (2 Bft) S-SW 203 0 min 0,000 mm 0,0 UV-I 0 W/m 12,2 C 11,6 C 14,5 km/h (3 Bft) 100,00 %
06.08.2016 02:40 12,8 C 96 % 1022,2 hPa 0,0 l/m 8,9 km/h (2 Bft) W-SW 250 0 min 0,000 mm 0,0 UV-I 0 W/m 12,2 C 11,3 C 14,5 km/h (3 Bft) 100,00 %
06.08.2016 02:42 12,8 C 96 % 1022,3 hPa 0,0 l/m 10,2 km/h (2 Bft) SW 226 0 min 0,000 mm 0,0 UV-I 0 W/m 12,2 C 10,6 C 16,1 km/h (3 Bft) 100,00 %
06.08.2016 02:44 12,8 C 96 % 1022,3 hPa 0,0 l/m 10,4 km/h (2 Bft) SW 234 0 min 0,000 mm 0,0 UV-I 0 W/m 12,2 C 10,5 C 17,7 km/h (3 Bft) 100,00 %
06.08.2016 02:46 12,8 C 96 % 1022,3 hPa 0,2 l/m 10,4 km/h (2 Bft) SW 231 0 min 0,000 mm 0,0 UV-I 0 W/m 12,2 C 10,5 C 17,7 km/h (3 Bft) 100,00 %
06.08.2016 02:48 12,8 C 96 % 1022,3 hPa 0,0 l/m 13,6 km/h (3 Bft) SW 232 0 min 0,000 mm 0,0 UV-I 0 W/m 12,2 C 9,1 C 19,3 km/h (3 Bft) 100,00 %
06.08.2016 02:50 12,8 C 96 % 1022,3 hPa 0,0 l/m 12,0 km/h (2 Bft) W-SW 246 0 min 0,000 mm 0,0 UV-I 0 W/m 12,2 C 9,7 C 19,3 km/h (3 Bft) 100,00 %
06.08.2016 02:52 12,8 C 96 % 1022,3 hPa 0,0 l/m 11,0 km/h (2 Bft) S-SW 206 0 min 0,000 mm 0,0 UV-I 0 W/m 12,2 C 10,2 C 16,1 km/h (3 Bft) 100,00 %
06.08.2016 02:54 12,8 C 96 % 1022,3 hPa 0,0 l/m 8,6 km/h (2 Bft) SW 217 0 min 0,000 mm 0,0 UV-I 0 W/m 12,2 C 11,4 C 14,5 km/h (3 Bft) 100,00 %
06.08.2016 02:56 12,8 C 96 % 1022,3 hPa 0,0 l/m 7,6 km/h (2 Bft) W-SW 239 0 min 0,000 mm 0,0 UV-I 0 W/m 12,2 C 12,0 C 11,3 km/h (2 Bft) 100,00 %
06.08.2016 02:58 12,8 C 96 % 1022,2 hPa 0,0 l/m 8,1 km/h (2 Bft) W-SW 238 0 min 0,000 mm 0,0 UV-I 0 W/m 12,2 C 11,7 C 11,3 km/h (2 Bft) 100,00 %
06.08.2016 03:00 12,8 C 96 % 1022,2 hPa 0,0 l/m 8,7 km/h (2 Bft) SW 221 0 min 0,000 mm 0,0 UV-I 0 W/m 12,2 C 11,4 C 14,5 km/h (3 Bft) 100,00 %
06.08.2016 03:02 12,8 C 96 % 1022,2 hPa 0,0 l/m 8,3 km/h (2 Bft) S-SW 202 0 min 0,000 mm 0,0 UV-I 0 W/m 12,2 C 11,6 C 11,3 km/h (2 Bft) 98,08 %
06.08.2016 03:04 12,9 C 96 % 1022,2 hPa 0,0 l/m 8,9 km/h (2 Bft) W-SW 241 0 min 0,000 mm 0,0 UV-I 0 W/m 12,3 C 11,4 C 12,9 km/h (3 Bft) 100,00 %
06.08.2016 03:06 12,8 C 96 % 1022,1 hPa 0,0 l/m 6,3 km/h (2 Bft) S-SW 207 0 min 0,000 mm 0,0 UV-I 0 W/m 12,2 C 12,8 C 11,3 km/h (2 Bft) 100,00 %
06.08.2016 03:08 12,9 C 96 % 1022,1 hPa 0,0 l/m 7,1 km/h (2 Bft) W-SW 251 0 min 0,000 mm 0,0 UV-I 0 W/m 12,3 C 12,5 C 11,3 km/h (2 Bft) 100,00 %
06.08.2016 03:10 12,9 C 96 % 1022,0 hPa 0,0 l/m 9,4 km/h (2 Bft) SW 229 0 min 0,000 mm 0,0 UV-I 0 W/m 12,3 C 11,1 C 16,1 km/h (3 Bft) 98,11 %
06.08.2016 03:12 12,9 C 96 % 1022,0 hPa 0,0 l/m 8,1 km/h (2 Bft) W-SW 250 0 min 0,000 mm 0,0 UV-I 0 W/m 12,3 C 11,8 C 12,9 km/h (3 Bft) 100,00 %
06.08.2016 03:14 12,9 C 95 % 1022,0 hPa 0,0 l/m 9,3 km/h (2 Bft) W 273 0 min 0,000 mm 0,0 UV-I 0 W/m 12,1 C 11,2 C 16,1 km/h (3 Bft) 98,00 %
06.08.2016 03:16 12,9 C 95 % 1022,0 hPa 0,0 l/m 9,3 km/h (2 Bft) W-SW 239 0 min 0,000 mm 0,0 UV-I 0 W/m 12,1 C 11,2 C 14,5 km/h (3 Bft) 100,00 %
06.08.2016 03:18 12,9 C 95 % 1022,0 hPa 0,0 l/m 10,8 km/h (2 Bft) W-SW 258 0 min 0,000 mm 0,0 UV-I 0 W/m 12,1 C 10,4 C 14,5 km/h (3 Bft) 100,00 %
06.08.2016 03:20 12,9 C 95 % 1021,9 hPa 0,0 l/m 10,8 km/h (2 Bft) W-SW 251 0 min 0,000 mm 0,0 UV-I 0 W/m 12,1 C 10,4 C 16,1 km/h (3 Bft) 100,00 %
06.08.2016 03:22 12,9 C 95 % 1021,9 hPa 0,0 l/m 7,4 km/h (2 Bft) W-SW 252 0 min 0,000 mm 0,0 UV-I 0 W/m 12,1 C 12,3 C 14,5 km/h (3 Bft) 98,46 %
06.08.2016 03:24 12,9 C 95 % 1021,9 hPa 0,0 l/m 10,9 km/h (2 Bft) W-SW 252 0 min 0,000 mm 0,0 UV-I 0 W/m 12,1 C 10,4 C 20,9 km/h (4 Bft) 100,00 %
06.08.2016 03:26 12,8 C 95 % 1021,9 hPa 0,0 l/m 12,4 km/h (3 Bft) W-SW 254 0 min 0,000 mm 0,0 UV-I 0 W/m 12,0 C 9,6 C 17,7 km/h (3 Bft) 100,00 %
06.08.2016 03:28 12,8 C 95 % 1021,8 hPa 0,0 l/m 10,7 km/h (2 Bft) W-SW 252 0 min 0,000 mm 0,0 UV-I 0 W/m 12,0 C 10,3 C 16,1 km/h (3 Bft) 100,00 %
06.08.2016 03:30 12,8 C 95 % 1021,8 hPa 0,0 l/m 10,5 km/h (2 Bft) W 261 0 min 0,000 mm 0,0 UV-I 0 W/m 12,0 C 10,4 C 19,3 km/h (3 Bft) 100,00 %
06.08.2016 03:32 12,8 C 95 % 1021,8 hPa 0,0 l/m 10,5 km/h (2 Bft) W-SW 240 0 min 0,000 mm 0,0 UV-I 0 W/m 12,0 C 10,4 C 14,5 km/h (3 Bft) 100,00 %
06.08.2016 03:34 12,8 C 95 % 1021,9 hPa 0,0 l/m 8,0 km/h (2 Bft) W-SW 250 0 min 0,000 mm 0,0 UV-I 0 W/m 12,0 C 11,8 C 12,9 km/h (3 Bft) 100,00 %
06.08.2016 03:36 12,8 C 95 % 1021,9 hPa 0,0 l/m 12,1 km/h (2 Bft) SW 223 0 min 0,000 mm 0,0 UV-I 0 W/m 12,0 C 9,7 C 16,1 km/h (3 Bft) 100,00 %
06.08.2016 03:38 12,8 C 95 % 1021,9 hPa 0,0 l/m 11,8 km/h (2 Bft) W-SW 255 0 min 0,000 mm 0,0 UV-I 0 W/m 12,0 C 9,8 C 16,1 km/h (3 Bft) 100,00 %
06.08.2016 03:40 12,8 C 95 % 1021,9 hPa 0,0 l/m 10,5 km/h (2 Bft) W 260 0 min 0,000 mm 0,0 UV-I 0 W/m 12,0 C 10,4 C 16,1 km/h (3 Bft) 100,00 %
06.08.2016 03:42 12,8 C 95 % 1021,9 hPa 0,0 l/m 9,7 km/h (2 Bft) W 271 0 min 0,000 mm 0,0 UV-I 0 W/m 12,0 C 10,8 C 14,5 km/h (3 Bft) 100,00 %
06.08.2016 03:44 12,8 C 95 % 1021,9 hPa 0,0 l/m 7,0 km/h (2 Bft) W 271 0 min 0,000 mm 0,0 UV-I 0 W/m 12,0 C 12,4 C 11,3 km/h (2 Bft) 100,00 %
06.08.2016 03:46 12,8 C 95 % 1021,9 hPa 0,0 l/m 8,0 km/h (2 Bft) W-SW 254 0 min 0,000 mm 0,0 UV-I 0 W/m 12,0 C 11,8 C 14,5 km/h (3 Bft) 98,21 %
06.08.2016 03:48 12,8 C 95 % 1021,9 hPa 0,0 l/m 8,9 km/h (2 Bft) W-SW 247 0 min 0,000 mm 0,0 UV-I 0 W/m 12,0 C 11,3 C 12,9 km/h (3 Bft) 100,00 %
06.08.2016 03:50 12,8 C 95 % 1021,9 hPa 0,0 l/m 9,1 km/h (2 Bft) SW 235 0 min 0,000 mm 0,0 UV-I 0 W/m 12,0 C 11,2 C 12,9 km/h (3 Bft) 100,00 %
06.08.2016 03:52 12,8 C 95 % 1021,8 hPa 0,0 l/m 7,6 km/h (2 Bft) W-SW 250 0 min 0,000 mm 0,0 UV-I 0 W/m 12,0 C 12,0 C 14,5 km/h (3 Bft) 100,00 %
06.08.2016 03:54 12,8 C 95 % 1021,8 hPa 0,0 l/m 11,5 km/h (2 Bft) W-SW 255 0 min 0,000 mm 0,0 UV-I 0 W/m 12,0 C 10,0 C 16,1 km/h (3 Bft) 97,87 %
06.08.2016 03:56 12,8 C 95 % 1021,8 hPa 0,0 l/m 8,8 km/h (2 Bft) W-SW 256 0 min 0,000 mm 0,0 UV-I 0 W/m 12,0 C 11,3 C 12,9 km/h (3 Bft) 100,00 %
06.08.2016 03:58 12,8 C 95 % 1021,8 hPa 0,0 l/m 10,3 km/h (2 Bft) W-SW 255 0 min 0,000 mm 0,0 UV-I 0 W/m 12,0 C 10,5 C 12,9 km/h (3 Bft) 98,11 %
06.08.2016 04:00 12,8 C 95 % 1021,8 hPa 0,0 l/m 7,8 km/h (2 Bft) SW 221 0 min 0,000 mm 0,0 UV-I 0 W/m 12,0 C 11,9 C 14,5 km/h (3 Bft) 98,00 %
06.08.2016 04:02 12,8 C 95 % 1021,8 hPa 0,0 l/m 8,6 km/h (2 Bft) W-SW 238 0 min 0,000 mm 0,0 UV-I 0 W/m 12,0 C 11,4 C 12,9 km/h (3 Bft) 100,00 %
06.08.2016 04:04 12,8 C 95 % 1021,9 hPa 0,0 l/m 8,1 km/h (2 Bft) W-SW 252 0 min 0,000 mm 0,0 UV-I 0 W/m 12,0 C 11,7 C 12,9 km/h (3 Bft) 100,00 %
06.08.2016 04:06 12,8 C 95 % 1021,9 hPa 0,0 l/m 9,1 km/h (2 Bft) SW 219 0 min 0,000 mm 0,0 UV-I 0 W/m 12,0 C 11,2 C 14,5 km/h (3 Bft) 95,74 %
06.08.2016 04:08 12,8 C 95 % 1021,9 hPa 0,0 l/m 7,5 km/h (2 Bft) S-SW 211 0 min 0,000 mm 0,0 UV-I 0 W/m 12,0 C 12,1 C 11,3 km/h (2 Bft) 97,14 %
06.08.2016 04:10 12,8 C 95 % 1021,9 hPa 0,0 l/m 7,4 km/h (2 Bft) W-SW 248 0 min 0,000 mm 0,0 UV-I 0 W/m 12,0 C 12,2 C 11,3 km/h (2 Bft) 96,43 %
06.08.2016 04:12 12,8 C 96 % 1021,9 hPa 0,0 l/m 7,2 km/h (2 Bft) W-SW 250 0 min 0,000 mm 0,0 UV-I 0 W/m 12,2 C 12,3 C 11,3 km/h (2 Bft) 95,12 %
06.08.2016 04:14 12,8 C 96 % 1021,9 hPa 0,0 l/m 9,1 km/h (2 Bft) W-SW 241 0 min 0,000 mm 0,0 UV-I 0 W/m 12,2 C 11,2 C 14,5 km/h (3 Bft) 98,00 %
06.08.2016 04:16 12,8 C 96 % 1021,9 hPa 0,0 l/m 8,6 km/h (2 Bft) W-SW 250 0 min 0,000 mm 0,0 UV-I 0 W/m 12,2 C 11,4 C 12,9 km/h (3 Bft) 98,00 %
06.08.2016 04:18 12,8 C 96 % 1021,9 hPa 0,0 l/m 9,1 km/h (2 Bft) W-SW 250 0 min 0,000 mm 0,0 UV-I 0 W/m 12,2 C 11,2 C 14,5 km/h (3 Bft) 94,00 %
06.08.2016 04:20 12,8 C 96 % 1021,9 hPa 0,0 l/m 9,4 km/h (2 Bft) W 262 0 min 0,000 mm 0,0 UV-I 0 W/m 12,2 C 11,0 C 14,5 km/h (3 Bft) 97,22 %
06.08.2016 04:22 12,9 C 95 % 1021,9 hPa 0,0 l/m 8,2 km/h (2 Bft) SW 236 0 min 0,000 mm 0,0 UV-I 0 W/m 12,1 C 11,8 C 14,5 km/h (3 Bft) 98,11 %
06.08.2016 04:24 12,9 C 96 % 1021,9 hPa 0,0 l/m 8,0 km/h (2 Bft) W-SW 254 0 min 0,000 mm 0,0 UV-I 0 W/m 12,3 C 11,9 C 12,9 km/h (3 Bft) 97,56 %
06.08.2016 04:26 12,9 C 96 % 1021,9 hPa 0,0 l/m 8,0 km/h (2 Bft) W-SW 240 0 min 0,000 mm 0,0 UV-I 0 W/m 12,3 C 11,9 C 12,9 km/h (3 Bft) 94,00 %
06.08.2016 04:28 12,9 C 95 % 1021,9 hPa 0,0 l/m 6,4 km/h (2 Bft) W-SW 244 0 min 0,000 mm 0,0 UV-I 0 W/m 12,1 C 12,9 C 11,3 km/h (2 Bft) 95,74 %
06.08.2016 04:30 12,9 C 96 % 1021,9 hPa 0,0 l/m 6,5 km/h (2 Bft) W-SW 244 0 min 0,000 mm 0,0 UV-I 0 W/m 12,3 C 12,9 C 12,9 km/h (3 Bft) 97,56 %
06.08.2016 04:32 12,9 C 96 % 1022,0 hPa 0,0 l/m 8,3 km/h (2 Bft) W-SW 255 0 min 0,000 mm 0,0 UV-I 0 W/m 12,3 C 11,7 C 14,5 km/h (3 Bft) 94,00 %
06.08.2016 04:34 12,9 C 96 % 1022,0 hPa 0,0 l/m 8,2 km/h (2 Bft) SW 219 0 min 0,000 mm 0,0 UV-I 0 W/m 12,3 C 11,8 C 14,5 km/h (3 Bft) 98,00 %
06.08.2016 04:36 12,9 C 96 % 1022,0 hPa 0,0 l/m 7,8 km/h (2 Bft) W-SW 240 0 min 0,000 mm 0,0 UV-I 0 W/m 12,3 C 12,0 C 11,3 km/h (2 Bft) 98,11 %
06.08.2016 04:38 12,9 C 96 % 1022,0 hPa 0,0 l/m 7,0 km/h (2 Bft) W-SW 252 0 min 0,000 mm 0,0 UV-I 0 W/m 12,3 C 12,5 C 9,7 km/h (2 Bft) 97,56 %
06.08.2016 04:40 12,9 C 96 % 1022,0 hPa 0,0 l/m 7,3 km/h (2 Bft) SW 225 0 min 0,000 mm 0,0 UV-I 0 W/m 12,3 C 12,3 C 12,9 km/h (3 Bft) 100,00 %
06.08.2016 04:42 13,0 C 96 % 1022,0 hPa 0,0 l/m 7,5 km/h (2 Bft) SW 221 0 min 0,000 mm 0,0 UV-I 0 W/m 12,4 C 12,3 C 11,3 km/h (2 Bft) 100,00 %
06.08.2016 04:44 13,0 C 96 % 1022,0 hPa 0,0 l/m 9,5 km/h (2 Bft) W-SW 255 0 min 0,000 mm 0,0 UV-I 0 W/m 12,4 C 11,2 C 14,5 km/h (3 Bft) 95,35 %
06.08.2016 04:46 13,0 C 96 % 1022,0 hPa 0,0 l/m 12,1 km/h (2 Bft) W-SW 258 0 min 0,000 mm 0,0 UV-I 0 W/m 12,4 C 9,9 C 16,1 km/h (3 Bft) 100,00 %
06.08.2016 04:48 13,0 C 96 % 1022,1 hPa 0,0 l/m 8,6 km/h (2 Bft) W 263 0 min 0,000 mm 0,0 UV-I 0 W/m 12,4 C 11,7 C 14,5 km/h (3 Bft) 97,87 %
06.08.2016 04:50 13,1 C 96 % 1022,1 hPa 0,0 l/m 5,4 km/h (1 Bft) W-SW 245 0 min 0,000 mm 0,0 UV-I 0 W/m 12,5 C 13,1 C 9,7 km/h (2 Bft) 98,00 %
06.08.2016 04:52 13,1 C 95 % 1022,1 hPa 0,0 l/m 6,5 km/h (2 Bft) W-SW 257 0 min 0,000 mm 0,0 UV-I 0 W/m 12,3 C 13,1 C 12,9 km/h (3 Bft) 100,00 %
06.08.2016 04:54 13,1 C 95 % 1022,1 hPa 0,0 l/m 5,8 km/h (2 Bft) W-SW 257 0 min 0,000 mm 0,0 UV-I 0 W/m 12,3 C 13,1 C 11,3 km/h (2 Bft) 98,00 %
06.08.2016 04:56 13,1 C 95 % 1022,1 hPa 0,0 l/m 7,1 km/h (2 Bft) W-SW 246 0 min 0,000 mm 0,0 UV-I 0 W/m 12,3 C 12,7 C 11,3 km/h (2 Bft) 97,22 %
06.08.2016 04:58 13,1 C 95 % 1022,1 hPa 0,0 l/m 7,5 km/h (2 Bft) W-SW 246 0 min 0,000 mm 0,0 UV-I 0 W/m 12,3 C 12,4 C 11,3 km/h (2 Bft) 98,00 %
06.08.2016 05:00 13,1 C 95 % 1022,1 hPa 0,0 l/m 5,4 km/h (1 Bft) SW 232 0 min 0,000 mm 0,0 UV-I 0 W/m 12,3 C 13,1 C 8,0 km/h (2 Bft) 100,00 %
06.08.2016 05:02 13,1 C 95 % 1022,1 hPa 0,0 l/m 5,3 km/h (1 Bft) W-SW 244 0 min 0,000 mm 0,0 UV-I 0 W/m 12,3 C 13,1 C 8,0 km/h (2 Bft) 98,46 %
06.08.2016 05:04 13,1 C 95 % 1022,2 hPa 0,0 l/m 6,0 km/h (2 Bft) W-SW 247 0 min 0,000 mm 0,0 UV-I 0 W/m 12,3 C 13,1 C 11,3 km/h (2 Bft) 100,00 %
06.08.2016 05:06 13,1 C 95 % 1022,2 hPa 0,0 l/m 6,3 km/h (2 Bft) W-SW 257 0 min 0,000 mm 0,0 UV-I 0 W/m 12,3 C 13,1 C 11,3 km/h (2 Bft) 100,00 %
06.08.2016 05:08 13,1 C 95 % 1022,3 hPa 0,0 l/m 7,6 km/h (2 Bft) W-SW 248 0 min 0,000 mm 0,0 UV-I 0 W/m 12,3 C 12,3 C 11,3 km/h (2 Bft) 98,11 %
06.08.2016 05:10 13,1 C 95 % 1022,3 hPa 0,0 l/m 6,1 km/h (2 Bft) W-SW 246 0 min 0,000 mm 0,0 UV-I 0 W/m 12,3 C 13,1 C 9,7 km/h (2 Bft) 100,00 %
06.08.2016 05:12 13,1 C 95 % 1022,3 hPa 0,0 l/m 7,4 km/h (2 Bft) W-SW 253 0 min 0,000 mm 0,0 UV-I 0 W/m 12,3 C 12,5 C 11,3 km/h (2 Bft) 100,00 %
06.08.2016 05:14 13,1 C 95 % 1022,3 hPa 0,0 l/m 7,2 km/h (2 Bft) W-SW 254 0 min 0,000 mm 0,0 UV-I 0 W/m 12,3 C 12,6 C 12,9 km/h (3 Bft) 98,00 %
06.08.2016 05:16 13,1 C 95 % 1022,2 hPa 0,0 l/m 7,6 km/h (2 Bft) W-SW 245 0 min 0,000 mm 0,0 UV-I 0 W/m 12,3 C 12,3 C 9,7 km/h (2 Bft) 97,87 %
06.08.2016 05:18 13,1 C 95 % 1022,2 hPa 0,0 l/m 8,9 km/h (2 Bft) W-SW 249 0 min 0,000 mm 0,0 UV-I 0 W/m 12,3 C 11,6 C 11,3 km/h (2 Bft) 100,00 %
06.08.2016 05:20 13,1 C 95 % 1022,2 hPa 0,0 l/m 7,8 km/h (2 Bft) W-SW 252 0 min 0,000 mm 0,0 UV-I 0 W/m 12,3 C 12,2 C 11,3 km/h (2 Bft) 97,87 %
06.08.2016 05:22 13,2 C 95 % 1022,2 hPa 0,0 l/m 8,9 km/h (2 Bft) W-SW 244 0 min 0,000 mm 0,0 UV-I 0 W/m 12,4 C 11,7 C 12,9 km/h (3 Bft) 100,00 %
06.08.2016 05:24 13,1 C 95 % 1022,2 hPa 0,0 l/m 7,5 km/h (2 Bft) W 272 0 min 0,000 mm 0,0 UV-I 0 W/m 12,3 C 12,4 C 11,3 km/h (2 Bft) 98,00 %
06.08.2016 05:26 13,1 C 95 % 1022,2 hPa 0,0 l/m 8,5 km/h (2 Bft) W 267 0 min 0,000 mm 0,0 UV-I 0 W/m 12,3 C 11,8 C 12,9 km/h (3 Bft) 100,00 %
06.08.2016 05:28 13,2 C 95 % 1022,2 hPa 0,0 l/m 10,7 km/h (2 Bft) W-SW 252 0 min 0,000 mm 0,0 UV-I 0 W/m 12,4 C 10,8 C 14,5 km/h (3 Bft) 100,00 %
06.08.2016 05:30 13,2 C 95 % 1022,2 hPa 0,0 l/m 7,7 km/h (2 Bft) W 260 0 min 0,000 mm 0,0 UV-I 0 W/m 12,4 C 12,4 C 12,9 km/h (3 Bft) 100,00 %
06.08.2016 05:32 13,2 C 95 % 1022,2 hPa 0,0 l/m 8,6 km/h (2 Bft) W 275 0 min 0,000 mm 0,0 UV-I 0 W/m 12,4 C 11,9 C 12,9 km/h (3 Bft) 97,87 %
06.08.2016 05:34 13,2 C 95 % 1022,2 hPa 0,0 l/m 9,8 km/h (2 Bft) W-SW 248 0 min 0,000 mm 0,0 UV-I 0 W/m 12,4 C 11,2 C 14,5 km/h (3 Bft) 100,00 %
06.08.2016 05:36 13,2 C 95 % 1022,2 hPa 0,0 l/m 11,5 km/h (2 Bft) W-SW 245 0 min 0,000 mm 0,0 UV-I 0 W/m 12,4 C 10,4 C 14,5 km/h (3 Bft) 100,00 %
06.08.2016 05:38 13,2 C 95 % 1022,2 hPa 0,0 l/m 9,4 km/h (2 Bft) W-SW 247 0 min 0,000 mm 0,0 UV-I 0 W/m 12,4 C 11,4 C 14,5 km/h (3 Bft) 98,08 %
06.08.2016 05:40 13,2 C 95 % 1022,2 hPa 0,0 l/m 8,5 km/h (2 Bft) W-SW 257 0 min 0,000 mm 0,0 UV-I 0 W/m 12,4 C 11,9 C 14,5 km/h (3 Bft) 100,00 %
06.08.2016 05:42 13,2 C 95 % 1022,2 hPa 0,0 l/m 8,6 km/h (2 Bft) W-SW 242 0 min 0,000 mm 0,0 UV-I 0 W/m 12,4 C 11,9 C 14,5 km/h (3 Bft) 100,00 %
06.08.2016 05:44 13,2 C 95 % 1022,2 hPa 0,0 l/m 9,6 km/h (2 Bft) W-SW 244 0 min 0,000 mm 0,0 UV-I 0 W/m 12,4 C 11,3 C 12,9 km/h (3 Bft) 100,00 %
06.08.2016 05:46 13,2 C 95 % 1022,3 hPa 0,0 l/m 6,7 km/h (2 Bft) W 266 0 min 0,000 mm 0,0 UV-I 0 W/m 12,4 C 13,0 C 11,3 km/h (2 Bft) 100,00 %
06.08.2016 05:48 13,2 C 95 % 1022,4 hPa 0,0 l/m 7,6 km/h (2 Bft) W 263 0 min 0,000 mm 0,0 UV-I 0 W/m 12,4 C 12,5 C 12,9 km/h (3 Bft) 97,87 %
06.08.2016 05:50 13,2 C 95 % 1022,4 hPa 0,0 l/m 9,7 km/h (2 Bft) W-SW 254 0 min 0,000 mm 0,0 UV-I 0 W/m 12,4 C 11,3 C 12,9 km/h (3 Bft) 94,74 %
06.08.2016 05:52 13,2 C 95 % 1022,4 hPa 0,0 l/m 7,9 km/h (2 Bft) W-SW 257 0 min 0,000 mm 0,0 UV-I 0 W/m 12,4 C 12,3 C 11,3 km/h (2 Bft) 100,00 %
06.08.2016 05:54 13,2 C 95 % 1022,4 hPa 0,0 l/m 8,3 km/h (2 Bft) SW 236 0 min 0,000 mm 0,0 UV-I 0 W/m 12,4 C 12,0 C 12,9 km/h (3 Bft) 100,00 %
06.08.2016 05:56 13,2 C 95 % 1022,4 hPa 0,0 l/m 7,4 km/h (2 Bft) W-SW 256 0 min 0,000 mm 0,0 UV-I 0 W/m 12,4 C 12,6 C 11,3 km/h (2 Bft) 95,45 %
06.08.2016 05:58 13,2 C 95 % 1022,4 hPa 0,0 l/m 9,5 km/h (2 Bft) W-SW 241 0 min 0,000 mm 0,0 UV-I 0 W/m 12,4 C 11,4 C 14,5 km/h (3 Bft) 100,00 %
06.08.2016 06:00 13,2 C 95 % 1022,4 hPa 0,0 l/m 7,5 km/h (2 Bft) W-SW 249 0 min 0,000 mm 0,0 UV-I 0 W/m 12,4 C 12,5 C 11,3 km/h (2 Bft) 100,00 %
06.08.2016 06:02 13,2 C 95 % 1022,4 hPa 0,0 l/m 8,1 km/h (2 Bft) SW 234 0 min 0,000 mm 0,0 UV-I 0 W/m 12,4 C 12,2 C 11,3 km/h (2 Bft) 97,87 %
06.08.2016 06:04 13,2 C 95 % 1022,5 hPa 0,0 l/m 8,5 km/h (2 Bft) W-SW 256 0 min 0,000 mm 0,0 UV-I 1 W/m 12,4 C 11,9 C 12,9 km/h (3 Bft) 100,00 %
06.08.2016 06:06 13,2 C 95 % 1022,5 hPa 0,0 l/m 6,8 km/h (2 Bft) W 269 0 min 0,000 mm 0,0 UV-I 5 W/m 12,4 C 13,0 C 11,3 km/h (2 Bft) 97,56 %
06.08.2016 06:08 13,2 C 95 % 1022,5 hPa 0,0 l/m 4,7 km/h (1 Bft) W-SW 255 0 min 0,000 mm 0,0 UV-I 5 W/m 12,4 C 13,2 C 6,4 km/h (2 Bft) 98,11 %
06.08.2016 06:10 13,2 C 95 % 1022,5 hPa 0,0 l/m 5,9 km/h (2 Bft) W-SW 242 0 min 0,000 mm 0,0 UV-I 5 W/m 12,4 C 13,2 C 11,3 km/h (2 Bft) 97,44 %
06.08.2016 06:12 13,2 C 95 % 1022,5 hPa 0,0 l/m 6,4 km/h (2 Bft) W-SW 243 0 min 0,000 mm 0,0 UV-I 5 W/m 12,4 C 13,2 C 8,0 km/h (2 Bft) 94,55 %
06.08.2016 06:14 13,2 C 95 % 1022,5 hPa 0,0 l/m 7,3 km/h (2 Bft) W-SW 246 0 min 0,000 mm 0,0 UV-I 6 W/m 12,4 C 12,6 C 12,9 km/h (3 Bft) 93,62 %
06.08.2016 06:16 13,2 C 95 % 1022,6 hPa 0,0 l/m 6,1 km/h (2 Bft) W-SW 244 0 min 0,000 mm 0,0 UV-I 7 W/m 12,4 C 13,2 C 11,3 km/h (2 Bft) 97,87 %
06.08.2016 06:18 13,2 C 95 % 1022,6 hPa 0,0 l/m 6,6 km/h (2 Bft) W-SW 237 0 min 0,000 mm 0,0 UV-I 7 W/m 12,4 C 13,1 C 9,7 km/h (2 Bft) 97,92 %
06.08.2016 06:20 13,2 C 95 % 1022,6 hPa 0,0 l/m 7,6 km/h (2 Bft) W-SW 257 0 min 0,000 mm 0,0 UV-I 7 W/m 12,4 C 12,5 C 12,9 km/h (3 Bft) 95,74 %
06.08.2016 06:22 13,2 C 95 % 1022,7 hPa 0,0 l/m 9,4 km/h (2 Bft) W-SW 248 0 min 0,000 mm 0,0 UV-I 7 W/m 12,4 C 11,4 C 14,5 km/h (3 Bft) 94,00 %
06.08.2016 06:24 13,3 C 95 % 1022,7 hPa 0,0 l/m 8,8 km/h (2 Bft) W-SW 239 0 min 0,000 mm 0,0 UV-I 7 W/m 12,5 C 11,9 C 12,9 km/h (3 Bft) 97,56 %
06.08.2016 06:26 13,3 C 95 % 1022,7 hPa 0,0 l/m 9,0 km/h (2 Bft) W 273 0 min 0,000 mm 0,0 UV-I 9 W/m 12,5 C 11,8 C 12,9 km/h (3 Bft) 98,00 %
06.08.2016 06:28 13,3 C 95 % 1022,7 hPa 0,0 l/m 6,8 km/h (2 Bft) SW 234 0 min 0,000 mm 0,0 UV-I 11 W/m 12,5 C 13,1 C 12,9 km/h (3 Bft) 97,56 %
06.08.2016 06:30 13,3 C 95 % 1022,7 hPa 0,0 l/m 6,9 km/h (2 Bft) W-SW 252 0 min 0,000 mm 0,0 UV-I 15 W/m 12,5 C 13,0 C 9,7 km/h (2 Bft) 96,00 %
06.08.2016 06:32 13,3 C 95 % 1022,7 hPa 0,0 l/m 6,9 km/h (2 Bft) W-SW 250 0 min 0,000 mm 0,0 UV-I 21 W/m 12,5 C 13,0 C 12,9 km/h (3 Bft) 97,87 %
06.08.2016 06:34 13,3 C 95 % 1022,7 hPa 0,0 l/m 5,5 km/h (1 Bft) W 259 0 min 0,000 mm 0,0 UV-I 20 W/m 12,5 C 13,3 C 9,7 km/h (2 Bft) 95,74 %
06.08.2016 06:36 13,3 C 95 % 1022,8 hPa 0,0 l/m 8,5 km/h (2 Bft) W 262 0 min 0,000 mm 0,0 UV-I 19 W/m 12,5 C 12,0 C 12,9 km/h (3 Bft) 97,87 %
06.08.2016 06:38 13,3 C 95 % 1022,8 hPa 0,0 l/m 7,2 km/h (2 Bft) W 267 0 min 0,000 mm 0,0 UV-I 20 W/m 12,5 C 12,8 C 12,9 km/h (3 Bft) 95,12 %
06.08.2016 06:40 13,3 C 95 % 1022,8 hPa 0,0 l/m 5,4 km/h (1 Bft) W-SW 253 0 min 0,000 mm 0,0 UV-I 24 W/m 12,5 C 13,3 C 8,0 km/h (2 Bft) 92,86 %
06.08.2016 06:42 13,4 C 95 % 1022,8 hPa 0,0 l/m 6,5 km/h (2 Bft) W-SW 242 0 min 0,000 mm 0,0 UV-I 27 W/m 12,6 C 13,4 C 11,3 km/h (2 Bft) 100,00 %
06.08.2016 06:44 13,4 C 95 % 1022,8 hPa 0,0 l/m 10,2 km/h (2 Bft) W 265 0 min 0,000 mm 0,0 UV-I 29 W/m 12,6 C 11,3 C 12,9 km/h (3 Bft) 97,87 %
06.08.2016 06:46 13,4 C 95 % 1022,9 hPa 0,0 l/m 6,5 km/h (2 Bft) W-SW 241 0 min 0,000 mm 0,0 UV-I 35 W/m 12,6 C 13,4 C 11,3 km/h (2 Bft) 100,00 %
06.08.2016 06:48 13,4 C 95 % 1022,9 hPa 0,0 l/m 8,0 km/h (2 Bft) W-SW 244 0 min 0,000 mm 0,0 UV-I 37 W/m 12,6 C 12,4 C 14,5 km/h (3 Bft) 100,00 %
06.08.2016 06:50 13,4 C 95 % 1022,9 hPa 0,0 l/m 7,2 km/h (2 Bft) SW 234 0 min 0,000 mm 0,0 UV-I 33 W/m 12,6 C 12,9 C 12,9 km/h (3 Bft) 100,00 %
06.08.2016 06:52 13,5 C 95 % 1022,9 hPa 0,0 l/m 6,5 km/h (2 Bft) W-SW 249 0 min 0,000 mm 0,0 UV-I 35 W/m 12,7 C 13,5 C 11,3 km/h (2 Bft) 100,00 %
06.08.2016 06:54 13,5 C 95 % 1022,9 hPa 0,0 l/m 5,3 km/h (1 Bft) W-SW 252 0 min 0,000 mm 0,0 UV-I 42 W/m 12,7 C 13,5 C 6,4 km/h (2 Bft) 98,00 %
06.08.2016 06:56 13,6 C 95 % 1022,9 hPa 0,0 l/m 9,1 km/h (2 Bft) W-SW 254 0 min 0,000 mm 0,0 UV-I 47 W/m 12,8 C 12,0 C 14,5 km/h (3 Bft) 97,62 %
06.08.2016 06:58 13,6 C 95 % 1022,9 hPa 0,0 l/m 6,6 km/h (2 Bft) W 262 0 min 0,000 mm 0,0 UV-I 50 W/m 12,8 C 13,5 C 11,3 km/h (2 Bft) 97,87 %
06.08.2016 07:00 13,6 C 95 % 1023,0 hPa 0,0 l/m 8,1 km/h (2 Bft) W-SW 257 0 min 0,025 mm 0,0 UV-I 52 W/m 12,8 C 12,6 C 14,5 km/h (3 Bft) 100,00 %
06.08.2016 07:02 13,6 C 95 % 1023,0 hPa 0,0 l/m 7,1 km/h (2 Bft) SW 222 0 min 0,000 mm 0,0 UV-I 53 W/m 12,8 C 13,2 C 12,9 km/h (3 Bft) 100,00 %
06.08.2016 07:04 13,7 C 94 % 1023,1 hPa 0,0 l/m 6,2 km/h (2 Bft) SW 219 0 min 0,000 mm 0,0 UV-I 52 W/m 12,8 C 13,7 C 9,7 km/h (2 Bft) 100,00 %
06.08.2016 07:06 13,7 C 94 % 1023,2 hPa 0,0 l/m 6,3 km/h (2 Bft) W-SW 239 0 min 0,000 mm 0,0 UV-I 54 W/m 12,8 C 13,7 C 8,0 km/h (2 Bft) 100,00 %
06.08.2016 07:08 13,7 C 94 % 1023,2 hPa 0,0 l/m 5,3 km/h (1 Bft) SW 215 0 min 0,000 mm 0,0 UV-I 55 W/m 12,8 C 13,7 C 8,0 km/h (2 Bft) 100,00 %
06.08.2016 07:10 13,7 C 94 % 1023,1 hPa 0,0 l/m 8,3 km/h (2 Bft) SW 234 0 min 0,000 mm 0,0 UV-I 53 W/m 12,8 C 12,6 C 12,9 km/h (3 Bft) 100,00 %
06.08.2016 07:12 13,7 C 94 % 1023,2 hPa 0,0 l/m 8,4 km/h (2 Bft) W-SW 241 0 min 0,000 mm 0,0 UV-I 46 W/m 12,8 C 12,5 C 12,9 km/h (3 Bft) 100,00 %
06.08.2016 07:14 13,7 C 94 % 1023,2 hPa 0,0 l/m 6,7 km/h (2 Bft) W-SW 248 0 min 0,000 mm 0,0 UV-I 46 W/m 12,8 C 13,5 C 12,9 km/h (3 Bft) 100,00 %
06.08.2016 07:16 13,8 C 94 % 1023,3 hPa 0,0 l/m 7,9 km/h (2 Bft) SW 217 0 min 0,000 mm 0,0 UV-I 52 W/m 12,9 C 12,9 C 12,9 km/h (3 Bft) 98,00 %
06.08.2016 07:18 13,8 C 94 % 1023,3 hPa 0,0 l/m 8,2 km/h (2 Bft) S-SW 209 0 min 0,000 mm 0,0 UV-I 57 W/m 12,9 C 12,7 C 11,3 km/h (2 Bft) 100,00 %
06.08.2016 07:20 13,8 C 94 % 1023,3 hPa 0,0 l/m 7,6 km/h (2 Bft) S-SW 210 0 min 0,000 mm 0,0 UV-I 50 W/m 12,9 C 13,1 C 11,3 km/h (2 Bft) 100,00 %
06.08.2016 07:22 13,8 C 93 % 1023,3 hPa 0,0 l/m 7,4 km/h (2 Bft) W-SW 240 0 min 0,000 mm 0,0 UV-I 54 W/m 12,7 C 13,2 C 12,9 km/h (3 Bft) 100,00 %
06.08.2016 07:24 13,8 C 93 % 1023,3 hPa 0,0 l/m 6,0 km/h (2 Bft) W-SW 247 0 min 0,000 mm 0,0 UV-I 56 W/m 12,7 C 13,8 C 8,0 km/h (2 Bft) 100,00 %
06.08.2016 07:26 13,8 C 93 % 1023,3 hPa 0,0 l/m 7,2 km/h (2 Bft) SW 235 0 min 0,000 mm 0,0 UV-I 55 W/m 12,7 C 13,3 C 11,3 km/h (2 Bft) 100,00 %
06.08.2016 07:28 13,9 C 93 % 1023,4 hPa 0,0 l/m 5,2 km/h (1 Bft) W-SW 244 0 min 0,000 mm 0,0 UV-I 62 W/m 12,8 C 13,9 C 8,0 km/h (2 Bft) 100,00 %
06.08.2016 07:30 13,9 C 93 % 1023,3 hPa 0,0 l/m 6,4 km/h (2 Bft) W-SW 247 0 min 0,000 mm 0,0 UV-I 64 W/m 12,8 C 13,9 C 9,7 km/h (2 Bft) 100,00 %
06.08.2016 07:32 13,9 C 93 % 1023,4 hPa 0,0 l/m 7,9 km/h (2 Bft) W-SW 246 0 min 0,000 mm 0,0 UV-I 67 W/m 12,8 C 13,0 C 11,3 km/h (2 Bft) 97,92 %
06.08.2016 07:34 13,9 C 93 % 1023,4 hPa 0,0 l/m 5,6 km/h (1 Bft) W-SW 252 0 min 0,000 mm 0,0 UV-I 71 W/m 12,8 C 13,9 C 8,0 km/h (2 Bft) 97,62 %
06.08.2016 07:36 13,9 C 93 % 1023,4 hPa 0,0 l/m 7,7 km/h (2 Bft) W-SW 253 0 min 0,000 mm 0,0 UV-I 67 W/m 12,8 C 13,1 C 12,9 km/h (3 Bft) 100,00 %
06.08.2016 07:38 13,9 C 93 % 1023,4 hPa 0,0 l/m 5,9 km/h (2 Bft) W-SW 252 0 min 0,000 mm 0,0 UV-I 55 W/m 12,8 C 13,9 C 9,7 km/h (2 Bft) 100,00 %
06.08.2016 07:40 13,9 C 93 % 1023,4 hPa 0,0 l/m 7,8 km/h (2 Bft) W-SW 244 0 min 0,000 mm 0,0 UV-I 48 W/m 12,8 C 13,1 C 12,9 km/h (3 Bft) 100,00 %
06.08.2016 07:42 13,9 C 93 % 1023,3 hPa 0,0 l/m 6,6 km/h (2 Bft) W-SW 251 0 min 0,000 mm 0,0 UV-I 52 W/m 12,8 C 13,8 C 14,5 km/h (3 Bft) 100,00 %
06.08.2016 07:44 13,9 C 93 % 1023,3 hPa 0,0 l/m 5,5 km/h (1 Bft) W 273 0 min 0,000 mm 0,0 UV-I 66 W/m 12,8 C 13,9 C 8,0 km/h (2 Bft) 97,87 %
06.08.2016 07:46 13,9 C 93 % 1023,3 hPa 0,0 l/m 3,8 km/h (1 Bft) W 260 0 min 0,000 mm 0,0 UV-I 76 W/m 12,8 C 13,9 C 6,4 km/h (2 Bft) 100,00 %
06.08.2016 07:48 13,9 C 93 % 1023,3 hPa 0,0 l/m 5,3 km/h (1 Bft) W 272 0 min 0,000 mm 0,0 UV-I 82 W/m 12,8 C 13,9 C 9,7 km/h (2 Bft) 100,00 %
06.08.2016 07:50 14,0 C 93 % 1023,3 hPa 0,0 l/m 6,8 km/h (2 Bft) W-SW 250 0 min 0,000 mm 0,0 UV-I 90 W/m 12,9 C 13,8 C 9,7 km/h (2 Bft) 100,00 %
06.08.2016 07:52 14,0 C 93 % 1023,3 hPa 0,0 l/m 5,2 km/h (1 Bft) W-SW 258 0 min 0,000 mm 0,0 UV-I 105 W/m 12,9 C 14,0 C 8,0 km/h (2 Bft) 97,87 %
06.08.2016 07:54 14,1 C 93 % 1023,3 hPa 0,0 l/m 6,6 km/h (2 Bft) W-SW 246 0 min 0,000 mm 0,0 UV-I 102 W/m 13,0 C 14,0 C 12,9 km/h (3 Bft) 100,00 %
06.08.2016 07:56 14,1 C 92 % 1023,3 hPa 0,0 l/m 5,2 km/h (1 Bft) W-SW 252 0 min 0,000 mm 0,0 UV-I 96 W/m 12,8 C 14,1 C 6,4 km/h (2 Bft) 100,00 %
06.08.2016 07:58 14,1 C 92 % 1023,3 hPa 0,0 l/m 5,4 km/h (1 Bft) W-SW 254 0 min 0,000 mm 0,0 UV-I 102 W/m 12,8 C 14,1 C 9,7 km/h (2 Bft) 100,00 %
06.08.2016 08:00 14,2 C 92 % 1023,3 hPa 0,0 l/m 4,7 km/h (1 Bft) W 259 0 min 0,051 mm 0,0 UV-I 115 W/m 12,9 C 14,2 C 6,4 km/h (2 Bft) 100,00 %
06.08.2016 08:02 14,2 C 92 % 1023,2 hPa 0,0 l/m 5,9 km/h (2 Bft) W-SW 251 0 min 0,000 mm 0,0 UV-I 125 W/m 12,9 C 14,2 C 8,0 km/h (2 Bft) 100,00 %
06.08.2016 08:04 14,3 C 92 % 1023,2 hPa 0,0 l/m 10,4 km/h (2 Bft) W 259 0 min 0,000 mm 0,0 UV-I 141 W/m 13,0 C 12,2 C 16,1 km/h (3 Bft) 100,00 %
06.08.2016 08:06 14,3 C 91 % 1023,2 hPa 0,0 l/m 8,4 km/h (2 Bft) W 259 0 min 0,000 mm 0,0 UV-I 151 W/m 12,8 C 13,1 C 14,5 km/h (3 Bft) 96,23 %
06.08.2016 08:08 14,3 C 92 % 1023,3 hPa 0,0 l/m 7,4 km/h (2 Bft) W-SW 247 0 min 0,000 mm 0,0 UV-I 153 W/m 13,0 C 13,7 C 11,3 km/h (2 Bft) 100,00 %
06.08.2016 08:10 14,4 C 91 % 1023,2 hPa 0,0 l/m 9,1 km/h (2 Bft) W 265 0 min 0,000 mm 0,5 UV-I 156 W/m 12,9 C 12,9 C 16,1 km/h (3 Bft) 100,00 %
06.08.2016 08:12 14,4 C 91 % 1023,3 hPa 0,0 l/m 8,3 km/h (2 Bft) W-SW 242 0 min 0,000 mm 0,5 UV-I 153 W/m 12,9 C 13,3 C 14,5 km/h (3 Bft) 98,00 %
06.08.2016 08:14 14,4 C 91 % 1023,1 hPa 0,0 l/m 6,7 km/h (2 Bft) W-SW 240 0 min 0,000 mm 0,5 UV-I 147 W/m 12,9 C 14,2 C 12,9 km/h (3 Bft) 93,62 %
06.08.2016 08:16 14,5 C 91 % 1023,3 hPa 0,0 l/m 7,2 km/h (2 Bft) SW 227 0 min 0,000 mm 0,5 UV-I 146 W/m 13,0 C 14,0 C 11,3 km/h (2 Bft) 95,74 %
06.08.2016 08:18 14,6 C 91 % 1023,2 hPa 0,0 l/m 7,2 km/h (2 Bft) W-SW 244 0 min 0,000 mm 0,5 UV-I 143 W/m 13,1 C 14,1 C 11,3 km/h (2 Bft) 97,56 %
06.08.2016 08:20 14,6 C 90 % 1023,2 hPa 0,0 l/m 8,9 km/h (2 Bft) W-SW 253 0 min 0,000 mm 0,4 UV-I 136 W/m 13,0 C 13,2 C 16,1 km/h (3 Bft) 98,21 %
06.08.2016 08:22 14,6 C 91 % 1023,3 hPa 0,0 l/m 10,7 km/h (2 Bft) SW 219 0 min 0,000 mm 0,0 UV-I 132 W/m 13,1 C 12,4 C 16,1 km/h (3 Bft) 97,56 %
06.08.2016 08:24 14,7 C 90 % 1023,3 hPa 0,0 l/m 9,1 km/h (2 Bft) SW 229 0 min 0,000 mm 0,0 UV-I 127 W/m 13,1 C 13,2 C 14,5 km/h (3 Bft) 96,23 %
06.08.2016 08:26 14,6 C 90 % 1023,3 hPa 0,0 l/m 9,6 km/h (2 Bft) W-SW 248 0 min 0,000 mm 0,3 UV-I 131 W/m 13,0 C 12,9 C 12,9 km/h (3 Bft) 97,87 %
06.08.2016 08:28 14,7 C 90 % 1023,4 hPa 0,0 l/m 7,9 km/h (2 Bft) SW 225 0 min 0,000 mm 0,3 UV-I 134 W/m 13,1 C 13,8 C 12,9 km/h (3 Bft) 97,87 %
06.08.2016 08:30 14,6 C 90 % 1023,4 hPa 0,0 l/m 10,4 km/h (2 Bft) W-SW 240 0 min 0,000 mm 0,2 UV-I 127 W/m 13,0 C 12,5 C 17,7 km/h (3 Bft) 97,56 %
06.08.2016 08:32 14,7 C 90 % 1023,4 hPa 0,0 l/m 8,9 km/h (2 Bft) W-SW 245 0 min 0,000 mm 0,5 UV-I 127 W/m 13,1 C 13,3 C 12,9 km/h (3 Bft) 94,00 %
06.08.2016 08:34 14,7 C 90 % 1023,4 hPa 0,0 l/m 10,5 km/h (2 Bft) W 261 0 min 0,000 mm 0,5 UV-I 136 W/m 13,1 C 12,6 C 16,1 km/h (3 Bft) 96,00 %
06.08.2016 08:36 14,7 C 90 % 1023,5 hPa 0,0 l/m 6,2 km/h (2 Bft) W-SW 247 0 min 0,000 mm 0,6 UV-I 155 W/m 13,1 C 14,7 C 12,9 km/h (3 Bft) 97,56 %
06.08.2016 08:38 14,8 C 91 % 1023,5 hPa 0,0 l/m 6,7 km/h (2 Bft) W 273 0 min 0,000 mm 0,6 UV-I 150 W/m 13,3 C 14,6 C 11,3 km/h (2 Bft) 98,21 %
06.08.2016 08:40 14,8 C 90 % 1023,5 hPa 0,0 l/m 6,7 km/h (2 Bft) W-SW 258 0 min 0,000 mm 0,6 UV-I 158 W/m 13,2 C 14,6 C 11,3 km/h (2 Bft) 97,87 %
06.08.2016 08:42 14,8 C 90 % 1023,4 hPa 0,0 l/m 9,1 km/h (2 Bft) W-SW 240 0 min 0,000 mm 0,6 UV-I 166 W/m 13,2 C 13,3 C 16,1 km/h (3 Bft) 97,37 %
06.08.2016 08:44 14,8 C 89 % 1023,4 hPa 0,0 l/m 11,0 km/h (2 Bft) SW 227 0 min 0,000 mm 0,7 UV-I 174 W/m 13,0 C 12,5 C 16,1 km/h (3 Bft) 100,00 %
06.08.2016 08:46 14,9 C 89 % 1023,5 hPa 0,0 l/m 9,8 km/h (2 Bft) W 263 0 min 0,000 mm 0,7 UV-I 173 W/m 13,1 C 13,1 C 14,5 km/h (3 Bft) 100,00 %
06.08.2016 08:48 14,9 C 89 % 1023,5 hPa 0,0 l/m 10,8 km/h (2 Bft) SW 231 0 min 0,000 mm 0,6 UV-I 154 W/m 13,1 C 12,7 C 16,1 km/h (3 Bft) 98,21 %
06.08.2016 08:50 14,9 C 89 % 1023,6 hPa 0,0 l/m 12,4 km/h (3 Bft) W-SW 246 0 min 0,000 mm 0,6 UV-I 132 W/m 13,1 C 12,0 C 17,7 km/h (3 Bft) 97,56 %
06.08.2016 08:52 14,9 C 89 % 1023,5 hPa 0,0 l/m 8,7 km/h (2 Bft) W 259 0 min 0,000 mm 0,7 UV-I 128 W/m 13,1 C 13,6 C 14,5 km/h (3 Bft) 100,00 %
06.08.2016 08:54 14,9 C 90 % 1023,6 hPa 0,0 l/m 10,3 km/h (2 Bft) W-SW 248 0 min 0,000 mm 0,7 UV-I 140 W/m 13,3 C 12,9 C 17,7 km/h (3 Bft) 100,00 %
06.08.2016 08:56 14,9 C 90 % 1023,6 hPa 0,0 l/m 11,8 km/h (2 Bft) W-SW 252 0 min 0,000 mm 0,6 UV-I 141 W/m 13,3 C 12,2 C 17,7 km/h (3 Bft) 97,14 %
06.08.2016 08:58 15,0 C 90 % 1023,6 hPa 0,0 l/m 8,6 km/h (2 Bft) W-SW 247 0 min 0,000 mm 0,6 UV-I 138 W/m 13,4 C 13,8 C 12,9 km/h (3 Bft) 100,00 %
06.08.2016 09:00 15,0 C 90 % 1023,6 hPa 0,0 l/m 10,2 km/h (2 Bft) W-SW 250 0 min 0,076 mm 0,6 UV-I 140 W/m 13,4 C 13,0 C 14,5 km/h (3 Bft) 97,37 %
06.08.2016 09:02 15,0 C 90 % 1023,6 hPa 0,0 l/m 8,2 km/h (2 Bft) S-SW 206 0 min 0,000 mm 0,6 UV-I 142 W/m 13,4 C 14,0 C 12,9 km/h (3 Bft) 100,00 %
06.08.2016 09:04 15,0 C 89 % 1023,6 hPa 0,0 l/m 10,2 km/h (2 Bft) W-SW 242 0 min 0,000 mm 0,7 UV-I 151 W/m 13,2 C 13,0 C 14,5 km/h (3 Bft) 100,00 %
06.08.2016 09:06 15,0 C 89 % 1023,6 hPa 0,0 l/m 10,7 km/h (2 Bft) W 266 0 min 0,000 mm 0,7 UV-I 149 W/m 13,2 C 12,8 C 16,1 km/h (3 Bft) 100,00 %
06.08.2016 09:08 15,1 C 89 % 1023,6 hPa 0,0 l/m 12,2 km/h (2 Bft) W 277 0 min 0,000 mm 0,7 UV-I 151 W/m 13,3 C 12,3 C 16,1 km/h (3 Bft) 100,00 %
06.08.2016 09:10 15,1 C 89 % 1023,6 hPa 0,0 l/m 11,9 km/h (2 Bft) SW 223 0 min 0,000 mm 0,7 UV-I 161 W/m 13,3 C 12,4 C 17,7 km/h (3 Bft) 100,00 %
06.08.2016 09:12 15,1 C 89 % 1023,7 hPa 0,0 l/m 6,1 km/h (2 Bft) W-NW 285 0 min 0,000 mm 0,7 UV-I 150 W/m 13,3 C 15,1 C 9,7 km/h (2 Bft) 100,00 %
06.08.2016 09:14 15,1 C 89 % 1023,8 hPa 0,0 l/m 7,3 km/h (2 Bft) W-SW 247 0 min 0,000 mm 0,6 UV-I 142 W/m 13,3 C 14,6 C 12,9 km/h (3 Bft) 100,00 %
06.08.2016 09:16 15,1 C 90 % 1023,7 hPa 0,0 l/m 6,7 km/h (2 Bft) W 279 0 min 0,000 mm 0,7 UV-I 146 W/m 13,5 C 14,9 C 11,3 km/h (2 Bft) 100,00 %
06.08.2016 09:18 15,2 C 89 % 1023,7 hPa 0,0 l/m 7,7 km/h (2 Bft) W 262 0 min 0,000 mm 0,8 UV-I 162 W/m 13,4 C 14,5 C 11,3 km/h (2 Bft) 98,31 %
06.08.2016 09:20 15,2 C 88 % 1023,7 hPa 0,0 l/m 9,9 km/h (2 Bft) W 271 0 min 0,000 mm 0,8 UV-I 166 W/m 13,2 C 13,4 C 16,1 km/h (3 Bft) 100,00 %
06.08.2016 09:22 15,2 C 89 % 1023,7 hPa 0,0 l/m 7,1 km/h (2 Bft) W 270 0 min 0,000 mm 0,8 UV-I 165 W/m 13,4 C 14,8 C 11,3 km/h (2 Bft) 96,23 %
06.08.2016 09:24 15,3 C 89 % 1023,8 hPa 0,0 l/m 7,5 km/h (2 Bft) W-SW 248 0 min 0,000 mm 0,8 UV-I 172 W/m 13,5 C 14,7 C 11,3 km/h (2 Bft) 97,37 %
06.08.2016 09:26 15,3 C 88 % 1023,8 hPa 0,0 l/m 10,5 km/h (2 Bft) W-SW 245 0 min 0,000 mm 0,8 UV-I 162 W/m 13,3 C 13,2 C 14,5 km/h (3 Bft) 98,00 %
06.08.2016 09:28 15,3 C 89 % 1023,8 hPa 0,0 l/m 5,3 km/h (1 Bft) W-SW 242 0 min 0,000 mm 0,8 UV-I 169 W/m 13,5 C 15,3 C 11,3 km/h (2 Bft) 100,00 %
06.08.2016 09:30 15,3 C 88 % 1023,9 hPa 0,0 l/m 7,7 km/h (2 Bft) W-SW 244 0 min 0,000 mm 0,8 UV-I 172 W/m 13,3 C 14,6 C 14,5 km/h (3 Bft) 100,00 %
06.08.2016 09:32 15,3 C 88 % 1023,9 hPa 0,0 l/m 6,8 km/h (2 Bft) W-SW 244 0 min 0,000 mm 0,8 UV-I 161 W/m 13,3 C 15,1 C 14,5 km/h (3 Bft) 100,00 %
06.08.2016 09:34 15,3 C 88 % 1023,8 hPa 0,0 l/m 7,3 km/h (2 Bft) SW 220 0 min 0,000 mm 0,8 UV-I 172 W/m 13,3 C 14,8 C 12,9 km/h (3 Bft) 97,62 %
06.08.2016 09:36 15,3 C 88 % 1023,8 hPa 0,0 l/m 8,0 km/h (2 Bft) W 260 0 min 0,000 mm 0,9 UV-I 179 W/m 13,3 C 14,4 C 12,9 km/h (3 Bft) 100,00 %
06.08.2016 09:38 15,3 C 88 % 1023,8 hPa 0,0 l/m 11,8 km/h (2 Bft) SW 233 0 min 0,000 mm 0,9 UV-I 174 W/m 13,3 C 12,7 C 16,1 km/h (3 Bft) 100,00 %
06.08.2016 09:40 15,3 C 88 % 1023,8 hPa 0,0 l/m 10,6 km/h (2 Bft) W-SW 255 0 min 0,000 mm 0,8 UV-I 170 W/m 13,3 C 13,2 C 16,1 km/h (3 Bft) 97,56 %
06.08.2016 09:42 15,3 C 89 % 1023,9 hPa 0,0 l/m 7,0 km/h (2 Bft) W-NW 292 0 min 0,000 mm 0,8 UV-I 161 W/m 13,5 C 15,0 C 12,9 km/h (3 Bft) 100,00 %
06.08.2016 09:44 15,4 C 89 % 1023,9 hPa 0,0 l/m 5,2 km/h (1 Bft) W 273 0 min 0,000 mm 0,8 UV-I 153 W/m 13,6 C 15,4 C 12,9 km/h (3 Bft) 100,00 %
06.08.2016 09:46 15,4 C 88 % 1024,0 hPa 0,0 l/m 5,2 km/h (1 Bft) W-SW 238 0 min 0,000 mm 0,8 UV-I 144 W/m 13,4 C 15,4 C 8,0 km/h (2 Bft) 100,00 %
06.08.2016 09:48 15,3 C 88 % 1024,0 hPa 0,0 l/m 5,7 km/h (1 Bft) W 272 0 min 0,000 mm 0,8 UV-I 143 W/m 13,3 C 15,3 C 12,9 km/h (3 Bft) 100,00 %
06.08.2016 09:50 15,3 C 89 % 1024,0 hPa 0,0 l/m 5,3 km/h (1 Bft) W 271 0 min 0,000 mm 0,7 UV-I 139 W/m 13,5 C 15,3 C 9,7 km/h (2 Bft) 100,00 %
06.08.2016 09:52 15,3 C 89 % 1024,0 hPa 0,0 l/m 6,9 km/h (2 Bft) W-SW 255 0 min 0,000 mm 0,8 UV-I 146 W/m 13,5 C 15,0 C 11,3 km/h (2 Bft) 98,11 %
06.08.2016 09:54 15,3 C 89 % 1024,0 hPa 0,0 l/m 4,6 km/h (1 Bft) W-SW 252 0 min 0,000 mm 0,8 UV-I 141 W/m 13,5 C 15,3 C 9,7 km/h (2 Bft) 100,00 %
06.08.2016 09:56 15,3 C 89 % 1024,0 hPa 0,0 l/m 7,3 km/h (2 Bft) W-SW 255 0 min 0,000 mm 0,7 UV-I 129 W/m 13,5 C 14,8 C 12,9 km/h (3 Bft) 100,00 %
06.08.2016 09:58 15,3 C 89 % 1024,0 hPa 0,0 l/m 9,1 km/h (2 Bft) W-SW 247 0 min 0,000 mm 0,7 UV-I 134 W/m 13,5 C 13,9 C 16,1 km/h (3 Bft) 98,11 %
06.08.2016 10:00 15,3 C 88 % 1024,0 hPa 0,0 l/m 11,6 km/h (2 Bft) W-SW 255 0 min 0,102 mm 0,8 UV-I 136 W/m 13,3 C 12,8 C 16,1 km/h (3 Bft) 98,00 %
06.08.2016 10:02 15,3 C 87 % 1024,0 hPa 0,0 l/m 8,6 km/h (2 Bft) W 279 0 min 0,000 mm 0,7 UV-I 125 W/m 13,1 C 14,1 C 14,5 km/h (3 Bft) 100,00 %
06.08.2016 10:04 15,3 C 88 % 1024,0 hPa 0,0 l/m 4,8 km/h (1 Bft) W-SW 250 0 min 0,000 mm 0,6 UV-I 119 W/m 13,3 C 15,3 C 11,3 km/h (2 Bft) 100,00 %
06.08.2016 10:06 15,3 C 89 % 1024,0 hPa 0,0 l/m 3,3 km/h (1 Bft) N-NW 331 0 min 0,000 mm 0,6 UV-I 115 W/m 13,5 C 15,3 C 8,0 km/h (2 Bft) 97,37 %
06.08.2016 10:08 15,3 C 89 % 1023,9 hPa 0,0 l/m 2,8 km/h (1 Bft) W 273 0 min 0,000 mm 0,7 UV-I 120 W/m 13,5 C 15,3 C 6,4 km/h (2 Bft) 100,00 %
06.08.2016 10:10 15,3 C 89 % 1023,9 hPa 0,0 l/m 4,3 km/h (1 Bft) W 264 0 min 0,000 mm 0,8 UV-I 138 W/m 13,5 C 15,3 C 11,3 km/h (2 Bft) 97,87 %
06.08.2016 10:12 15,3 C 89 % 1023,8 hPa 0,0 l/m 7,4 km/h (2 Bft) SW 216 0 min 0,000 mm 0,9 UV-I 161 W/m 13,5 C 14,7 C 12,9 km/h (3 Bft) 97,87 %
06.08.2016 10:14 15,3 C 89 % 1023,8 hPa 0,0 l/m 6,4 km/h (2 Bft) W 259 0 min 0,000 mm 1,0 UV-I 187 W/m 13,5 C 15,3 C 12,9 km/h (3 Bft) 93,62 %
06.08.2016 10:16 15,3 C 89 % 1023,9 hPa 0,0 l/m 7,1 km/h (2 Bft) W 269 0 min 0,000 mm 1,0 UV-I 187 W/m 13,5 C 14,9 C 14,5 km/h (3 Bft) 93,62 %
06.08.2016 10:18 15,4 C 89 % 1023,9 hPa 0,0 l/m 7,9 km/h (2 Bft) W-NW 297 0 min 0,000 mm 1,0 UV-I 181 W/m 13,6 C 14,6 C 12,9 km/h (3 Bft) 98,21 %
06.08.2016 10:20 15,4 C 88 % 1023,9 hPa 0,0 l/m 6,3 km/h (2 Bft) W 265 0 min 0,000 mm 1,1 UV-I 195 W/m 13,4 C 15,4 C 11,3 km/h (2 Bft) 97,56 %
06.08.2016 10:22 15,5 C 88 % 1023,9 hPa 0,0 l/m 4,7 km/h (1 Bft) W-SW 245 0 min 0,000 mm 1,3 UV-I 216 W/m 13,5 C 15,5 C 9,7 km/h (2 Bft) 97,87 %
06.08.2016 10:24 15,6 C 88 % 1023,9 hPa 0,0 l/m 6,9 km/h (2 Bft) S-SW 213 0 min 0,000 mm 1,5 UV-I 250 W/m 13,6 C 15,3 C 12,9 km/h (3 Bft) 98,00 %
06.08.2016 10:26 15,6 C 88 % 1023,9 hPa 0,0 l/m 4,0 km/h (1 Bft) SW 215 0 min 0,000 mm 1,5 UV-I 259 W/m 13,6 C 15,6 C 6,4 km/h (2 Bft) 97,87 %
06.08.2016 10:28 15,7 C 88 % 1023,9 hPa 0,0 l/m 4,4 km/h (1 Bft) W-SW 242 0 min 0,000 mm 1,7 UV-I 278 W/m 13,7 C 15,7 C 11,3 km/h (2 Bft) 97,56 %
06.08.2016 10:30 15,8 C 88 % 1023,9 hPa 0,0 l/m 8,0 km/h (2 Bft) W-SW 242 0 min 0,000 mm 1,7 UV-I 295 W/m 13,8 C 14,9 C 11,3 km/h (2 Bft) 96,23 %
06.08.2016 10:32 15,9 C 88 % 1023,9 hPa 0,0 l/m 5,9 km/h (2 Bft) SW 229 0 min 0,000 mm 1,7 UV-I 285 W/m 13,9 C 15,9 C 11,3 km/h (2 Bft) 97,56 %
06.08.2016 10:34 15,9 C 86 % 1023,9 hPa 0,0 l/m 6,5 km/h (2 Bft) W 262 0 min 0,000 mm 1,5 UV-I 265 W/m 13,6 C 15,9 C 14,5 km/h (3 Bft) 97,73 %
06.08.2016 10:36 16,0 C 88 % 1023,9 hPa 0,0 l/m 5,8 km/h (2 Bft) SW 229 0 min 0,000 mm 1,6 UV-I 268 W/m 14,0 C 16,0 C 8,0 km/h (2 Bft) 98,11 %
06.08.2016 10:38 16,1 C 87 % 1023,9 hPa 0,0 l/m 7,7 km/h (2 Bft) W-SW 238 0 min 0,000 mm 1,6 UV-I 274 W/m 13,9 C 15,4 C 14,5 km/h (3 Bft) 97,87 %
06.08.2016 10:40 16,1 C 87 % 1024,0 hPa 0,0 l/m 8,8 km/h (2 Bft) SW 219 0 min 0,000 mm 1,7 UV-I 280 W/m 13,9 C 14,9 C 12,9 km/h (3 Bft) 97,87 %
06.08.2016 10:42 16,1 C 86 % 1024,0 hPa 0,0 l/m 9,2 km/h (2 Bft) W-SW 243 0 min 0,000 mm 1,7 UV-I 282 W/m 13,8 C 14,7 C 14,5 km/h (3 Bft) 97,56 %
06.08.2016 10:44 16,1 C 85 % 1024,0 hPa 0,0 l/m 6,4 km/h (2 Bft) W-SW 246 0 min 0,000 mm 1,5 UV-I 257 W/m 13,6 C 16,1 C 11,3 km/h (2 Bft) 100,00 %
06.08.2016 10:46 16,2 C 87 % 1024,0 hPa 0,0 l/m 5,2 km/h (1 Bft) W 259 0 min 0,000 mm 1,5 UV-I 249 W/m 14,0 C 16,2 C 11,3 km/h (2 Bft) 100,00 %
06.08.2016 10:48 16,3 C 87 % 1024,0 hPa 0,0 l/m 8,6 km/h (2 Bft) W-SW 243 0 min 0,000 mm 1,4 UV-I 246 W/m 14,1 C 15,2 C 12,9 km/h (3 Bft) 98,18 %
06.08.2016 10:50 16,3 C 87 % 1024,0 hPa 0,0 l/m 6,3 km/h (2 Bft) SW 231 0 min 0,000 mm 1,6 UV-I 266 W/m 14,1 C 16,3 C 11,3 km/h (2 Bft) 100,00 %
06.08.2016 10:52 16,4 C 88 % 1024,0 hPa 0,0 l/m 5,9 km/h (2 Bft) SW 226 0 min 0,000 mm 1,7 UV-I 275 W/m 14,4 C 16,4 C 9,7 km/h (2 Bft) 100,00 %
06.08.2016 10:54 16,4 C 86 % 1024,1 hPa 0,0 l/m 8,4 km/h (2 Bft) S-SW 210 0 min 0,000 mm 1,6 UV-I 261 W/m 14,1 C 15,4 C 14,5 km/h (3 Bft) 100,00 %
06.08.2016 10:56 16,4 C 87 % 1024,1 hPa 0,0 l/m 8,8 km/h (2 Bft) W-SW 254 0 min 0,000 mm 1,5 UV-I 246 W/m 14,2 C 15,2 C 14,5 km/h (3 Bft) 100,00 %
06.08.2016 10:58 16,4 C 87 % 1024,1 hPa 0,0 l/m 6,4 km/h (2 Bft) W-SW 254 0 min 0,000 mm 1,6 UV-I 252 W/m 14,2 C 16,4 C 12,9 km/h (3 Bft) 100,00 %
06.08.2016 11:00 16,5 C 86 % 1024,1 hPa 0,0 l/m 6,3 km/h (2 Bft) SW 229 0 min 0,127 mm 1,9 UV-I 275 W/m 14,1 C 16,5 C 12,9 km/h (3 Bft) 97,56 %
06.08.2016 11:02 16,5 C 86 % 1024,1 hPa 0,0 l/m 7,9 km/h (2 Bft) W-SW 252 0 min 0,000 mm 2,0 UV-I 299 W/m 14,1 C 15,7 C 11,3 km/h (2 Bft) 98,00 %
06.08.2016 11:04 16,5 C 87 % 1024,2 hPa 0,0 l/m 6,7 km/h (2 Bft) W 266 0 min 0,000 mm 2,2 UV-I 323 W/m 14,3 C 16,4 C 11,3 km/h (2 Bft) 97,56 %
06.08.2016 11:06 16,7 C 86 % 1024,2 hPa 0,0 l/m 10,9 km/h (2 Bft) W-SW 256 0 min 0,000 mm 2,1 UV-I 325 W/m 14,3 C 14,6 C 17,7 km/h (3 Bft) 100,00 %
06.08.2016 11:08 16,7 C 86 % 1024,2 hPa 0,0 l/m 7,1 km/h (2 Bft) W-SW 242 0 min 0,000 mm 1,5 UV-I 231 W/m 14,3 C 16,3 C 9,7 km/h (2 Bft) 100,00 %
06.08.2016 11:10 16,8 C 86 % 1024,2 hPa 0,0 l/m 4,4 km/h (1 Bft) S-SW 209 0 min 0,000 mm 1,3 UV-I 194 W/m 14,4 C 16,8 C 6,4 km/h (2 Bft) 100,00 %
06.08.2016 11:12 16,7 C 84 % 1024,3 hPa 0,0 l/m 6,7 km/h (2 Bft) W-SW 246 0 min 0,000 mm 1,1 UV-I 171 W/m 14,0 C 16,6 C 14,5 km/h (3 Bft) 100,00 %
06.08.2016 11:14 16,6 C 85 % 1024,3 hPa 0,0 l/m 10,9 km/h (2 Bft) W-SW 256 0 min 0,000 mm 0,9 UV-I 140 W/m 14,1 C 14,5 C 14,5 km/h (3 Bft) 100,00 %
06.08.2016 11:16 16,5 C 85 % 1024,4 hPa 0,0 l/m 8,0 km/h (2 Bft) W-SW 240 0 min 0,000 mm 0,8 UV-I 123 W/m 14,0 C 15,7 C 14,5 km/h (3 Bft) 100,00 %
06.08.2016 11:18 16,4 C 85 % 1024,4 hPa 0,0 l/m 8,6 km/h (2 Bft) W 260 0 min 0,000 mm 0,7 UV-I 107 W/m 13,9 C 15,3 C 12,9 km/h (3 Bft) 100,00 %
06.08.2016 11:20 16,4 C 86 % 1024,4 hPa 0,0 l/m 5,5 km/h (1 Bft) W-NW 285 0 min 0,000 mm 0,8 UV-I 110 W/m 14,1 C 16,4 C 9,7 km/h (2 Bft) 96,23 %
06.08.2016 11:22 16,3 C 86 % 1024,4 hPa 0,0 l/m 8,0 km/h (2 Bft) W-SW 250 0 min 0,000 mm 0,9 UV-I 124 W/m 14,0 C 15,5 C 12,9 km/h (3 Bft) 100,00 %
06.08.2016 11:24 16,3 C 86 % 1024,4 hPa 0,0 l/m 9,6 km/h (2 Bft) W 259 0 min 0,000 mm 1,0 UV-I 140 W/m 14,0 C 14,7 C 12,9 km/h (3 Bft) 97,87 %
06.08.2016 11:26 16,3 C 86 % 1024,5 hPa 0,0 l/m 9,2 km/h (2 Bft) W-SW 243 0 min 0,000 mm 0,9 UV-I 135 W/m 14,0 C 14,9 C 16,1 km/h (3 Bft) 97,87 %
06.08.2016 11:28 16,3 C 86 % 1024,5 hPa 0,0 l/m 8,8 km/h (2 Bft) W-SW 252 0 min 0,000 mm 1,1 UV-I 153 W/m 14,0 C 15,1 C 14,5 km/h (3 Bft) 100,00 %
06.08.2016 11:30 16,3 C 86 % 1024,5 hPa 0,0 l/m 7,3 km/h (2 Bft) W 263 0 min 0,000 mm 1,2 UV-I 172 W/m 14,0 C 15,8 C 11,3 km/h (2 Bft) 96,88 %
06.08.2016 11:32 16,3 C 87 % 1024,6 hPa 0,0 l/m 4,8 km/h (1 Bft) W-SW 250 0 min 0,000 mm 1,1 UV-I 161 W/m 14,1 C 16,3 C 11,3 km/h (2 Bft) 97,50 %
06.08.2016 11:34 16,3 C 86 % 1024,5 hPa 0,0 l/m 0,8 km/h (0 Bft) W 270 0 min 0,000 mm 1,0 UV-I 136 W/m 14,0 C 16,3 C 3,2 km/h (1 Bft) 98,11 %
06.08.2016 11:36 16,3 C 88 % 1024,5 hPa 0,0 l/m 3,4 km/h (1 Bft) W-SW 245 0 min 0,000 mm 0,8 UV-I 120 W/m 14,3 C 16,3 C 6,4 km/h (2 Bft) 100,00 %
06.08.2016 11:38 16,3 C 87 % 1024,5 hPa 0,0 l/m 4,0 km/h (1 Bft) W 260 0 min 0,000 mm 0,7 UV-I 106 W/m 14,1 C 16,3 C 8,0 km/h (2 Bft) 100,00 %
06.08.2016 11:40 16,3 C 87 % 1024,5 hPa 0,0 l/m 2,6 km/h (1 Bft) W 262 0 min 0,000 mm 0,7 UV-I 108 W/m 14,1 C 16,3 C 4,8 km/h (1 Bft) 100,00 %
06.08.2016 11:42 16,2 C 87 % 1024,6 hPa 0,0 l/m 1,7 km/h (1 Bft) W-NW 292 0 min 0,000 mm 1,0 UV-I 136 W/m 14,0 C 16,2 C 8,0 km/h (2 Bft) 100,00 %
06.08.2016 11:44 16,2 C 87 % 1024,5 hPa 0,0 l/m 4,1 km/h (1 Bft) W-NW 291 0 min 0,000 mm 1,4 UV-I 190 W/m 14,0 C 16,2 C 9,7 km/h (2 Bft) 100,00 %
06.08.2016 11:46 16,3 C 87 % 1024,6 hPa 0,0 l/m 1,6 km/h (1 Bft) NW 311 0 min 0,000 mm 2,0 UV-I 259 W/m 14,1 C 16,3 C 3,2 km/h (1 Bft) 100,00 %
06.08.2016 11:48 16,4 C 88 % 1024,6 hPa 0,0 l/m 1,4 km/h (1 Bft) W-SW 255 0 min 0,000 mm 2,8 UV-I 361 W/m 14,4 C 16,4 C 4,8 km/h (1 Bft) 100,00 %
06.08.2016 11:50 16,7 C 87 % 1024,6 hPa 0,0 l/m 3,0 km/h (1 Bft) W-SW 240 2 min 0,000 mm 3,9 UV-I 475 W/m 14,5 C 16,7 C 9,7 km/h (2 Bft) 100,00 %
06.08.2016 11:52 16,9 C 87 % 1024,6 hPa 0,0 l/m 2,0 km/h (1 Bft) O-SO 119 2 min 0,000 mm 4,5 UV-I 555 W/m 14,7 C 16,9 C 6,4 km/h (2 Bft) 100,00 %
06.08.2016 11:54 17,3 C 86 % 1024,6 hPa 0,0 l/m 4,2 km/h (1 Bft) N 9 2 min 0,000 mm 3,4 UV-I 534 W/m 14,9 C 17,3 C 11,3 km/h (2 Bft) 100,00 %
06.08.2016 11:56 17,5 C 84 % 1024,6 hPa 0,0 l/m 2,6 km/h (1 Bft) SW 221 2 min 0,000 mm 3,6 UV-I 476 W/m 14,8 C 17,5 C 6,4 km/h (2 Bft) 100,00 %
06.08.2016 11:58 17,7 C 85 % 1024,6 hPa 0,0 l/m 4,1 km/h (1 Bft) SW 235 2 min 0,000 mm 3,8 UV-I 545 W/m 15,1 C 17,7 C 9,7 km/h (2 Bft) 100,00 %
06.08.2016 12:00 17,7 C 82 % 1024,6 hPa 0,0 l/m 7,9 km/h (2 Bft) W 259 0 min 0,000 mm 3,1 UV-I 423 W/m 14,6 C 17,0 C 14,5 km/h (3 Bft) 98,00 %
06.08.2016 12:02 17,7 C 83 % 1024,6 hPa 0,0 l/m 4,7 km/h (1 Bft) W-SW 251 0 min 0,152 mm 2,9 UV-I 376 W/m 14,8 C 17,7 C 6,4 km/h (2 Bft) 98,11 %
06.08.2016 12:04 17,8 C 83 % 1024,6 hPa 0,0 l/m 5,3 km/h (1 Bft) W-SW 246 0 min 0,000 mm 2,5 UV-I 331 W/m 14,9 C 17,8 C 8,0 km/h (2 Bft) 100,00 %
06.08.2016 12:06 17,6 C 82 % 1024,6 hPa 0,0 l/m 6,4 km/h (2 Bft) W 274 0 min 0,000 mm 1,9 UV-I 254 W/m 14,5 C 17,6 C 14,5 km/h (3 Bft) 100,00 %
06.08.2016 12:08 17,3 C 82 % 1024,6 hPa 0,0 l/m 8,6 km/h (2 Bft) W 269 0 min 0,000 mm 1,9 UV-I 235 W/m 14,2 C 16,2 C 11,3 km/h (2 Bft) 97,92 %
06.08.2016 12:10 17,3 C 83 % 1024,6 hPa 0,0 l/m 5,1 km/h (1 Bft) W-SW 240 0 min 0,000 mm 2,0 UV-I 217 W/m 14,4 C 17,3 C 9,7 km/h (2 Bft) 98,08 %
06.08.2016 12:12 17,2 C 84 % 1024,6 hPa 0,0 l/m 4,0 km/h (1 Bft) W-SW 243 0 min 0,000 mm 2,4 UV-I 289 W/m 14,5 C 17,2 C 6,4 km/h (2 Bft) 95,83 %
06.08.2016 12:14 17,3 C 84 % 1024,6 hPa 0,0 l/m 5,4 km/h (1 Bft) W 264 0 min 0,000 mm 2,6 UV-I 371 W/m 14,6 C 17,3 C 12,9 km/h (3 Bft) 97,37 %
06.08.2016 12:16 17,4 C 84 % 1024,7 hPa 0,0 l/m 6,9 km/h (2 Bft) W-SW 240 0 min 0,000 mm 2,6 UV-I 368 W/m 14,7 C 17,2 C 14,5 km/h (3 Bft) 97,56 %
06.08.2016 12:18 17,5 C 84 % 1024,7 hPa 0,0 l/m 4,8 km/h (1 Bft) W-SW 238 0 min 0,000 mm 2,6 UV-I 360 W/m 14,8 C 17,5 C 12,9 km/h (3 Bft) 96,23 %
06.08.2016 12:20 17,6 C 84 % 1024,6 hPa 0,0 l/m 3,8 km/h (1 Bft) S-SW 192 0 min 0,000 mm 2,4 UV-I 326 W/m 14,9 C 17,6 C 6,4 km/h (2 Bft) 96,00 %
06.08.2016 12:22 17,6 C 84 % 1024,7 hPa 0,0 l/m 1,1 km/h (1 Bft) S 171 0 min 0,000 mm 2,0 UV-I 272 W/m 14,9 C 17,6 C 6,4 km/h (2 Bft) 98,00 %
06.08.2016 12:24 17,6 C 84 % 1024,6 hPa 0,0 l/m 2,8 km/h (1 Bft) W 279 0 min 0,000 mm 2,3 UV-I 276 W/m 14,9 C 17,6 C 6,4 km/h (2 Bft) 97,87 %
06.08.2016 12:26 17,6 C 84 % 1024,6 hPa 0,0 l/m 3,5 km/h (1 Bft) W-SW 239 0 min 0,000 mm 2,8 UV-I 296 W/m 14,9 C 17,6 C 6,4 km/h (2 Bft) 96,00 %
06.08.2016 12:28 17,6 C 84 % 1024,6 hPa 0,0 l/m 1,3 km/h (1 Bft) N-NW 340 0 min 0,000 mm 3,2 UV-I 332 W/m 14,9 C 17,6 C 3,2 km/h (1 Bft) 97,56 %
06.08.2016 12:30 17,7 C 86 % 1024,6 hPa 0,0 l/m 1,9 km/h (1 Bft) O-SO 103 0 min 0,000 mm 3,2 UV-I 312 W/m 15,3 C 17,7 C 4,8 km/h (1 Bft) 96,15 %
06.08.2016 12:32 17,7 C 82 % 1024,6 hPa 0,0 l/m 2,3 km/h (1 Bft) W 277 0 min 0,000 mm 3,2 UV-I 296 W/m 14,6 C 17,7 C 4,8 km/h (1 Bft) 98,46 %
06.08.2016 12:34 17,6 C 82 % 1024,6 hPa 0,0 l/m 2,2 km/h (1 Bft) W-NW 292 0 min 0,000 mm 3,3 UV-I 332 W/m 14,5 C 17,6 C 4,8 km/h (1 Bft) 96,00 %
06.08.2016 12:36 17,6 C 83 % 1024,7 hPa 0,0 l/m 3,6 km/h (1 Bft) W-SW 245 0 min 0,000 mm 3,2 UV-I 377 W/m 14,7 C 17,6 C 6,4 km/h (2 Bft) 96,00 %
06.08.2016 12:38 17,6 C 84 % 1024,7 hPa 0,0 l/m 3,4 km/h (1 Bft) SW 225 0 min 0,000 mm 2,8 UV-I 353 W/m 14,9 C 17,6 C 4,8 km/h (1 Bft) 100,00 %
06.08.2016 12:40 17,7 C 83 % 1024,7 hPa 0,0 l/m 7,1 km/h (2 Bft) W 264 0 min 0,000 mm 2,0 UV-I 231 W/m 14,8 C 17,4 C 12,9 km/h (3 Bft) 93,75 %
06.08.2016 12:42 17,6 C 82 % 1024,7 hPa 0,0 l/m 5,7 km/h (1 Bft) SW 236 0 min 0,000 mm 1,4 UV-I 198 W/m 14,5 C 17,6 C 12,9 km/h (3 Bft) 100,00 %
06.08.2016 12:44 17,6 C 84 % 1024,7 hPa 0,0 l/m 4,4 km/h (1 Bft) W-NW 284 0 min 0,000 mm 1,8 UV-I 231 W/m 14,9 C 17,6 C 9,7 km/h (2 Bft) 94,87 %
06.08.2016 12:46 17,7 C 84 % 1024,7 hPa 0,0 l/m 4,1 km/h (1 Bft) W 261 0 min 0,000 mm 2,4 UV-I 302 W/m 15,0 C 17,7 C 6,4 km/h (2 Bft) 100,00 %
06.08.2016 12:48 17,7 C 84 % 1024,7 hPa 0,0 l/m 1,8 km/h (1 Bft) W 260 0 min 0,000 mm 2,7 UV-I 342 W/m 15,0 C 17,7 C 4,8 km/h (1 Bft) 97,73 %
06.08.2016 12:50 17,8 C 83 % 1024,7 hPa 0,0 l/m 3,0 km/h (1 Bft) W 260 0 min 0,000 mm 2,9 UV-I 330 W/m 14,9 C 17,8 C 6,4 km/h (2 Bft) 100,00 %
06.08.2016 12:52 17,7 C 82 % 1024,7 hPa 0,0 l/m 3,4 km/h (1 Bft) W 267 0 min 0,000 mm 3,0 UV-I 320 W/m 14,6 C 17,7 C 11,3 km/h (2 Bft) 97,87 %
06.08.2016 12:54 17,7 C 83 % 1024,7 hPa 0,0 l/m 3,4 km/h (1 Bft) W-NW 294 0 min 0,000 mm 3,3 UV-I 357 W/m 14,8 C 17,7 C 11,3 km/h (2 Bft) 100,00 %
06.08.2016 12:56 17,8 C 82 % 1024,7 hPa 0,0 l/m 4,5 km/h (1 Bft) W-NW 300 2 min 0,000 mm 3,9 UV-I 489 W/m 14,7 C 17,8 C 11,3 km/h (2 Bft) 97,37 %
06.08.2016 12:58 18,0 C 82 % 1024,7 hPa 0,0 l/m 3,5 km/h (1 Bft) S-SW 202 0 min 0,000 mm 3,2 UV-I 447 W/m 14,9 C 18,0 C 6,4 km/h (2 Bft) 100,00 %
06.08.2016 13:00 18,2 C 83 % 1024,7 hPa 0,0 l/m 3,4 km/h (1 Bft) W-SW 254 0 min 0,178 mm 2,6 UV-I 319 W/m 15,3 C 18,2 C 6,4 km/h (2 Bft) 100,00 %
06.08.2016 13:02 18,2 C 81 % 1024,7 hPa 0,0 l/m 6,2 km/h (2 Bft) SW 236 0 min 0,000 mm 2,5 UV-I 302 W/m 14,9 C 18,2 C 9,7 km/h (2 Bft) 100,00 %
06.08.2016 13:04 18,2 C 80 % 1024,7 hPa 0,0 l/m 10,4 km/h (2 Bft) SW 231 0 min 0,000 mm 2,5 UV-I 288 W/m 14,7 C 16,5 C 20,9 km/h (4 Bft) 100,00 %
06.08.2016 13:06 18,1 C 80 % 1024,6 hPa 0,0 l/m 13,3 km/h (3 Bft) W 272 0 min 0,000 mm 2,8 UV-I 302 W/m 14,6 C 15,4 C 19,3 km/h (3 Bft) 100,00 %
06.08.2016 13:08 18,0 C 81 % 1024,7 hPa 0,0 l/m 5,3 km/h (1 Bft) SW 215 0 min 0,000 mm 2,9 UV-I 274 W/m 14,7 C 18,0 C 12,9 km/h (3 Bft) 95,74 %
06.08.2016 13:10 18,0 C 81 % 1024,7 hPa 0,0 l/m 4,9 km/h (1 Bft) NW 315 0 min 0,000 mm 3,0 UV-I 218 W/m 14,7 C 18,0 C 9,7 km/h (2 Bft) 100,00 %
06.08.2016 13:12 18,1 C 81 % 1024,6 hPa 0,0 l/m 6,0 km/h (2 Bft) W-SW 257 2 min 0,000 mm 5,4 UV-I 582 W/m 14,8 C 18,1 C 11,3 km/h (2 Bft) 100,00 %
06.08.2016 13:14 18,4 C 80 % 1024,7 hPa 0,0 l/m 4,4 km/h (1 Bft) N-NW 348 2 min 0,000 mm 5,9 UV-I 896 W/m 14,9 C 18,4 C 8,0 km/h (2 Bft) 100,00 %
06.08.2016 13:16 18,6 C 78 % 1024,6 hPa 0,0 l/m 6,4 km/h (2 Bft) NW 315 2 min 0,000 mm 6,0 UV-I 947 W/m 14,7 C 18,6 C 14,5 km/h (3 Bft) 100,00 %
06.08.2016 13:18 18,8 C 79 % 1024,6 hPa 0,0 l/m 4,7 km/h (1 Bft) NW 311 2 min 0,000 mm 3,8 UV-I 580 W/m 15,1 C 18,8 C 11,3 km/h (2 Bft) 97,87 %
06.08.2016 13:20 18,7 C 79 % 1024,6 hPa 0,0 l/m 3,5 km/h (1 Bft) W-NW 292 0 min 0,000 mm 4,8 UV-I 425 W/m 15,0 C 18,7 C 9,7 km/h (2 Bft) 100,00 %
06.08.2016 13:22 18,9 C 80 % 1024,5 hPa 0,0 l/m 3,3 km/h (1 Bft) S-SW 209 2 min 0,000 mm 6,0 UV-I 953 W/m 15,4 C 18,9 C 6,4 km/h (2 Bft) 100,00 %
06.08.2016 13:24 19,3 C 79 % 1024,5 hPa 0,0 l/m 8,2 km/h (2 Bft) W-SW 249 2 min 0,000 mm 6,1 UV-I 942 W/m 15,6 C 18,5 C 14,5 km/h (3 Bft) 100,00 %
06.08.2016 13:26 19,6 C 79 % 1024,4 hPa 0,0 l/m 7,1 km/h (2 Bft) W-SW 244 2 min 0,000 mm 6,0 UV-I 976 W/m 15,9 C 19,3 C 16,1 km/h (3 Bft) 98,08 %
06.08.2016 13:28 19,8 C 79 % 1024,4 hPa 0,0 l/m 6,9 km/h (2 Bft) W-SW 238 2 min 0,000 mm 6,3 UV-I 983 W/m 16,0 C 19,6 C 12,9 km/h (3 Bft) 97,44 %
06.08.2016 13:30 19,9 C 76 % 1024,4 hPa 0,0 l/m 9,7 km/h (2 Bft) W 278 2 min 0,000 mm 5,9 UV-I 1013 W/m 15,5 C 18,6 C 17,7 km/h (3 Bft) 100,00 %
06.08.2016 13:32 20,0 C 75 % 1024,4 hPa 0,0 l/m 6,6 km/h (2 Bft) SW 215 2 min 0,000 mm 4,9 UV-I 1016 W/m 15,4 C 19,9 C 12,9 km/h (3 Bft) 100,00 %
06.08.2016 13:34 19,8 C 73 % 1024,4 hPa 0,0 l/m 9,7 km/h (2 Bft) W-SW 241 0 min 0,000 mm 3,2 UV-I 332 W/m 14,8 C 18,5 C 16,1 km/h (3 Bft) 100,00 %
06.08.2016 13:36 19,4 C 74 % 1024,4 hPa 0,0 l/m 3,5 km/h (1 Bft) W-SW 250 0 min 0,000 mm 3,0 UV-I 256 W/m 14,6 C 19,4 C 11,3 km/h (2 Bft) 100,00 %
06.08.2016 13:38 19,2 C 77 % 1024,4 hPa 0,0 l/m 2,5 km/h (1 Bft) W 261 0 min 0,000 mm 3,6 UV-I 295 W/m 15,1 C 19,2 C 6,4 km/h (2 Bft) 100,00 %
06.08.2016 13:40 19,2 C 77 % 1024,4 hPa 0,0 l/m 4,6 km/h (1 Bft) W 261 0 min 0,000 mm 5,7 UV-I 302 W/m 15,1 C 19,2 C 12,9 km/h (3 Bft) 100,00 %
06.08.2016 13:42 19,3 C 75 % 1024,4 hPa 0,0 l/m 5,4 km/h (1 Bft) NW 321 2 min 0,000 mm 6,0 UV-I 687 W/m 14,8 C 19,3 C 11,3 km/h (2 Bft) 100,00 %
06.08.2016 13:44 19,4 C 77 % 1024,4 hPa 0,0 l/m 4,5 km/h (1 Bft) NW 311 2 min 0,000 mm 6,0 UV-I 888 W/m 15,3 C 19,4 C 9,7 km/h (2 Bft) 100,00 %
06.08.2016 13:46 19,7 C 79 % 1024,3 hPa 0,0 l/m 3,5 km/h (1 Bft) NW 313 2 min 0,000 mm 5,8 UV-I 882 W/m 16,0 C 19,7 C 8,0 km/h (2 Bft) 100,00 %
06.08.2016 13:48 19,6 C 76 % 1024,4 hPa 0,0 l/m 2,6 km/h (1 Bft) NW 323 0 min 0,000 mm 3,2 UV-I 410 W/m 15,2 C 19,6 C 11,3 km/h (2 Bft) 100,00 %
06.08.2016 13:50 19,4 C 76 % 1024,3 hPa 0,0 l/m 4,6 km/h (1 Bft) N-NW 333 0 min 0,000 mm 3,0 UV-I 221 W/m 15,1 C 19,4 C 11,3 km/h (2 Bft) 100,00 %
06.08.2016 13:52 19,3 C 77 % 1024,3 hPa 0,0 l/m 3,7 km/h (1 Bft) W-NW 295 2 min 0,000 mm 5,4 UV-I 620 W/m 15,2 C 19,3 C 9,7 km/h (2 Bft) 100,00 %
06.08.2016 13:54 19,6 C 78 % 1024,4 hPa 0,0 l/m 4,9 km/h (1 Bft) NW 317 2 min 0,000 mm 5,9 UV-I 911 W/m 15,7 C 19,6 C 11,3 km/h (2 Bft) 97,87 %
06.08.2016 13:56 19,7 C 75 % 1024,3 hPa 0,0 l/m 7,0 km/h (2 Bft) W 280 2 min 0,000 mm 5,9 UV-I 897 W/m 15,1 C 19,5 C 16,1 km/h (3 Bft) 100,00 %
06.08.2016 13:58 19,7 C 75 % 1024,3 hPa 0,0 l/m 5,9 km/h (2 Bft) W 281 2 min 0,000 mm 5,9 UV-I 897 W/m 15,1 C 19,7 C 11,3 km/h (2 Bft) 100,00 %
06.08.2016 14:00 19,9 C 76 % 1024,2 hPa 0,0 l/m 6,1 km/h (2 Bft) N-NO 25 2 min 0,381 mm 5,7 UV-I 867 W/m 15,5 C 19,9 C 16,1 km/h (3 Bft) 97,37 %
06.08.2016 14:02 20,2 C 75 % 1024,3 hPa 0,0 l/m 4,1 km/h (1 Bft) SW 234 2 min 0,000 mm 5,6 UV-I 844 W/m 15,6 C 20,2 C 9,7 km/h (2 Bft) 100,00 %
06.08.2016 14:04 20,3 C 74 % 1024,3 hPa 0,0 l/m 7,3 km/h (2 Bft) SW 214 2 min 0,000 mm 5,8 UV-I 870 W/m 15,5 C 19,9 C 14,5 km/h (3 Bft) 100,00 %
06.08.2016 14:06 20,3 C 73 % 1024,3 hPa 0,0 l/m 6,0 km/h (2 Bft) W-NW 294 2 min 0,000 mm 5,9 UV-I 903 W/m 15,3 C 20,3 C 14,5 km/h (3 Bft) 97,92 %
06.08.2016 14:08 20,3 C 72 % 1024,2 hPa 0,0 l/m 8,2 km/h (2 Bft) W-SW 245 2 min 0,000 mm 5,0 UV-I 911 W/m 15,1 C 19,6 C 12,9 km/h (3 Bft) 94,00 %
06.08.2016 14:10 20,4 C 74 % 1024,2 hPa 0,0 l/m 5,6 km/h (1 Bft) W 274 2 min 0,000 mm 4,1 UV-I 806 W/m 15,6 C 20,4 C 11,3 km/h (2 Bft) 97,56 %
06.08.2016 14:12 20,5 C 73 % 1024,2 hPa 0,0 l/m 6,5 km/h (2 Bft) W-NW 300 0 min 0,000 mm 4,1 UV-I 397 W/m 15,5 C 20,5 C 14,5 km/h (3 Bft) 98,00 %
06.08.2016 14:14 20,5 C 74 % 1024,3 hPa 0,0 l/m 3,1 km/h (1 Bft) N-NO 13 0 min 0,000 mm 3,1 UV-I 337 W/m 15,7 C 20,5 C 9,7 km/h (2 Bft) 97,87 %
06.08.2016 14:16 20,3 C 73 % 1024,3 hPa 0,0 l/m 6,5 km/h (2 Bft) N-NW 333 0 min 0,000 mm 3,2 UV-I 362 W/m 15,3 C 20,3 C 12,9 km/h (3 Bft) 96,00 %
06.08.2016 14:18 20,0 C 75 % 1024,3 hPa 0,0 l/m 3,7 km/h (1 Bft) N 360 2 min 0,000 mm 4,6 UV-I 717 W/m 15,4 C 20,0 C 9,7 km/h (2 Bft) 95,74 %
06.08.2016 14:20 20,0 C 75 % 1024,2 hPa 0,0 l/m 2,4 km/h (1 Bft) NW 310 2 min 0,000 mm 5,5 UV-I 886 W/m 15,4 C 20,0 C 4,8 km/h (1 Bft) 97,37 %
06.08.2016 14:22 20,1 C 76 % 1024,2 hPa 0,0 l/m 6,1 km/h (2 Bft) W-NW 284 2 min 0,000 mm 4,9 UV-I 913 W/m 15,7 C 20,1 C 12,9 km/h (3 Bft) 97,56 %
06.08.2016 14:24 20,3 C 72 % 1024,1 hPa 0,0 l/m 6,4 km/h (2 Bft) W 280 2 min 0,000 mm 5,3 UV-I 930 W/m 15,1 C 20,3 C 12,9 km/h (3 Bft) 96,23 %
06.08.2016 14:26 20,3 C 72 % 1024,1 hPa 0,0 l/m 3,6 km/h (1 Bft) W-NW 302 2 min 0,000 mm 4,1 UV-I 935 W/m 15,1 C 20,3 C 9,7 km/h (2 Bft) 98,00 %
06.08.2016 14:28 20,4 C 73 % 1024,2 hPa 0,0 l/m 5,0 km/h (1 Bft) SW 217 2 min 0,000 mm 5,5 UV-I 937 W/m 15,4 C 20,4 C 11,3 km/h (2 Bft) 98,11 %
06.08.2016 14:30 20,5 C 70 % 1024,1 hPa 0,0 l/m 8,2 km/h (2 Bft) W-SW 240 2 min 0,000 mm 4,0 UV-I 740 W/m 14,8 C 19,8 C 14,5 km/h (3 Bft) 97,56 %
06.08.2016 14:32 20,5 C 72 % 1024,1 hPa 0,0 l/m 7,4 km/h (2 Bft) W-SW 254 2 min 0,000 mm 5,1 UV-I 541 W/m 15,3 C 20,1 C 14,5 km/h (3 Bft) 98,00 %
06.08.2016 14:34 20,7 C 69 % 1024,0 hPa 0,0 l/m 5,4 km/h (1 Bft) N-NO 19 2 min 0,000 mm 5,6 UV-I 870 W/m 14,8 C 20,7 C 11,3 km/h (2 Bft) 97,56 %
06.08.2016 14:36 20,9 C 70 % 1024,1 hPa 0,0 l/m 4,0 km/h (1 Bft) SW 236 2 min 0,000 mm 5,6 UV-I 845 W/m 15,2 C 20,9 C 8,0 km/h (2 Bft) 96,00 %
06.08.2016 14:38 21,2 C 70 % 1024,1 hPa 0,0 l/m 11,0 km/h (2 Bft) NW 319 2 min 0,000 mm 5,6 UV-I 871 W/m 15,5 C 19,7 C 20,9 km/h (4 Bft) 100,00 %
06.08.2016 14:40 21,2 C 69 % 1024,2 hPa 0,0 l/m 8,7 km/h (2 Bft) NW 321 2 min 0,000 mm 5,6 UV-I 956 W/m 15,3 C 20,4 C 16,1 km/h (3 Bft) 97,56 %
06.08.2016 14:42 21,1 C 69 % 1024,2 hPa 0,0 l/m 6,9 km/h (2 Bft) N-NO 18 2 min 0,000 mm 5,1 UV-I 985 W/m 15,2 C 20,9 C 19,3 km/h (3 Bft) 100,00 %
06.08.2016 14:44 21,1 C 67 % 1024,2 hPa 0,0 l/m 6,5 km/h (2 Bft) NW 321 2 min 0,000 mm 4,3 UV-I 932 W/m 14,7 C 21,1 C 12,9 km/h (3 Bft) 97,44 %
06.08.2016 14:46 20,9 C 69 % 1024,2 hPa 0,0 l/m 4,2 km/h (1 Bft) NO 43 0 min 0,000 mm 3,7 UV-I 374 W/m 15,0 C 20,9 C 11,3 km/h (2 Bft) 100,00 %
06.08.2016 14:48 20,8 C 69 % 1024,3 hPa 0,0 l/m 5,8 km/h (2 Bft) N-NO 28 2 min 0,000 mm 5,1 UV-I 554 W/m 14,9 C 20,8 C 11,3 km/h (2 Bft) 97,87 %
06.08.2016 14:50 21,0 C 72 % 1024,2 hPa 0,0 l/m 3,5 km/h (1 Bft) W 259 2 min 0,000 mm 4,9 UV-I 875 W/m 15,8 C 21,0 C 9,7 km/h (2 Bft) 98,00 %
06.08.2016 14:52 21,2 C 69 % 1024,2 hPa 0,0 l/m 6,7 km/h (2 Bft) W 263 2 min 0,000 mm 4,8 UV-I 868 W/m 15,3 C 21,1 C 16,1 km/h (3 Bft) 100,00 %
06.08.2016 14:54 21,1 C 70 % 1024,2 hPa 0,0 l/m 5,2 km/h (1 Bft) W 266 2 min 0,000 mm 4,8 UV-I 880 W/m 15,4 C 21,1 C 11,3 km/h (2 Bft) 100,00 %
06.08.2016 14:56 21,3 C 67 % 1024,2 hPa 0,0 l/m 3,4 km/h (1 Bft) W 271 2 min 0,000 mm 5,1 UV-I 894 W/m 14,9 C 21,3 C 6,4 km/h (2 Bft) 100,00 %
06.08.2016 14:58 21,4 C 66 % 1024,3 hPa 0,0 l/m 6,6 km/h (2 Bft) SW 235 2 min 0,000 mm 4,0 UV-I 794 W/m 14,8 C 21,3 C 17,7 km/h (3 Bft) 98,21 %
06.08.2016 15:00 21,2 C 69 % 1024,4 hPa 0,0 l/m 5,4 km/h (1 Bft) W-SW 237 2 min 0,432 mm 3,8 UV-I 514 W/m 15,3 C 21,2 C 8,0 km/h (2 Bft) 100,00 %
06.08.2016 15:02 21,1 C 67 % 1024,3 hPa 0,0 l/m 12,8 km/h (3 Bft) W 263 2 min 0,000 mm 4,0 UV-I 568 W/m 14,7 C 19,1 C 20,9 km/h (4 Bft) 95,74 %
06.08.2016 15:04 20,9 C 69 % 1024,3 hPa 0,0 l/m 11,1 km/h (2 Bft) W-SW 250 2 min 0,000 mm 4,9 UV-I 869 W/m 15,0 C 19,3 C 16,1 km/h (3 Bft) 100,00 %
06.08.2016 15:06 21,0 C 67 % 1024,3 hPa 0,0 l/m 11,0 km/h (2 Bft) W-SW 238 2 min 0,000 mm 4,9 UV-I 856 W/m 14,6 C 19,5 C 17,7 km/h (3 Bft) 100,00 %
06.08.2016 15:08 21,2 C 68 % 1024,3 hPa 0,0 l/m 7,7 km/h (2 Bft) NW 309 2 min 0,000 mm 4,9 UV-I 848 W/m 15,1 C 20,7 C 12,9 km/h (3 Bft) 100,00 %
06.08.2016 15:10 21,4 C 66 % 1024,3 hPa 0,0 l/m 6,7 km/h (2 Bft) W 277 2 min 0,000 mm 4,5 UV-I 849 W/m 14,8 C 21,3 C 12,9 km/h (3 Bft) 100,00 %
06.08.2016 15:12 21,4 C 67 % 1024,3 hPa 0,0 l/m 5,1 km/h (1 Bft) SW 229 2 min 0,000 mm 4,3 UV-I 854 W/m 15,0 C 21,4 C 9,7 km/h (2 Bft) 98,11 %
06.08.2016 15:14 21,6 C 68 % 1024,2 hPa 0,0 l/m 8,1 km/h (2 Bft) W 273 2 min 0,000 mm 4,5 UV-I 886 W/m 15,4 C 21,0 C 17,7 km/h (3 Bft) 100,00 %
06.08.2016 15:16 21,7 C 67 % 1024,3 hPa 0,0 l/m 8,1 km/h (2 Bft) NO 52 2 min 0,000 mm 4,7 UV-I 894 W/m 15,3 C 21,1 C 16,1 km/h (3 Bft) 100,00 %
06.08.2016 15:18 21,6 C 69 % 1024,3 hPa 0,0 l/m 4,2 km/h (1 Bft) N 355 2 min 0,000 mm 4,8 UV-I 881 W/m 15,7 C 21,6 C 12,9 km/h (3 Bft) 100,00 %
06.08.2016 15:20 21,6 C 68 % 1024,3 hPa 0,0 l/m 5,0 km/h (1 Bft) N-NO 17 2 min 0,000 mm 4,6 UV-I 872 W/m 15,4 C 21,6 C 9,7 km/h (2 Bft) 97,87 %
06.08.2016 15:22 21,3 C 66 % 1024,3 hPa 0,0 l/m 3,5 km/h (1 Bft) W-NW 291 2 min 0,000 mm 3,0 UV-I 480 W/m 14,7 C 21,3 C 9,7 km/h (2 Bft) 100,00 %
06.08.2016 15:24 21,1 C 67 % 1024,2 hPa 0,0 l/m 4,9 km/h (1 Bft) W-NW 296 0 min 0,000 mm 2,5 UV-I 262 W/m 14,7 C 21,1 C 12,9 km/h (3 Bft) 100,00 %
06.08.2016 15:26 20,9 C 71 % 1024,1 hPa 0,0 l/m 2,0 km/h (1 Bft) N-NW 327 0 min 0,000 mm 3,7 UV-I 253 W/m 15,4 C 20,9 C 8,0 km/h (2 Bft) 100,00 %
06.08.2016 15:28 21,1 C 69 % 1024,1 hPa 0,0 l/m 5,4 km/h (1 Bft) NO 53 0 min 0,000 mm 3,3 UV-I 284 W/m 15,2 C 21,1 C 14,5 km/h (3 Bft) 98,31 %
06.08.2016 15:30 20,9 C 68 % 1024,1 hPa 0,0 l/m 2,7 km/h (1 Bft) NW 311 0 min 0,000 mm 2,9 UV-I 304 W/m 14,8 C 20,9 C 6,4 km/h (2 Bft) 100,00 %
06.08.2016 15:32 21,2 C 67 % 1024,1 hPa 0,0 l/m 1,4 km/h (1 Bft) W-NW 289 2 min 0,000 mm 3,0 UV-I 860 W/m 14,8 C 21,2 C 6,4 km/h (2 Bft) 100,00 %
06.08.2016 15:34 21,2 C 68 % 1024,1 hPa 0,0 l/m 4,6 km/h (1 Bft) NW 306 2 min 0,000 mm 2,4 UV-I 661 W/m 15,1 C 21,2 C 8,0 km/h (2 Bft) 97,87 %
06.08.2016 15:36 20,9 C 66 % 1024,1 hPa 0,0 l/m 6,0 km/h (2 Bft) N-NW 331 0 min 0,000 mm 2,1 UV-I 215 W/m 14,3 C 20,9 C 14,5 km/h (3 Bft) 100,00 %
06.08.2016 15:38 20,7 C 68 % 1024,1 hPa 0,0 l/m 2,6 km/h (1 Bft) N-NW 346 0 min 0,000 mm 2,2 UV-I 238 W/m 14,6 C 20,7 C 9,7 km/h (2 Bft) 100,00 %
06.08.2016 15:40 20,6 C 70 % 1024,0 hPa 0,0 l/m 3,6 km/h (1 Bft) W-NW 292 0 min 0,000 mm 2,4 UV-I 242 W/m 14,9 C 20,6 C 8,0 km/h (2 Bft) 100,00 %
06.08.2016 15:42 20,7 C 70 % 1024,0 hPa 0,0 l/m 3,5 km/h (1 Bft) NO 46 2 min 0,000 mm 3,7 UV-I 462 W/m 15,0 C 20,7 C 8,0 km/h (2 Bft) 100,00 %
06.08.2016 15:44 21,1 C 70 % 1024,0 hPa 0,0 l/m 3,4 km/h (1 Bft) SW 225 2 min 0,000 mm 3,9 UV-I 762 W/m 15,4 C 21,1 C 6,4 km/h (2 Bft) 100,00 %
06.08.2016 15:46 21,3 C 68 % 1024,0 hPa 0,0 l/m 4,8 km/h (1 Bft) W-NW 288 2 min 0,000 mm 3,9 UV-I 728 W/m 15,1 C 21,3 C 12,9 km/h (3 Bft) 100,00 %
06.08.2016 15:48 21,4 C 67 % 1023,9 hPa 0,0 l/m 4,8 km/h (1 Bft) N-NW 342 2 min 0,000 mm 3,8 UV-I 723 W/m 15,0 C 21,4 C 12,9 km/h (3 Bft) 100,00 %
06.08.2016 15:50 21,4 C 65 % 1023,9 hPa 0,0 l/m 3,8 km/h (1 Bft) NW 322 2 min 0,000 mm 3,3 UV-I 726 W/m 14,5 C 21,4 C 6,4 km/h (2 Bft) 100,00 %
06.08.2016 15:52 21,5 C 67 % 1023,9 hPa 0,0 l/m 3,9 km/h (1 Bft) W-NW 289 2 min 0,000 mm 3,0 UV-I 662 W/m 15,1 C 21,5 C 9,7 km/h (2 Bft) 100,00 %
06.08.2016 15:54 21,3 C 67 % 1024,0 hPa 0,0 l/m 2,1 km/h (1 Bft) W 279 0 min 0,000 mm 2,2 UV-I 226 W/m 14,9 C 21,3 C 6,4 km/h (2 Bft) 100,00 %
06.08.2016 15:56 21,1 C 65 % 1023,9 hPa 0,0 l/m 3,8 km/h (1 Bft) W-NW 298 0 min 0,000 mm 2,4 UV-I 218 W/m 14,3 C 21,1 C 9,7 km/h (2 Bft) 100,00 %
06.08.2016 15:58 20,8 C 66 % 1023,9 hPa 0,0 l/m 3,0 km/h (1 Bft) NW 311 0 min 0,000 mm 2,7 UV-I 165 W/m 14,2 C 20,8 C 8,0 km/h (2 Bft) 100,00 %
06.08.2016 16:00 20,7 C 65 % 1023,9 hPa 0,0 l/m 4,4 km/h (1 Bft) NW 317 0 min 0,356 mm 2,0 UV-I 164 W/m 13,9 C 20,7 C 9,7 km/h (2 Bft) 96,00 %
06.08.2016 16:02 20,8 C 69 % 1023,9 hPa 0,0 l/m 2,9 km/h (1 Bft) W-SW 240 2 min 0,000 mm 3,1 UV-I 473 W/m 14,9 C 20,8 C 9,7 km/h (2 Bft) 95,74 %
06.08.2016 16:04 21,1 C 67 % 1023,9 hPa 0,0 l/m 4,8 km/h (1 Bft) W-NW 300 2 min 0,000 mm 3,3 UV-I 686 W/m 14,7 C 21,1 C 11,3 km/h (2 Bft) 98,18 %
06.08.2016 16:06 21,2 C 63 % 1023,9 hPa 0,0 l/m 5,2 km/h (1 Bft) W-NW 290 2 min 0,000 mm 3,4 UV-I 683 W/m 13,9 C 21,2 C 9,7 km/h (2 Bft) 100,00 %
06.08.2016 16:08 21,4 C 64 % 1024,0 hPa 0,0 l/m 3,7 km/h (1 Bft) NW 307 2 min 0,000 mm 3,4 UV-I 692 W/m 14,3 C 21,4 C 6,4 km/h (2 Bft) 97,18 %
06.08.2016 16:10 21,6 C 64 % 1023,9 hPa 0,0 l/m 7,6 km/h (2 Bft) W 281 2 min 0,000 mm 3,2 UV-I 672 W/m 14,5 C 21,2 C 12,9 km/h (3 Bft) 97,56 %
06.08.2016 16:12 21,7 C 63 % 1023,9 hPa 0,0 l/m 9,0 km/h (2 Bft) W 267 2 min 0,000 mm 3,2 UV-I 670 W/m 14,3 C 20,8 C 14,5 km/h (3 Bft) 98,00 %
06.08.2016 16:14 21,8 C 66 % 1023,9 hPa 0,0 l/m 10,2 km/h (2 Bft) W-SW 241 2 min 0,000 mm 2,5 UV-I 663 W/m 15,2 C 20,6 C 16,1 km/h (3 Bft) 97,56 %
06.08.2016 16:16 21,6 C 62 % 1024,0 hPa 0,0 l/m 15,5 km/h (3 Bft) W-SW 243 0 min 0,000 mm 1,9 UV-I 226 W/m 14,0 C 19,1 C 19,3 km/h (3 Bft) 98,00 %
06.08.2016 16:18 21,2 C 64 % 1024,0 hPa 0,0 l/m 13,0 km/h (3 Bft) W 278 0 min 0,000 mm 1,9 UV-I 118 W/m 14,1 C 19,2 C 17,7 km/h (3 Bft) 95,74 %
06.08.2016 16:20 20,8 C 64 % 1024,0 hPa 0,0 l/m 7,6 km/h (2 Bft) W-SW 245 0 min 0,000 mm 1,8 UV-I 117 W/m 13,7 C 20,3 C 12,9 km/h (3 Bft) 97,56 %
06.08.2016 16:22 20,6 C 64 % 1024,0 hPa 0,0 l/m 9,5 km/h (2 Bft) SW 225 0 min 0,000 mm 1,7 UV-I 126 W/m 13,5 C 19,5 C 14,5 km/h (3 Bft) 98,00 %
06.08.2016 16:24 20,4 C 67 % 1023,9 hPa 0,0 l/m 8,7 km/h (2 Bft) W-SW 246 0 min 0,000 mm 1,6 UV-I 128 W/m 14,1 C 19,5 C 14,5 km/h (3 Bft) 97,37 %
06.08.2016 16:26 20,4 C 67 % 1024,0 hPa 0,0 l/m 5,0 km/h (1 Bft) W 259 0 min 0,000 mm 1,8 UV-I 192 W/m 14,1 C 20,4 C 9,7 km/h (2 Bft) 98,28 %
06.08.2016 16:28 20,4 C 67 % 1024,0 hPa 0,0 l/m 7,4 km/h (2 Bft) SW 221 0 min 0,000 mm 2,0 UV-I 198 W/m 14,1 C 20,0 C 11,3 km/h (2 Bft) 98,00 %
06.08.2016 16:30 20,6 C 67 % 1024,0 hPa 0,0 l/m 9,4 km/h (2 Bft) SW 219 0 min 0,000 mm 2,1 UV-I 192 W/m 14,3 C 19,5 C 16,1 km/h (3 Bft) 97,37 %
06.08.2016 16:32 20,6 C 68 % 1023,9 hPa 0,0 l/m 7,8 km/h (2 Bft) W-SW 242 0 min 0,000 mm 2,0 UV-I 194 W/m 14,5 C 20,1 C 12,9 km/h (3 Bft) 96,23 %
06.08.2016 16:34 20,8 C 72 % 1023,9 hPa 0,0 l/m 11,2 km/h (2 Bft) W-SW 240 2 min 0,000 mm 2,6 UV-I 343 W/m 15,6 C 19,2 C 16,1 km/h (3 Bft) 100,00 %
06.08.2016 16:36 21,0 C 71 % 1024,0 hPa 0,0 l/m 10,8 km/h (2 Bft) SW 236 2 min 0,000 mm 2,5 UV-I 591 W/m 15,5 C 19,5 C 22,5 km/h (4 Bft) 96,23 %
06.08.2016 16:38 21,2 C 70 % 1024,0 hPa 0,0 l/m 14,0 km/h (3 Bft) W 265 2 min 0,000 mm 2,4 UV-I 572 W/m 15,5 C 18,9 C 22,5 km/h (4 Bft) 100,00 %
06.08.2016 16:40 21,3 C 69 % 1023,9 hPa 0,0 l/m 12,8 km/h (3 Bft) W 267 2 min 0,000 mm 2,3 UV-I 548 W/m 15,4 C 19,3 C 17,7 km/h (3 Bft) 100,00 %
06.08.2016 16:42 21,3 C 70 % 1024,0 hPa 0,0 l/m 13,4 km/h (3 Bft) W-SW 242 2 min 0,000 mm 2,2 UV-I 442 W/m 15,6 C 19,2 C 20,9 km/h (4 Bft) 100,00 %
06.08.2016 16:44 21,2 C 69 % 1024,0 hPa 0,0 l/m 15,0 km/h (3 Bft) W 261 2 min 0,000 mm 1,8 UV-I 492 W/m 15,3 C 18,7 C 24,1 km/h (4 Bft) 100,00 %
06.08.2016 16:46 20,9 C 70 % 1024,0 hPa 0,0 l/m 15,1 km/h (3 Bft) W-SW 246 0 min 0,000 mm 1,7 UV-I 132 W/m 15,2 C 18,3 C 25,7 km/h (4 Bft) 100,00 %
06.08.2016 16:48 20,9 C 70 % 1024,0 hPa 0,0 l/m 9,6 km/h (2 Bft) SW 222 2 min 0,000 mm 2,1 UV-I 422 W/m 15,2 C 19,8 C 16,1 km/h (3 Bft) 100,00 %
06.08.2016 16:50 21,1 C 70 % 1024,0 hPa 0,0 l/m 9,8 km/h (2 Bft) SW 222 2 min 0,000 mm 2,1 UV-I 607 W/m 15,4 C 19,9 C 19,3 km/h (3 Bft) 100,00 %
06.08.2016 16:52 21,1 C 70 % 1024,0 hPa 0,0 l/m 10,5 km/h (2 Bft) S 175 2 min 0,000 mm 2,2 UV-I 595 W/m 15,4 C 19,7 C 17,7 km/h (3 Bft) 100,00 %
06.08.2016 16:54 21,1 C 70 % 1024,0 hPa 0,0 l/m 13,8 km/h (3 Bft) SW 217 2 min 0,000 mm 1,9 UV-I 590 W/m 15,4 C 18,9 C 19,3 km/h (3 Bft) 100,00 %
06.08.2016 16:56 21,1 C 71 % 1023,9 hPa 0,0 l/m 14,1 km/h (3 Bft) W-SW 251 2 min 0,000 mm 2,0 UV-I 557 W/m 15,6 C 18,8 C 22,5 km/h (4 Bft) 100,00 %
06.08.2016 16:58 20,9 C 71 % 1024,0 hPa 0,0 l/m 10,4 km/h (2 Bft) W-SW 244 2 min 0,000 mm 1,4 UV-I 360 W/m 15,4 C 19,5 C 17,7 km/h (3 Bft) 100,00 %
06.08.2016 17:00 20,8 C 71 % 1024,0 hPa 0,0 l/m 10,3 km/h (2 Bft) SW 234 0 min 0,000 mm 1,3 UV-I 131 W/m 15,3 C 19,4 C 16,1 km/h (3 Bft) 100,00 %
06.08.2016 17:02 20,5 C 72 % 1023,9 hPa 0,0 l/m 12,3 km/h (3 Bft) SW 229 0 min 0,279 mm 1,3 UV-I 140 W/m 15,3 C 18,5 C 20,9 km/h (4 Bft) 100,00 %
06.08.2016 17:04 20,3 C 72 % 1024,0 hPa 0,0 l/m 11,1 km/h (2 Bft) SW 226 0 min 0,000 mm 1,2 UV-I 137 W/m 15,1 C 18,6 C 19,3 km/h (3 Bft) 100,00 %
06.08.2016 17:06 20,2 C 73 % 1024,0 hPa 0,0 l/m 8,4 km/h (2 Bft) S 189 0 min 0,000 mm 1,3 UV-I 143 W/m 15,2 C 19,4 C 14,5 km/h (3 Bft) 100,00 %
06.08.2016 17:08 20,1 C 74 % 1024,0 hPa 0,0 l/m 10,3 km/h (2 Bft) SW 229 0 min 0,000 mm 1,2 UV-I 115 W/m 15,3 C 18,7 C 16,1 km/h (3 Bft) 100,00 %
06.08.2016 17:10 20,0 C 74 % 1024,0 hPa 0,0 l/m 7,0 km/h (2 Bft) W 259 0 min 0,000 mm 1,0 UV-I 118 W/m 15,2 C 19,8 C 12,9 km/h (3 Bft) 100,00 %
06.08.2016 17:12 20,0 C 74 % 1024,0 hPa 0,0 l/m 12,5 km/h (3 Bft) W-SW 255 0 min 0,000 mm 1,1 UV-I 184 W/m 15,2 C 17,9 C 22,5 km/h (4 Bft) 100,00 %
06.08.2016 17:14 20,1 C 73 % 1024,0 hPa 0,0 l/m 14,0 km/h (3 Bft) SW 226 0 min 0,000 mm 1,3 UV-I 215 W/m 15,1 C 17,6 C 24,1 km/h (4 Bft) 98,00 %
06.08.2016 17:16 20,1 C 74 % 1024,0 hPa 0,0 l/m 12,6 km/h (3 Bft) S 190 0 min 0,000 mm 1,3 UV-I 208 W/m 15,3 C 18,0 C 17,7 km/h (3 Bft) 100,00 %
06.08.2016 17:18 20,2 C 72 % 1024,0 hPa 0,0 l/m 14,7 km/h (3 Bft) S-SW 192 0 min 0,000 mm 1,4 UV-I 207 W/m 15,0 C 17,6 C 19,3 km/h (3 Bft) 100,00 %
06.08.2016 17:20 20,3 C 72 % 1023,9 hPa 0,0 l/m 10,1 km/h (2 Bft) S-SW 202 2 min 0,000 mm 1,6 UV-I 449 W/m 15,1 C 18,9 C 16,1 km/h (3 Bft) 100,00 %
06.08.2016 17:22 20,6 C 71 % 1023,9 hPa 0,0 l/m 11,5 km/h (2 Bft) SW 232 2 min 0,000 mm 1,6 UV-I 492 W/m 15,2 C 18,9 C 17,7 km/h (3 Bft) 100,00 %
06.08.2016 17:24 20,8 C 71 % 1023,9 hPa 0,0 l/m 14,2 km/h (3 Bft) SW 227 2 min 0,000 mm 1,6 UV-I 490 W/m 15,3 C 18,4 C 24,1 km/h (4 Bft) 100,00 %
06.08.2016 17:26 20,9 C 69 % 1023,9 hPa 0,0 l/m 12,2 km/h (2 Bft) SW 236 2 min 0,000 mm 1,5 UV-I 474 W/m 15,0 C 19,0 C 20,9 km/h (4 Bft) 97,37 %
06.08.2016 17:28 21,1 C 70 % 1023,9 hPa 0,0 l/m 15,1 km/h (3 Bft) S-SW 205 2 min 0,000 mm 1,5 UV-I 480 W/m 15,4 C 18,6 C 24,1 km/h (4 Bft) 100,00 %
06.08.2016 17:30 21,1 C 68 % 1023,9 hPa 0,0 l/m 13,5 km/h (3 Bft) W-SW 244 2 min 0,000 mm 1,5 UV-I 453 W/m 15,0 C 18,9 C 22,5 km/h (4 Bft) 97,87 %
06.08.2016 17:32 21,1 C 69 % 1023,9 hPa 0,0 l/m 15,7 km/h (3 Bft) SW 218 2 min 0,000 mm 1,4 UV-I 434 W/m 15,2 C 18,4 C 24,1 km/h (4 Bft) 100,00 %
06.08.2016 17:34 21,1 C 69 % 1024,0 hPa 0,0 l/m 13,8 km/h (3 Bft) W-SW 250 2 min 0,000 mm 1,4 UV-I 419 W/m 15,2 C 18,9 C 20,9 km/h (4 Bft) 100,00 %
06.08.2016 17:36 21,1 C 69 % 1024,0 hPa 0,0 l/m 13,6 km/h (3 Bft) S-SW 201 2 min 0,000 mm 1,3 UV-I 402 W/m 15,2 C 18,9 C 24,1 km/h (4 Bft) 96,00 %
06.08.2016 17:38 21,1 C 68 % 1023,9 hPa 0,0 l/m 15,1 km/h (3 Bft) SW 229 2 min 0,000 mm 1,3 UV-I 420 W/m 15,0 C 18,6 C 22,5 km/h (4 Bft) 100,00 %
06.08.2016 17:40 21,0 C 68 % 1023,9 hPa 0,0 l/m 13,4 km/h (3 Bft) SW 226 2 min 0,000 mm 1,3 UV-I 406 W/m 14,9 C 18,8 C 20,9 km/h (4 Bft) 100,00 %
06.08.2016 17:42 21,0 C 67 % 1023,9 hPa 0,0 l/m 12,7 km/h (3 Bft) W-SW 241 2 min 0,000 mm 1,2 UV-I 391 W/m 14,6 C 19,0 C 19,3 km/h (3 Bft) 97,87 %
06.08.2016 17:44 20,9 C 68 % 1024,0 hPa 0,0 l/m 10,8 km/h (2 Bft) W-SW 249 2 min 0,000 mm 1,2 UV-I 390 W/m 14,8 C 19,4 C 19,3 km/h (3 Bft) 100,00 %
06.08.2016 17:46 20,9 C 69 % 1024,0 hPa 0,0 l/m 12,6 km/h (3 Bft) SW 223 2 min 0,000 mm 1,2 UV-I 372 W/m 15,0 C 18,9 C 20,9 km/h (4 Bft) 100,00 %
06.08.2016 17:48 21,0 C 68 % 1023,9 hPa 0,0 l/m 13,3 km/h (3 Bft) W-SW 254 2 min 0,000 mm 1,1 UV-I 343 W/m 14,9 C 18,9 C 19,3 km/h (3 Bft) 100,00 %
06.08.2016 17:50 20,9 C 67 % 1024,0 hPa 0,0 l/m 17,1 km/h (3 Bft) SW 227 2 min 0,000 mm 1,1 UV-I 335 W/m 14,5 C 17,9 C 24,1 km/h (4 Bft) 97,56 %
06.08.2016 17:52 20,9 C 68 % 1024,0 hPa 0,0 l/m 12,5 km/h (3 Bft) SW 227 2 min 0,000 mm 1,1 UV-I 332 W/m 14,8 C 18,9 C 19,3 km/h (3 Bft) 100,00 %
06.08.2016 17:54 20,8 C 68 % 1024,0 hPa 0,0 l/m 12,0 km/h (2 Bft) SW 232 2 min 0,000 mm 1,0 UV-I 310 W/m 14,7 C 19,0 C 17,7 km/h (3 Bft) 100,00 %
06.08.2016 17:56 20,8 C 70 % 1024,1 hPa 0,0 l/m 8,9 km/h (2 Bft) SW 219 2 min 0,000 mm 0,9 UV-I 286 W/m 15,1 C 19,9 C 14,5 km/h (3 Bft) 98,00 %
06.08.2016 17:58 20,7 C 70 % 1024,0 hPa 0,0 l/m 8,2 km/h (2 Bft) W-SW 254 0 min 0,000 mm 0,8 UV-I 81 W/m 15,0 C 20,0 C 17,7 km/h (3 Bft) 97,87 %
06.08.2016 18:00 20,6 C 70 % 1024,0 hPa 0,0 l/m 7,3 km/h (2 Bft) SW 236 0 min 0,229 mm 0,7 UV-I 62 W/m 14,9 C 20,2 C 17,7 km/h (3 Bft) 92,45 %
06.08.2016 18:02 20,3 C 70 % 1024,1 hPa 0,0 l/m 11,3 km/h (2 Bft) W-SW 240 0 min 0,000 mm 0,5 UV-I 55 W/m 14,6 C 18,6 C 19,3 km/h (3 Bft) 97,50 %
06.08.2016 18:04 20,2 C 71 % 1024,1 hPa 0,0 l/m 16,3 km/h (3 Bft) W-SW 246 0 min 0,000 mm 0,0 UV-I 53 W/m 14,8 C 17,2 C 22,5 km/h (4 Bft) 96,23 %
06.08.2016 18:06 20,1 C 69 % 1024,1 hPa 0,0 l/m 11,9 km/h (2 Bft) S 174 0 min 0,000 mm 0,0 UV-I 51 W/m 14,2 C 18,2 C 19,3 km/h (3 Bft) 95,74 %
06.08.2016 18:08 19,9 C 71 % 1024,1 hPa 0,0 l/m 7,2 km/h (2 Bft) SW 226 0 min 0,000 mm 0,0 UV-I 51 W/m 14,5 C 19,6 C 16,1 km/h (3 Bft) 92,68 %
06.08.2016 18:10 19,9 C 71 % 1024,1 hPa 0,0 l/m 13,9 km/h (3 Bft) S 181 0 min 0,000 mm 0,0 UV-I 54 W/m 14,5 C 17,4 C 19,3 km/h (3 Bft) 98,11 %
06.08.2016 18:12 19,8 C 70 % 1024,1 hPa 0,0 l/m 11,9 km/h (2 Bft) S-SW 209 0 min 0,000 mm 0,5 UV-I 60 W/m 14,2 C 17,8 C 17,7 km/h (3 Bft) 97,37 %
06.08.2016 18:14 19,8 C 71 % 1024,1 hPa 0,0 l/m 9,6 km/h (2 Bft) S 185 0 min 0,000 mm 0,5 UV-I 62 W/m 14,4 C 18,6 C 16,1 km/h (3 Bft) 97,87 %
06.08.2016 18:16 19,7 C 71 % 1024,1 hPa 0,0 l/m 9,7 km/h (2 Bft) S 190 0 min 0,000 mm 0,5 UV-I 58 W/m 14,3 C 18,4 C 17,7 km/h (3 Bft) 98,00 %
06.08.2016 18:18 19,7 C 72 % 1024,1 hPa 0,0 l/m 7,1 km/h (2 Bft) SW 231 0 min 0,000 mm 0,0 UV-I 53 W/m 14,5 C 19,4 C 11,3 km/h (2 Bft) 96,23 %
06.08.2016 18:20 19,7 C 71 % 1024,1 hPa 0,0 l/m 10,7 km/h (2 Bft) S-SW 192 0 min 0,000 mm 0,0 UV-I 53 W/m 14,3 C 18,1 C 17,7 km/h (3 Bft) 95,45 %
06.08.2016 18:22 19,7 C 72 % 1024,1 hPa 0,0 l/m 9,6 km/h (2 Bft) SW 225 0 min 0,000 mm 0,0 UV-I 54 W/m 14,5 C 18,4 C 14,5 km/h (3 Bft) 95,45 %
06.08.2016 18:24 19,7 C 71 % 1024,1 hPa 0,0 l/m 11,7 km/h (2 Bft) SW 215 0 min 0,000 mm 0,0 UV-I 57 W/m 14,3 C 17,8 C 19,3 km/h (3 Bft) 98,00 %
06.08.2016 18:26 19,6 C 71 % 1024,1 hPa 0,0 l/m 10,5 km/h (2 Bft) S-SW 206 0 min 0,000 mm 0,0 UV-I 62 W/m 14,2 C 18,0 C 14,5 km/h (3 Bft) 97,87 %
06.08.2016 18:28 19,6 C 71 % 1024,1 hPa 0,0 l/m 7,1 km/h (2 Bft) S-SW 213 0 min 0,000 mm 0,0 UV-I 62 W/m 14,2 C 19,3 C 11,3 km/h (2 Bft) 97,87 %
06.08.2016 18:30 19,6 C 70 % 1024,1 hPa 0,0 l/m 8,1 km/h (2 Bft) S-SW 212 0 min 0,000 mm 0,0 UV-I 56 W/m 14,0 C 18,9 C 14,5 km/h (3 Bft) 97,56 %
06.08.2016 18:32 19,7 C 71 % 1024,1 hPa 0,0 l/m 7,1 km/h (2 Bft) SW 214 0 min 0,000 mm 0,0 UV-I 48 W/m 14,3 C 19,4 C 16,1 km/h (3 Bft) 100,00 %
06.08.2016 18:34 19,6 C 70 % 1024,1 hPa 0,0 l/m 8,5 km/h (2 Bft) SW 215 0 min 0,000 mm 0,0 UV-I 41 W/m 14,0 C 18,7 C 16,1 km/h (3 Bft) 97,37 %
06.08.2016 18:36 19,6 C 70 % 1024,0 hPa 0,0 l/m 11,5 km/h (2 Bft) SW 234 0 min 0,000 mm 0,0 UV-I 35 W/m 14,0 C 17,7 C 17,7 km/h (3 Bft) 98,21 %
06.08.2016 18:38 19,6 C 70 % 1024,0 hPa 0,0 l/m 8,9 km/h (2 Bft) S-SW 204 0 min 0,000 mm 0,0 UV-I 27 W/m 14,0 C 18,6 C 12,9 km/h (3 Bft) 100,00 %
06.08.2016 18:40 19,6 C 70 % 1024,0 hPa 0,0 l/m 11,8 km/h (2 Bft) S-SW 201 0 min 0,000 mm 0,0 UV-I 22 W/m 14,0 C 17,6 C 17,7 km/h (3 Bft) 100,00 %
06.08.2016 18:42 19,5 C 69 % 1024,0 hPa 0,0 l/m 9,1 km/h (2 Bft) S-SW 207 0 min 0,000 mm 0,0 UV-I 19 W/m 13,7 C 18,4 C 14,5 km/h (3 Bft) 100,00 %
06.08.2016 18:44 19,5 C 69 % 1024,0 hPa 0,0 l/m 7,9 km/h (2 Bft) W 269 0 min 0,000 mm 0,0 UV-I 19 W/m 13,7 C 18,9 C 12,9 km/h (3 Bft) 100,00 %
06.08.2016 18:46 19,4 C 70 % 1024,1 hPa 0,0 l/m 6,4 km/h (2 Bft) SW 233 0 min 0,000 mm 0,0 UV-I 19 W/m 13,8 C 19,4 C 11,3 km/h (2 Bft) 100,00 %
06.08.2016 18:48 19,4 C 71 % 1024,1 hPa 0,0 l/m 5,8 km/h (2 Bft) S-SW 212 0 min 0,000 mm 0,0 UV-I 21 W/m 14,0 C 19,4 C 9,7 km/h (2 Bft) 100,00 %
06.08.2016 18:50 19,4 C 71 % 1024,1 hPa 0,0 l/m 4,7 km/h (1 Bft) W-SW 257 0 min 0,000 mm 0,0 UV-I 19 W/m 14,0 C 19,4 C 8,0 km/h (2 Bft) 97,87 %
06.08.2016 18:52 19,3 C 72 % 1024,1 hPa 0,0 l/m 7,0 km/h (2 Bft) S-SW 208 0 min 0,000 mm 0,0 UV-I 18 W/m 14,1 C 19,0 C 11,3 km/h (2 Bft) 100,00 %
06.08.2016 18:54 19,3 C 73 % 1024,1 hPa 0,0 l/m 7,6 km/h (2 Bft) W-SW 243 0 min 0,000 mm 0,0 UV-I 16 W/m 14,3 C 18,8 C 12,9 km/h (3 Bft) 100,00 %
06.08.2016 18:56 19,3 C 72 % 1024,2 hPa 0,0 l/m 10,0 km/h (2 Bft) SW 225 0 min 0,000 mm 0,0 UV-I 14 W/m 14,1 C 17,9 C 14,5 km/h (3 Bft) 100,00 %
06.08.2016 18:58 19,3 C 72 % 1024,2 hPa 0,0 l/m 7,5 km/h (2 Bft) S-SW 200 0 min 0,000 mm 0,0 UV-I 12 W/m 14,1 C 18,8 C 12,9 km/h (3 Bft) 97,56 %
06.08.2016 19:00 19,2 C 72 % 1024,1 hPa 0,0 l/m 5,8 km/h (2 Bft) SW 221 0 min 0,076 mm 0,0 UV-I 12 W/m 14,0 C 19,2 C 9,7 km/h (2 Bft) 100,00 %
06.08.2016 19:02 19,2 C 72 % 1024,1 hPa 0,0 l/m 6,3 km/h (2 Bft) W-SW 246 0 min 0,000 mm 0,0 UV-I 11 W/m 14,0 C 19,2 C 9,7 km/h (2 Bft) 100,00 %
06.08.2016 19:04 19,2 C 72 % 1024,2 hPa 0,0 l/m 5,7 km/h (1 Bft) SW 225 0 min 0,000 mm 0,0 UV-I 10 W/m 14,0 C 19,2 C 8,0 km/h (2 Bft) 97,14 %
06.08.2016 19:06 19,2 C 73 % 1024,2 hPa 0,0 l/m 5,1 km/h (1 Bft) W-SW 246 0 min 0,000 mm 0,0 UV-I 8 W/m 14,2 C 19,2 C 9,7 km/h (2 Bft) 100,00 %
06.08.2016 19:08 19,2 C 73 % 1024,2 hPa 0,0 l/m 6,4 km/h (2 Bft) W-SW 244 0 min 0,000 mm 0,0 UV-I 7 W/m 14,2 C 19,2 C 14,5 km/h (3 Bft) 97,37 %
06.08.2016 19:10 19,1 C 75 % 1024,2 hPa 0,0 l/m 5,9 km/h (2 Bft) SW 219 0 min 0,000 mm 0,0 UV-I 7 W/m 14,6 C 19,1 C 12,9 km/h (3 Bft) 100,00 %
06.08.2016 19:12 19,1 C 76 % 1024,2 hPa 0,2 l/m 8,0 km/h (2 Bft) W-SW 237 0 min 0,000 mm 0,0 UV-I 7 W/m 14,8 C 18,4 C 12,9 km/h (3 Bft) 100,00 %
06.08.2016 19:14 18,9 C 77 % 1024,3 hPa 0,0 l/m 8,2 km/h (2 Bft) SW 224 0 min 0,000 mm 0,0 UV-I 9 W/m 14,8 C 18,1 C 12,9 km/h (3 Bft) 98,00 %
06.08.2016 19:16 18,8 C 77 % 1024,3 hPa 0,0 l/m 5,5 km/h (1 Bft) SW 228 0 min 0,000 mm 0,0 UV-I 9 W/m 14,7 C 18,8 C 8,0 km/h (2 Bft) 100,00 %
06.08.2016 19:18 18,7 C 79 % 1024,3 hPa 0,2 l/m 5,0 km/h (1 Bft) W-SW 254 0 min 0,000 mm 0,0 UV-I 9 W/m 15,0 C 18,7 C 6,4 km/h (2 Bft) 100,00 %
06.08.2016 19:20 18,5 C 80 % 1024,3 hPa 0,0 l/m 5,5 km/h (1 Bft) W-SW 249 0 min 0,000 mm 0,0 UV-I 8 W/m 15,0 C 18,5 C 11,3 km/h (2 Bft) 100,00 %
06.08.2016 19:22 18,4 C 80 % 1024,3 hPa 0,0 l/m 5,7 km/h (1 Bft) S-SW 206 0 min 0,000 mm 0,0 UV-I 10 W/m 14,9 C 18,4 C 12,9 km/h (3 Bft) 100,00 %
06.08.2016 19:24 18,3 C 82 % 1024,3 hPa 0,0 l/m 7,1 km/h (2 Bft) SW 220 0 min 0,000 mm 0,0 UV-I 11 W/m 15,2 C 18,0 C 11,3 km/h (2 Bft) 97,56 %
06.08.2016 19:26 18,2 C 82 % 1024,4 hPa 0,0 l/m 6,6 km/h (2 Bft) SW 227 0 min 0,000 mm 0,0 UV-I 11 W/m 15,1 C 18,1 C 11,3 km/h (2 Bft) 96,00 %
06.08.2016 19:28 18,1 C 82 % 1024,4 hPa 0,0 l/m 5,9 km/h (2 Bft) SW 217 0 min 0,000 mm 0,0 UV-I 11 W/m 15,0 C 18,1 C 9,7 km/h (2 Bft) 100,00 %
06.08.2016 19:30 18,1 C 82 % 1024,4 hPa 0,0 l/m 5,7 km/h (1 Bft) SW 224 0 min 0,000 mm 0,0 UV-I 13 W/m 15,0 C 18,1 C 8,0 km/h (2 Bft) 100,00 %
06.08.2016 19:32 18,1 C 82 % 1024,4 hPa 0,0 l/m 5,2 km/h (1 Bft) SW 220 0 min 0,000 mm 0,0 UV-I 16 W/m 15,0 C 18,1 C 8,0 km/h (2 Bft) 100,00 %
06.08.2016 19:34 18,1 C 83 % 1024,4 hPa 0,0 l/m 5,3 km/h (1 Bft) SW 218 0 min 0,000 mm 0,0 UV-I 18 W/m 15,2 C 18,1 C 6,4 km/h (2 Bft) 100,00 %
06.08.2016 19:36 18,1 C 83 % 1024,4 hPa 0,0 l/m 4,1 km/h (1 Bft) SW 217 0 min 0,000 mm 0,0 UV-I 18 W/m 15,2 C 18,1 C 6,4 km/h (2 Bft) 97,56 %
06.08.2016 19:38 18,1 C 83 % 1024,4 hPa 0,0 l/m 4,3 km/h (1 Bft) SW 217 0 min 0,000 mm 0,0 UV-I 18 W/m 15,2 C 18,1 C 6,4 km/h (2 Bft) 100,00 %
06.08.2016 19:40 18,1 C 83 % 1024,4 hPa 0,0 l/m 4,8 km/h (1 Bft) S-SW 209 0 min 0,000 mm 0,0 UV-I 19 W/m 15,2 C 18,1 C 6,4 km/h (2 Bft) 98,00 %
06.08.2016 19:42 18,1 C 83 % 1024,4 hPa 0,0 l/m 4,1 km/h (1 Bft) S-SW 209 0 min 0,000 mm 0,0 UV-I 24 W/m 15,2 C 18,1 C 6,4 km/h (2 Bft) 100,00 %
06.08.2016 19:44 18,1 C 83 % 1024,4 hPa 0,0 l/m 5,4 km/h (1 Bft) SW 214 0 min 0,000 mm 0,0 UV-I 26 W/m 15,2 C 18,1 C 8,0 km/h (2 Bft) 100,00 %
06.08.2016 19:46 18,2 C 82 % 1024,4 hPa 0,0 l/m 5,2 km/h (1 Bft) W-SW 238 0 min 0,000 mm 0,0 UV-I 26 W/m 15,1 C 18,2 C 6,4 km/h (2 Bft) 100,00 %
06.08.2016 19:48 18,2 C 82 % 1024,5 hPa 0,0 l/m 6,0 km/h (2 Bft) SW 230 0 min 0,000 mm 0,0 UV-I 26 W/m 15,1 C 18,2 C 11,3 km/h (2 Bft) 97,56 %
06.08.2016 19:50 18,2 C 82 % 1024,6 hPa 0,0 l/m 6,9 km/h (2 Bft) SW 225 0 min 0,000 mm 0,0 UV-I 23 W/m 15,1 C 18,0 C 11,3 km/h (2 Bft) 100,00 %
06.08.2016 19:52 18,2 C 82 % 1024,6 hPa 0,0 l/m 6,1 km/h (2 Bft) W-SW 245 0 min 0,000 mm 0,0 UV-I 21 W/m 15,1 C 18,2 C 8,0 km/h (2 Bft) 100,00 %
06.08.2016 19:54 18,2 C 83 % 1024,6 hPa 0,0 l/m 6,3 km/h (2 Bft) W-SW 247 0 min 0,000 mm 0,0 UV-I 21 W/m 15,3 C 18,2 C 9,7 km/h (2 Bft) 100,00 %
06.08.2016 19:56 18,2 C 83 % 1024,7 hPa 0,0 l/m 5,4 km/h (1 Bft) W-SW 239 0 min 0,000 mm 0,0 UV-I 23 W/m 15,3 C 18,2 C 8,0 km/h (2 Bft) 98,00 %
06.08.2016 19:58 18,2 C 83 % 1024,8 hPa 0,0 l/m 5,0 km/h (1 Bft) SW 232 0 min 0,000 mm 0,0 UV-I 21 W/m 15,3 C 18,2 C 6,4 km/h (2 Bft) 97,87 %
06.08.2016 20:00 18,2 C 83 % 1024,8 hPa 0,0 l/m 4,3 km/h (1 Bft) S-SW 211 0 min 0,000 mm 0,0 UV-I 20 W/m 15,3 C 18,2 C 8,0 km/h (2 Bft) 98,00 %
06.08.2016 20:02 18,2 C 82 % 1024,8 hPa 0,0 l/m 6,3 km/h (2 Bft) S-SW 212 0 min 0,025 mm 0,0 UV-I 19 W/m 15,1 C 18,2 C 9,7 km/h (2 Bft) 97,37 %
06.08.2016 20:04 18,2 C 82 % 1024,8 hPa 0,0 l/m 5,5 km/h (1 Bft) SW 223 0 min 0,000 mm 0,0 UV-I 19 W/m 15,1 C 18,2 C 8,0 km/h (2 Bft) 95,45 %
06.08.2016 20:06 18,2 C 82 % 1024,9 hPa 0,0 l/m 5,0 km/h (1 Bft) SW 222 0 min 0,000 mm 0,0 UV-I 19 W/m 15,1 C 18,2 C 8,0 km/h (2 Bft) 96,23 %
06.08.2016 20:08 18,2 C 82 % 1024,9 hPa 0,0 l/m 6,1 km/h (2 Bft) S-SW 211 0 min 0,000 mm 0,0 UV-I 17 W/m 15,1 C 18,2 C 9,7 km/h (2 Bft) 98,11 %
06.08.2016 20:10 18,2 C 81 % 1024,9 hPa 0,0 l/m 7,3 km/h (2 Bft) SW 216 0 min 0,000 mm 0,0 UV-I 16 W/m 14,9 C 17,8 C 12,9 km/h (3 Bft) 94,74 %
06.08.2016 20:12 18,2 C 81 % 1024,9 hPa 0,0 l/m 6,0 km/h (2 Bft) S-SW 207 0 min 0,000 mm 0,0 UV-I 15 W/m 14,9 C 18,2 C 9,7 km/h (2 Bft) 96,23 %
06.08.2016 20:14 18,2 C 81 % 1024,9 hPa 0,0 l/m 6,7 km/h (2 Bft) SW 234 0 min 0,000 mm 0,0 UV-I 13 W/m 14,9 C 18,1 C 8,0 km/h (2 Bft) 95,74 %
06.08.2016 20:16 18,2 C 81 % 1024,9 hPa 0,0 l/m 6,8 km/h (2 Bft) W-SW 239 0 min 0,000 mm 0,0 UV-I 12 W/m 14,9 C 18,0 C 9,7 km/h (2 Bft) 97,73 %
06.08.2016 20:18 18,2 C 82 % 1024,9 hPa 0,0 l/m 7,0 km/h (2 Bft) S-SW 211 0 min 0,000 mm 0,0 UV-I 10 W/m 15,1 C 17,9 C 9,7 km/h (2 Bft) 96,30 %
06.08.2016 20:20 18,1 C 82 % 1025,0 hPa 0,0 l/m 5,4 km/h (1 Bft) S-SW 206 0 min 0,000 mm 0,0 UV-I 8 W/m 15,0 C 18,1 C 8,0 km/h (2 Bft) 95,65 %
06.08.2016 20:22 18,1 C 81 % 1025,0 hPa 0,0 l/m 6,5 km/h (2 Bft) SW 222 0 min 0,000 mm 0,0 UV-I 5 W/m 14,8 C 18,1 C 9,7 km/h (2 Bft) 98,11 %
06.08.2016 20:24 18,1 C 81 % 1025,0 hPa 0,0 l/m 5,1 km/h (1 Bft) SW 232 0 min 0,000 mm 0,0 UV-I 5 W/m 14,8 C 18,1 C 9,7 km/h (2 Bft) 97,87 %
06.08.2016 20:26 18,1 C 81 % 1025,0 hPa 0,0 l/m 5,5 km/h (1 Bft) S-SW 202 0 min 0,000 mm 0,0 UV-I 2 W/m 14,8 C 18,1 C 8,0 km/h (2 Bft) 97,14 %
06.08.2016 20:28 18,0 C 81 % 1025,0 hPa 0,0 l/m 5,3 km/h (1 Bft) SW 227 0 min 0,000 mm 0,0 UV-I 0 W/m 14,7 C 18,0 C 6,4 km/h (2 Bft) 97,87 %
06.08.2016 20:30 18,0 C 81 % 1025,0 hPa 0,0 l/m 6,9 km/h (2 Bft) W-SW 240 0 min 0,000 mm 0,0 UV-I 0 W/m 14,7 C 17,8 C 9,7 km/h (2 Bft) 96,15 %
06.08.2016 20:32 17,9 C 82 % 1025,1 hPa 0,0 l/m 5,1 km/h (1 Bft) SW 227 0 min 0,000 mm 0,0 UV-I 0 W/m 14,8 C 17,9 C 8,0 km/h (2 Bft) 100,00 %
06.08.2016 20:34 17,9 C 80 % 1025,1 hPa 0,0 l/m 5,6 km/h (1 Bft) S-SW 196 0 min 0,000 mm 0,0 UV-I 0 W/m 14,4 C 17,9 C 9,7 km/h (2 Bft) 100,00 %
06.08.2016 20:36 17,9 C 81 % 1025,1 hPa 0,0 l/m 6,7 km/h (2 Bft) S-SW 213 0 min 0,000 mm 0,0 UV-I 0 W/m 14,6 C 17,8 C 9,7 km/h (2 Bft) 100,00 %
06.08.2016 20:38 17,9 C 80 % 1025,1 hPa 0,0 l/m 6,4 km/h (2 Bft) SW 216 0 min 0,000 mm 0,0 UV-I 0 W/m 14,4 C 17,9 C 9,7 km/h (2 Bft) 94,00 %
06.08.2016 20:40 17,9 C 80 % 1025,2 hPa 0,0 l/m 6,0 km/h (2 Bft) S-SW 202 0 min 0,000 mm 0,0 UV-I 0 W/m 14,4 C 17,9 C 11,3 km/h (2 Bft) 100,00 %
06.08.2016 20:42 17,9 C 79 % 1025,1 hPa 0,0 l/m 6,5 km/h (2 Bft) W-SW 252 0 min 0,000 mm 0,0 UV-I 0 W/m 14,2 C 17,9 C 11,3 km/h (2 Bft) 97,87 %
06.08.2016 20:44 17,9 C 79 % 1025,1 hPa 0,0 l/m 6,0 km/h (2 Bft) SW 217 0 min 0,000 mm 0,0 UV-I 0 W/m 14,2 C 17,9 C 8,0 km/h (2 Bft) 100,00 %
06.08.2016 20:46 17,9 C 80 % 1025,2 hPa 0,0 l/m 6,4 km/h (2 Bft) SW 232 0 min 0,000 mm 0,0 UV-I 0 W/m 14,4 C 17,9 C 9,7 km/h (2 Bft) 100,00 %
06.08.2016 20:48 17,9 C 79 % 1025,2 hPa 0,0 l/m 6,4 km/h (2 Bft) S-SW 199 0 min 0,000 mm 0,0 UV-I 0 W/m 14,2 C 17,9 C 9,7 km/h (2 Bft) 98,11 %
06.08.2016 20:50 17,9 C 79 % 1025,2 hPa 0,0 l/m 5,5 km/h (1 Bft) S-SW 195 0 min 0,000 mm 0,0 UV-I 0 W/m 14,2 C 17,9 C 8,0 km/h (2 Bft) 100,00 %
06.08.2016 20:52 17,9 C 79 % 1025,2 hPa 0,0 l/m 6,2 km/h (2 Bft) S-SW 203 0 min 0,000 mm 0,0 UV-I 0 W/m 14,2 C 17,9 C 9,7 km/h (2 Bft) 100,00 %
06.08.2016 20:54 17,9 C 79 % 1025,3 hPa 0,0 l/m 5,1 km/h (1 Bft) S-SW 196 0 min 0,000 mm 0,0 UV-I 0 W/m 14,2 C 17,9 C 6,4 km/h (2 Bft) 100,00 %
06.08.2016 20:56 17,9 C 80 % 1025,3 hPa 0,0 l/m 5,0 km/h (1 Bft) SW 218 0 min 0,000 mm 0,0 UV-I 0 W/m 14,4 C 17,9 C 6,4 km/h (2 Bft) 100,00 %
06.08.2016 20:58 17,9 C 80 % 1025,3 hPa 0,0 l/m 5,9 km/h (2 Bft) S-SW 204 0 min 0,000 mm 0,0 UV-I 0 W/m 14,4 C 17,9 C 8,0 km/h (2 Bft) 100,00 %
06.08.2016 21:00 17,9 C 80 % 1025,4 hPa 0,0 l/m 5,1 km/h (1 Bft) S 186 0 min 0,026 mm 0,0 UV-I 0 W/m 14,4 C 17,9 C 8,0 km/h (2 Bft) 100,00 %
06.08.2016 21:02 17,9 C 80 % 1025,4 hPa 0,0 l/m 4,0 km/h (1 Bft) S 187 0 min 0,000 mm 0,0 UV-I 0 W/m 14,4 C 17,9 C 6,4 km/h (2 Bft) 100,00 %
06.08.2016 21:04 17,8 C 80 % 1025,4 hPa 0,0 l/m 5,4 km/h (1 Bft) S-SW 196 0 min 0,000 mm 0,0 UV-I 0 W/m 14,3 C 17,8 C 11,3 km/h (2 Bft) 100,00 %
06.08.2016 21:06 17,8 C 80 % 1025,4 hPa 0,0 l/m 4,5 km/h (1 Bft) SW 221 0 min 0,000 mm 0,0 UV-I 0 W/m 14,3 C 17,8 C 8,0 km/h (2 Bft) 100,00 %
06.08.2016 21:08 17,8 C 80 % 1025,4 hPa 0,0 l/m 5,7 km/h (1 Bft) S-SW 198 0 min 0,000 mm 0,0 UV-I 0 W/m 14,3 C 17,8 C 8,0 km/h (2 Bft) 100,00 %
06.08.2016 21:10 17,8 C 79 % 1025,5 hPa 0,0 l/m 4,8 km/h (1 Bft) SW 215 0 min 0,000 mm 0,0 UV-I 0 W/m 14,1 C 17,8 C 6,4 km/h (2 Bft) 100,00 %
06.08.2016 21:12 17,8 C 80 % 1025,5 hPa 0,0 l/m 6,1 km/h (2 Bft) S 178 0 min 0,000 mm 0,0 UV-I 0 W/m 14,3 C 17,8 C 11,3 km/h (2 Bft) 100,00 %
06.08.2016 21:14 17,8 C 80 % 1025,5 hPa 0,0 l/m 6,5 km/h (2 Bft) S 175 0 min 0,000 mm 0,0 UV-I 0 W/m 14,3 C 17,8 C 9,7 km/h (2 Bft) 100,00 %
06.08.2016 21:16 17,8 C 80 % 1025,6 hPa 0,0 l/m 6,6 km/h (2 Bft) S-SW 198 0 min 0,000 mm 0,0 UV-I 0 W/m 14,3 C 17,7 C 9,7 km/h (2 Bft) 98,36 %
06.08.2016 21:18 17,7 C 80 % 1025,6 hPa 0,0 l/m 5,1 km/h (1 Bft) S-SW 210 0 min 0,000 mm 0,0 UV-I 0 W/m 14,2 C 17,7 C 6,4 km/h (2 Bft) 100,00 %
06.08.2016 21:20 17,7 C 80 % 1025,6 hPa 0,0 l/m 5,0 km/h (1 Bft) SW 231 0 min 0,000 mm 0,0 UV-I 0 W/m 14,2 C 17,7 C 8,0 km/h (2 Bft) 100,00 %
06.08.2016 21:22 17,7 C 80 % 1025,6 hPa 0,0 l/m 5,1 km/h (1 Bft) SW 234 0 min 0,000 mm 0,0 UV-I 0 W/m 14,2 C 17,7 C 8,0 km/h (2 Bft) 100,00 %
06.08.2016 21:24 17,7 C 81 % 1025,7 hPa 0,0 l/m 5,9 km/h (2 Bft) W-SW 240 0 min 0,000 mm 0,0 UV-I 0 W/m 14,4 C 17,7 C 8,0 km/h (2 Bft) 97,87 %
06.08.2016 21:26 17,6 C 81 % 1025,7 hPa 0,0 l/m 6,5 km/h (2 Bft) SW 220 0 min 0,000 mm 0,0 UV-I 0 W/m 14,3 C 17,6 C 9,7 km/h (2 Bft) 100,00 %
06.08.2016 21:28 17,5 C 81 % 1025,7 hPa 0,0 l/m 5,2 km/h (1 Bft) S-SW 193 0 min 0,000 mm 0,0 UV-I 0 W/m 14,2 C 17,5 C 9,7 km/h (2 Bft) 100,00 %
06.08.2016 21:30 17,5 C 82 % 1025,7 hPa 0,0 l/m 6,6 km/h (2 Bft) S-SW 204 0 min 0,000 mm 0,0 UV-I 0 W/m 14,4 C 17,4 C 12,9 km/h (3 Bft) 100,00 %
06.08.2016 21:32 17,4 C 82 % 1025,7 hPa 0,0 l/m 5,9 km/h (2 Bft) W-SW 246 0 min 0,000 mm 0,0 UV-I 0 W/m 14,3 C 17,4 C 8,0 km/h (2 Bft) 97,56 %
06.08.2016 21:34 17,4 C 82 % 1025,8 hPa 0,0 l/m 8,5 km/h (2 Bft) W-SW 240 0 min 0,000 mm 0,0 UV-I 0 W/m 14,3 C 16,4 C 11,3 km/h (2 Bft) 100,00 %
06.08.2016 21:36 17,4 C 82 % 1025,8 hPa 0,0 l/m 8,9 km/h (2 Bft) SW 224 0 min 0,000 mm 0,0 UV-I 0 W/m 14,3 C 16,2 C 14,5 km/h (3 Bft) 100,00 %
06.08.2016 21:38 17,4 C 82 % 1025,8 hPa 0,0 l/m 9,4 km/h (2 Bft) SW 234 0 min 0,000 mm 0,0 UV-I 0 W/m 14,3 C 16,0 C 16,1 km/h (3 Bft) 100,00 %
06.08.2016 21:40 17,4 C 82 % 1025,8 hPa 0,0 l/m 9,9 km/h (2 Bft) S-SW 204 0 min 0,000 mm 0,0 UV-I 0 W/m 14,3 C 15,8 C 14,5 km/h (3 Bft) 100,00 %
06.08.2016 21:42 17,3 C 82 % 1025,9 hPa 0,0 l/m 12,2 km/h (2 Bft) SW 227 0 min 0,000 mm 0,0 UV-I 0 W/m 14,2 C 14,9 C 17,7 km/h (3 Bft) 97,87 %
06.08.2016 21:44 17,3 C 82 % 1025,9 hPa 0,0 l/m 9,8 km/h (2 Bft) SW 234 0 min 0,000 mm 0,0 UV-I 0 W/m 14,2 C 15,7 C 16,1 km/h (3 Bft) 100,00 %
06.08.2016 21:46 17,3 C 82 % 1025,9 hPa 0,0 l/m 12,0 km/h (2 Bft) SW 233 0 min 0,000 mm 0,0 UV-I 0 W/m 14,2 C 14,9 C 19,3 km/h (3 Bft) 100,00 %
06.08.2016 21:48 17,3 C 82 % 1025,9 hPa 0,0 l/m 11,1 km/h (2 Bft) SW 224 0 min 0,000 mm 0,0 UV-I 0 W/m 14,2 C 15,2 C 17,7 km/h (3 Bft) 100,00 %
06.08.2016 21:50 17,3 C 83 % 1025,9 hPa 0,0 l/m 9,8 km/h (2 Bft) SW 222 0 min 0,000 mm 0,0 UV-I 0 W/m 14,4 C 15,7 C 14,5 km/h (3 Bft) 97,87 %
06.08.2016 21:52 17,3 C 83 % 1025,9 hPa 0,0 l/m 9,7 km/h (2 Bft) SW 232 0 min 0,000 mm 0,0 UV-I 0 W/m 14,4 C 15,8 C 12,9 km/h (3 Bft) 100,00 %
06.08.2016 21:54 17,2 C 83 % 1025,9 hPa 0,0 l/m 9,2 km/h (2 Bft) SW 222 0 min 0,000 mm 0,0 UV-I 0 W/m 14,3 C 15,9 C 16,1 km/h (3 Bft) 100,00 %
06.08.2016 21:56 17,2 C 83 % 1025,9 hPa 0,0 l/m 10,1 km/h (2 Bft) SW 232 0 min 0,000 mm 0,0 UV-I 0 W/m 14,3 C 15,5 C 16,1 km/h (3 Bft) 97,92 %
06.08.2016 21:58 17,1 C 83 % 1026,0 hPa 0,0 l/m 12,4 km/h (3 Bft) SW 233 0 min 0,000 mm 0,0 UV-I 0 W/m 14,2 C 14,6 C 19,3 km/h (3 Bft) 97,56 %
06.08.2016 22:00 17,1 C 83 % 1026,0 hPa 0,0 l/m 12,1 km/h (2 Bft) W-SW 245 0 min 0,000 mm 0,0 UV-I 0 W/m 14,2 C 14,7 C 19,3 km/h (3 Bft) 98,11 %
06.08.2016 22:02 17,1 C 83 % 1026,1 hPa 0,0 l/m 12,4 km/h (3 Bft) W-SW 247 0 min 0,025 mm 0,0 UV-I 0 W/m 14,2 C 14,6 C 17,7 km/h (3 Bft) 95,12 %
06.08.2016 22:04 17,0 C 83 % 1026,1 hPa 0,0 l/m 10,4 km/h (2 Bft) SW 223 0 min 0,000 mm 0,0 UV-I 0 W/m 14,1 C 15,2 C 16,1 km/h (3 Bft) 98,00 %
06.08.2016 22:06 17,0 C 83 % 1026,1 hPa 0,0 l/m 11,4 km/h (2 Bft) SW 217 0 min 0,000 mm 0,0 UV-I 0 W/m 14,1 C 14,8 C 17,7 km/h (3 Bft) 95,74 %
06.08.2016 22:08 16,9 C 83 % 1026,1 hPa 0,0 l/m 10,5 km/h (2 Bft) SW 234 0 min 0,000 mm 0,0 UV-I 0 W/m 14,0 C 15,0 C 14,5 km/h (3 Bft) 98,00 %
06.08.2016 22:10 16,8 C 84 % 1026,1 hPa 0,0 l/m 11,9 km/h (2 Bft) SW 233 0 min 0,000 mm 0,0 UV-I 0 W/m 14,1 C 14,4 C 17,7 km/h (3 Bft) 98,00 %
06.08.2016 22:12 16,8 C 84 % 1026,1 hPa 0,0 l/m 10,2 km/h (2 Bft) SW 217 0 min 0,000 mm 0,0 UV-I 0 W/m 14,1 C 15,0 C 16,1 km/h (3 Bft) 97,14 %
06.08.2016 22:14 16,7 C 84 % 1026,0 hPa 0,0 l/m 11,2 km/h (2 Bft) SW 234 0 min 0,000 mm 0,0 UV-I 0 W/m 14,0 C 14,5 C 14,5 km/h (3 Bft) 98,00 %
06.08.2016 22:16 16,7 C 84 % 1026,1 hPa 0,0 l/m 8,5 km/h (2 Bft) SW 227 0 min 0,000 mm 0,0 UV-I 0 W/m 14,0 C 15,6 C 14,5 km/h (3 Bft) 96,43 %
06.08.2016 22:18 16,7 C 84 % 1026,1 hPa 0,0 l/m 10,3 km/h (2 Bft) S-SW 208 0 min 0,000 mm 0,0 UV-I 0 W/m 14,0 C 14,9 C 14,5 km/h (3 Bft) 97,56 %
06.08.2016 22:20 16,6 C 84 % 1026,1 hPa 0,0 l/m 10,1 km/h (2 Bft) SW 219 0 min 0,000 mm 0,0 UV-I 0 W/m 13,9 C 14,8 C 12,9 km/h (3 Bft) 96,00 %
06.08.2016 22:22 16,6 C 84 % 1026,1 hPa 0,0 l/m 8,3 km/h (2 Bft) W-SW 246 0 min 0,000 mm 0,0 UV-I 0 W/m 13,9 C 15,6 C 14,5 km/h (3 Bft) 100,00 %
06.08.2016 22:24 16,6 C 85 % 1026,1 hPa 0,0 l/m 7,5 km/h (2 Bft) SW 227 0 min 0,000 mm 0,0 UV-I 0 W/m 14,1 C 16,0 C 11,3 km/h (2 Bft) 95,74 %
06.08.2016 22:26 16,4 C 85 % 1026,0 hPa 0,0 l/m 9,0 km/h (2 Bft) SW 217 0 min 0,000 mm 0,0 UV-I 0 W/m 13,9 C 15,1 C 12,9 km/h (3 Bft) 98,11 %
06.08.2016 22:28 16,4 C 85 % 1026,0 hPa 0,0 l/m 9,7 km/h (2 Bft) W-SW 239 0 min 0,000 mm 0,0 UV-I 0 W/m 13,9 C 14,8 C 16,1 km/h (3 Bft) 97,56 %
06.08.2016 22:30 16,3 C 85 % 1026,1 hPa 0,0 l/m 9,0 km/h (2 Bft) SW 221 0 min 0,000 mm 0,0 UV-I 0 W/m 13,8 C 15,0 C 12,9 km/h (3 Bft) 98,00 %
06.08.2016 22:32 16,3 C 85 % 1026,1 hPa 0,0 l/m 9,4 km/h (2 Bft) SW 221 0 min 0,000 mm 0,0 UV-I 0 W/m 13,8 C 14,8 C 16,1 km/h (3 Bft) 100,00 %
06.08.2016 22:34 16,2 C 85 % 1026,1 hPa 0,0 l/m 8,9 km/h (2 Bft) SW 236 0 min 0,000 mm 0,0 UV-I 0 W/m 13,7 C 14,9 C 12,9 km/h (3 Bft) 100,00 %
06.08.2016 22:36 16,2 C 85 % 1026,1 hPa 0,0 l/m 10,0 km/h (2 Bft) SW 230 0 min 0,000 mm 0,0 UV-I 0 W/m 13,7 C 14,4 C 16,1 km/h (3 Bft) 95,45 %
06.08.2016 22:38 16,2 C 86 % 1026,1 hPa 0,0 l/m 9,3 km/h (2 Bft) SW 216 0 min 0,000 mm 0,0 UV-I 0 W/m 13,9 C 14,7 C 12,9 km/h (3 Bft) 100,00 %
06.08.2016 22:40 16,2 C 86 % 1026,0 hPa 0,0 l/m 9,1 km/h (2 Bft) SW 222 0 min 0,000 mm 0,0 UV-I 0 W/m 13,9 C 14,8 C 14,5 km/h (3 Bft) 97,56 %
06.08.2016 22:42 16,2 C 86 % 1026,1 hPa 0,0 l/m 9,0 km/h (2 Bft) SW 221 0 min 0,000 mm 0,0 UV-I 0 W/m 13,9 C 14,9 C 12,9 km/h (3 Bft) 100,00 %
06.08.2016 22:44 16,1 C 86 % 1026,1 hPa 0,0 l/m 8,4 km/h (2 Bft) W-SW 237 0 min 0,000 mm 0,0 UV-I 0 W/m 13,8 C 15,1 C 12,9 km/h (3 Bft) 98,00 %
06.08.2016 22:46 16,1 C 86 % 1026,1 hPa 0,0 l/m 8,6 km/h (2 Bft) SW 228 0 min 0,000 mm 0,0 UV-I 0 W/m 13,8 C 15,0 C 12,9 km/h (3 Bft) 100,00 %
06.08.2016 22:48 16,1 C 86 % 1026,1 hPa 0,0 l/m 11,0 km/h (2 Bft) SW 227 0 min 0,000 mm 0,0 UV-I 0 W/m 13,8 C 13,9 C 16,1 km/h (3 Bft) 98,00 %
06.08.2016 22:50 16,1 C 86 % 1026,1 hPa 0,0 l/m 9,0 km/h (2 Bft) SW 224 0 min 0,000 mm 0,0 UV-I 0 W/m 13,8 C 14,8 C 14,5 km/h (3 Bft) 100,00 %
06.08.2016 22:52 16,0 C 86 % 1026,1 hPa 0,0 l/m 7,6 km/h (2 Bft) W-SW 248 0 min 0,000 mm 0,0 UV-I 0 W/m 13,7 C 15,4 C 12,9 km/h (3 Bft) 100,00 %
06.08.2016 22:54 16,1 C 86 % 1026,0 hPa 0,0 l/m 6,8 km/h (2 Bft) W-SW 245 0 min 0,000 mm 0,0 UV-I 0 W/m 13,8 C 15,9 C 11,3 km/h (2 Bft) 97,87 %
06.08.2016 22:56 16,1 C 86 % 1026,0 hPa 0,0 l/m 7,4 km/h (2 Bft) SW 229 0 min 0,000 mm 0,0 UV-I 0 W/m 13,8 C 15,6 C 12,9 km/h (3 Bft) 98,00 %
06.08.2016 22:58 16,1 C 86 % 1026,1 hPa 0,0 l/m 7,0 km/h (2 Bft) S-SW 198 0 min 0,000 mm 0,0 UV-I 0 W/m 13,8 C 15,8 C 14,5 km/h (3 Bft) 100,00 %
06.08.2016 23:00 16,2 C 85 % 1026,1 hPa 0,0 l/m 7,0 km/h (2 Bft) S-SW 210 0 min 0,025 mm 0,0 UV-I 0 W/m 13,7 C 15,9 C 11,3 km/h (2 Bft) 98,00 %
06.08.2016 23:02 16,2 C 85 % 1026,1 hPa 0,0 l/m 7,6 km/h (2 Bft) W-SW 245 0 min 0,000 mm 0,0 UV-I 0 W/m 13,7 C 15,6 C 11,3 km/h (2 Bft) 100,00 %
06.08.2016 23:04 16,2 C 85 % 1026,1 hPa 0,0 l/m 7,5 km/h (2 Bft) W-SW 246 0 min 0,000 mm 0,0 UV-I 0 W/m 13,7 C 15,6 C 12,9 km/h (3 Bft) 100,00 %
06.08.2016 23:06 16,2 C 85 % 1026,1 hPa 0,0 l/m 8,4 km/h (2 Bft) SW 223 0 min 0,000 mm 0,0 UV-I 0 W/m 13,7 C 15,2 C 14,5 km/h (3 Bft) 100,00 %
06.08.2016 23:08 16,2 C 86 % 1026,1 hPa 0,0 l/m 9,1 km/h (2 Bft) S-SW 209 0 min 0,000 mm 0,0 UV-I 0 W/m 13,9 C 14,8 C 12,9 km/h (3 Bft) 98,00 %
06.08.2016 23:10 16,2 C 85 % 1026,1 hPa 0,0 l/m 8,7 km/h (2 Bft) S 171 0 min 0,000 mm 0,0 UV-I 0 W/m 13,7 C 15,0 C 11,3 km/h (2 Bft) 97,44 %
06.08.2016 23:12 16,2 C 85 % 1026,1 hPa 0,0 l/m 7,5 km/h (2 Bft) W-SW 240 0 min 0,000 mm 0,0 UV-I 0 W/m 13,7 C 15,6 C 12,9 km/h (3 Bft) 100,00 %
06.08.2016 23:14 16,3 C 85 % 1026,1 hPa 0,0 l/m 8,6 km/h (2 Bft) SW 229 0 min 0,000 mm 0,0 UV-I 0 W/m 13,8 C 15,2 C 14,5 km/h (3 Bft) 100,00 %
06.08.2016 23:16 16,3 C 85 % 1026,1 hPa 0,0 l/m 8,2 km/h (2 Bft) W-SW 240 0 min 0,000 mm 0,0 UV-I 0 W/m 13,8 C 15,4 C 12,9 km/h (3 Bft) 100,00 %
06.08.2016 23:18 16,3 C 85 % 1026,2 hPa 0,0 l/m 10,6 km/h (2 Bft) W-SW 246 0 min 0,000 mm 0,0 UV-I 0 W/m 13,8 C 14,3 C 14,5 km/h (3 Bft) 100,00 %
06.08.2016 23:20 16,3 C 85 % 1026,2 hPa 0,0 l/m 10,4 km/h (2 Bft) W-SW 237 0 min 0,000 mm 0,0 UV-I 0 W/m 13,8 C 14,4 C 14,5 km/h (3 Bft) 97,37 %
06.08.2016 23:22 16,3 C 85 % 1026,2 hPa 0,0 l/m 10,3 km/h (2 Bft) SW 236 0 min 0,000 mm 0,0 UV-I 0 W/m 13,8 C 14,4 C 12,9 km/h (3 Bft) 100,00 %
06.08.2016 23:24 16,4 C 85 % 1026,2 hPa 0,0 l/m 8,3 km/h (2 Bft) SW 217 0 min 0,000 mm 0,0 UV-I 0 W/m 13,9 C 15,4 C 14,5 km/h (3 Bft) 97,56 %
06.08.2016 23:26 16,4 C 85 % 1026,3 hPa 0,0 l/m 8,6 km/h (2 Bft) S 190 0 min 0,000 mm 0,0 UV-I 0 W/m 13,9 C 15,3 C 14,5 km/h (3 Bft) 98,11 %
06.08.2016 23:28 16,4 C 85 % 1026,2 hPa 0,0 l/m 9,0 km/h (2 Bft) W-SW 246 0 min 0,000 mm 0,0 UV-I 0 W/m 13,9 C 15,1 C 14,5 km/h (3 Bft) 100,00 %
06.08.2016 23:30 16,4 C 85 % 1026,3 hPa 0,0 l/m 8,6 km/h (2 Bft) S-SW 196 0 min 0,000 mm 0,0 UV-I 0 W/m 13,9 C 15,3 C 14,5 km/h (3 Bft) 100,00 %
06.08.2016 23:32 16,4 C 85 % 1026,3 hPa 0,0 l/m 7,2 km/h (2 Bft) SW 219 0 min 0,000 mm 0,0 UV-I 0 W/m 13,9 C 16,0 C 14,5 km/h (3 Bft) 100,00 %
06.08.2016 23:34 16,4 C 85 % 1026,3 hPa 0,0 l/m 7,7 km/h (2 Bft) S-SW 200 0 min 0,000 mm 0,0 UV-I 0 W/m 13,9 C 15,7 C 11,3 km/h (2 Bft) 100,00 %
06.08.2016 23:36 16,5 C 85 % 1026,3 hPa 0,0 l/m 7,1 km/h (2 Bft) S-SW 212 0 min 0,000 mm 0,0 UV-I 0 W/m 14,0 C 16,1 C 11,3 km/h (2 Bft) 100,00 %
06.08.2016 23:38 16,5 C 84 % 1026,4 hPa 0,0 l/m 7,1 km/h (2 Bft) SW 227 0 min 0,000 mm 0,0 UV-I 0 W/m 13,8 C 16,1 C 11,3 km/h (2 Bft) 100,00 %
06.08.2016 23:40 16,5 C 84 % 1026,3 hPa 0,0 l/m 7,4 km/h (2 Bft) S-SW 205 0 min 0,000 mm 0,0 UV-I 0 W/m 13,8 C 16,0 C 11,3 km/h (2 Bft) 100,00 %
06.08.2016 23:42 16,5 C 84 % 1026,4 hPa 0,0 l/m 4,5 km/h (1 Bft) SW 217 0 min 0,000 mm 0,0 UV-I 0 W/m 13,8 C 16,5 C 8,0 km/h (2 Bft) 100,00 %
06.08.2016 23:44 16,5 C 84 % 1026,3 hPa 0,0 l/m 7,4 km/h (2 Bft) W-SW 237 0 min 0,000 mm 0,0 UV-I 0 W/m 13,8 C 16,0 C 11,3 km/h (2 Bft) 100,00 %
06.08.2016 23:46 16,5 C 85 % 1026,3 hPa 0,0 l/m 7,2 km/h (2 Bft) W-SW 239 0 min 0,000 mm 0,0 UV-I 0 W/m 14,0 C 16,1 C 12,9 km/h (3 Bft) 100,00 %
06.08.2016 23:48 16,4 C 85 % 1026,3 hPa 0,0 l/m 6,8 km/h (2 Bft) W-SW 238 0 min 0,000 mm 0,0 UV-I 0 W/m 13,9 C 16,2 C 11,3 km/h (2 Bft) 100,00 %
06.08.2016 23:50 16,4 C 85 % 1026,3 hPa 0,0 l/m 7,8 km/h (2 Bft) W-SW 237 0 min 0,000 mm 0,0 UV-I 0 W/m 13,9 C 15,7 C 11,3 km/h (2 Bft) 100,00 %
06.08.2016 23:52 16,5 C 85 % 1026,3 hPa 0,0 l/m 10,0 km/h (2 Bft) SW 229 0 min 0,000 mm 0,0 UV-I 0 W/m 14,0 C 14,8 C 16,1 km/h (3 Bft) 100,00 %
06.08.2016 23:54 16,6 C 85 % 1026,4 hPa 0,0 l/m 10,5 km/h (2 Bft) SW 232 0 min 0,000 mm 0,0 UV-I 0 W/m 14,1 C 14,7 C 16,1 km/h (3 Bft) 98,08 %
06.08.2016 23:56 16,6 C 85 % 1026,4 hPa 0,0 l/m 10,3 km/h (2 Bft) SW 225 0 min 0,000 mm 0,0 UV-I 0 W/m 14,1 C 14,8 C 16,1 km/h (3 Bft) 100,00 %
06.08.2016 23:58 16,7 C 84 % 1026,4 hPa 0,0 l/m 13,0 km/h (3 Bft) W-SW 254 0 min 0,000 mm 0,0 UV-I 0 W/m 14,0 C 13,9 C 17,7 km/h (3 Bft) 100,00 %
_ Min-Zeit 02:34 16:16 00:00 - 11:34 - - - - - - 03:26 02:48 11:34 18:00
Minimum _ 12,8 C 62 % 1020,8 hPa - 0,8 km/h (0 Bft) - - - - - - 12,0 C 9,1 C 3,2 km/h (1 Bft) 92,45 %
_ Max-Zeit 16:14 00:00 23:38 00:32 17:50 - - 11:50 15:00 13:28 13:32 13:28 15:18 16:46 00:00
Maximum _ 21,8 C 96 % 1026,4 hPa 0,2 l/m 17,1 km/h
SW (3 Bft)
- - 2 min 0,432 mm 6,3 UV-I 1016 W/m 16,0 C 21,6 C 25,7 km/h
W (4 Bft)
100,00 %
Durchschnitt _ 16,4 C 85 % 1023,7 hPa #2,6 l/m 7,6 km/h (2 Bft) W-SW - #3:34 h #2,565 mm 2,4 UV-I 273 W/m 13,7 C 15,6 C 12,6 km/h (3 Bft) 98,70 %